     2              OBSERVATION DATA                        RINEX VERSION / TYPE
ASHCAN V. 1.90 20000421 17:46:23UTC                         PGM / RUN BY / DATE
AGMT ARGOS_MTN____                                          MARKER NAME
JEG                                                         OBSERVER / AGENCY
LP03033 ASHTECH Z-XII3 CC00 1D02                            REC # / TYPE / VERS
CR519991758 ASH701945B_M SCIT                               ANT # / TYPE
 -2339952.2668 -4707864.1256  3601747.2800                  APPROX POSITION XYZ
        0.0083        0.0000        0.0000                  ANTENNA: DELTA H/E/N
     1     1                                                WAVELENGTH FACT L1/2
     5    L1    L2    C1    P1    P2                        # / TYPES OF OBSERV
  2000     4    19    22     0    0.000000                  TIME OF FIRST OBS
  2000     4    19    23    59   59.000000                  TIME OF LAST OBS
     0                                                      INTERVAL
                                                            END OF HEADER
 00  4 19 22  0  0.0000000  0  9 26 30 17  5 23 24 10  6 13          0.000000000
  -7595166.558 8  -5904218.61445  23831942.738    23831942.5704   23831965.3314
 -22241745.321 9 -17321238.71548  21249785.943    21249786.0494   21249797.7294
 -18068102.687 9 -14055742.20548  22038169.762    22038169.0434   22038182.4274
 -12681360.782 9  -9469722.61446  23034362.726    23034361.9634   23034380.1044
  -6861156.314 9  -5322939.65545  24219967.904    24219967.4564   24219994.1324
  -5266293.675 9  -4081483.12946  23880539.558    23880539.3164   23880555.4774
 -18427632.022 9 -14102770.75948  21585166.353    21585165.4514   21585177.3484
 -27544028.611 9 -21444959.72749  20683550.757    20683550.4564   20683560.8894
  -5043495.606 9  -3923053.20245  24888168.959    24888169.0294   24888184.5264
 00  4 19 22  0  1.0000000  0  9 26 30 17  5 23 24 10  6 13          0.000000106
  -7596594.764 8  -5905331.49745  23831670.978    23831670.8184   23831693.5714
 -22240713.078 9 -17320434.37048  21249982.371    21249982.4834   21249994.1614
 -18068952.005 9 -14056404.00948  22038008.143    22038007.4254   22038020.8124
 -12679656.580 9  -9468394.67146  23034687.028    23034686.2784   23034704.4064
  -6862900.283 9  -5324298.58245  24219636.025    24219635.5764   24219662.2584
  -5265048.912 9  -4080513.18846  23880776.442    23880776.2024   23880792.3604
 -18426536.479 9 -14101917.09048  21585374.845    21585373.9374   21585385.8424
 -27544718.519 9 -21445497.31649  20683419.453    20683419.1574   20683429.5904
  -5043362.547 8  -3922949.52145  24888194.276    24888194.3524   24888209.8544
 00  4 19 22  0  1.0000000  0  9 26 30 17  5 23 24 10  6 13          0.000000105
  -7598023.002 8  -5906444.40445  23831399.183    23831399.0164   23831421.7784
 -22239680.748 9 -17319629.96248  21250178.830    21250178.9374   21250190.6194
 -18069801.308 9 -14057065.80248  22037846.524    22037845.8074   22037859.1914
 -12677952.377 9  -9467066.72746  23035011.329    23035010.5744   23035028.7124
  -6864644.261 9  -5325657.51445  24219304.137    24219303.6864   24219330.3694
  -5263804.220 9  -4079543.30046  23881013.286    23881013.0484   23881029.2084
 -18425440.863 9 -14101063.36648  21585583.311    21585582.4024   21585594.3044
 -27545408.396 9 -21446034.88249  20683288.173    20683287.8684   20683298.2964
  -5043229.393 9  -3922845.76445  24888219.608    24888219.6844   24888235.1764
 00  4 19 22  0  2.0000000  0  9 26 30 17  5 23 24 10  6 13          0.000000105
  -7599451.151 8  -5907557.24345  23831127.408    23831127.2444   23831150.0044
 -22238648.247 9 -17318825.41848  21250375.311    21250375.4214   21250387.1094
 -18070650.534 9 -14057727.53748  22037684.923    22037684.2094   22037697.5844
 -12676248.096 9  -9465738.72046  23035335.649    23035334.8894   23035353.0374
  -6866388.198 9  -5327016.41445  24218972.282    24218971.8364   24218998.5114
  -5262559.457 9  -4078573.35746  23881250.173    23881249.9344   23881266.0924
 -18424345.060 9 -14100209.49548  21585791.862    21585790.9584   21585802.8554
 -27546098.133 9 -21446572.33949  20683156.942    20683156.6394   20683167.0784
  -5043096.038 9  -3922741.85145  24888245.001    24888245.0764   24888260.5814
 00  4 19 22  0  2.0000000  0  9 26 30 17  5 23 24 10  6 13          0.000000105
  -7600879.268 9  -5908670.05545  23830855.636    23830855.4734   23830878.2364
 -22237615.609 9 -17318020.76648  21250571.814    21250571.9254   21250583.6134
 -18071499.696 9 -14058389.21948  22037523.311    22037522.5914   22037535.9684
 -12674543.774 9  -9464410.68346  23035659.962    23035659.1944   23035677.3534
  -6868132.115 9  -5328375.29945  24218640.414    24218639.9664   24218666.6404
  -5261314.699 9  -4077603.41646  23881487.042    23881486.8114   23881502.9624
 -18423249.127 9 -14099355.52048  21586000.388    21585999.4834   21586011.3974
 -27546787.794 9 -21447109.73749  20683025.681    20683025.3894   20683035.8054
  -5042962.535 9  -3922637.82445  24888270.385    24888270.4694   24888285.9704
 00  4 19 22  0  3.0000000  0  9 26 30 17  5 23 24 10  6 13          0.000000105
  -7602307.370 8  -5909782.85545  23830583.887    23830583.7314   23830606.4864
 -22236582.828 9 -17317216.00548  21250768.342    21250768.4494   21250780.1334
 -18072348.793 9 -14059050.85348  22037361.757    22037361.0334   22037374.4224
 -12672839.401 9  -9463082.60746  23035984.299    23035983.5304   23036001.6844
  -6869875.975 9  -5329734.14045  24218308.554    24218308.1054   24218334.7774
  -5260069.951 9  -4076633.48246  23881723.916    23881723.6774   23881739.8454
 -18422153.058 9 -14098501.44248  21586208.965    21586208.0594   21586219.9564
 -27547477.361 9 -21447647.06149  20682894.473    20682894.1704   20682904.6044
  -5042828.901 8  -3922533.69545  24888295.833    24888295.9214   24888311.4154
 00  4 19 22  0  3.0000000  0  9 26 30 17  5 23 24 10  6 13          0.000000104
  -7603735.371 8  -5910895.57445  23830312.132    23830311.9794   23830334.7354
 -22235549.853 9 -17316411.09348  21250964.918    21250965.0234   21250976.7114
 -18073197.786 9 -14059712.40248  22037200.178    22037199.4554   22037212.8404
 -12671134.918 9  -9461754.44646  23036308.676    23036307.9054   23036326.0634
  -6871619.783 9  -5331092.94245  24217976.705    24217976.2554   24218002.9194
  -5258825.116 9  -4075663.48246  23881960.791    23881960.5434   23881976.7104
 -18421056.788 9 -14097647.20648  21586417.579    21586416.6754   21586428.5814
 -27548166.769 9 -21448184.26449  20682763.291    20682762.9814   20682773.4314
  -5042695.032 8  -3922429.38045  24888321.292    24888321.3744   24888336.8744
 00  4 19 22  0  4.0000000  0  9 26 30 17  5 23 24 10  6 13          0.000000104
  -7605163.440 8  -5912008.34945  23830040.378    23830040.2184   23830062.9794
 -22234516.829 9 -17315606.14048  21251161.494    21251161.6074   21251173.2964
 -18074046.810 9 -14060373.97748  22037038.622    22037037.8974   22037051.2794
 -12669430.481 9  -9460426.31546  23036633.007    23036632.2414   23036650.3954
  -6873363.643 9  -5332451.78145  24217644.867    24217644.4154   24217671.0824
  -5257580.365 9  -4074693.54746  23882197.664    23882197.4194   23882213.5864
 -18419960.470 9 -14096792.93448  21586626.199    21586625.3004   21586637.2044
 -27548856.184 9 -21448721.46949  20682632.104    20682631.8024   20682642.2334
  -5042561.111 9  -3922325.02445  24888346.779    24888346.8564   24888362.3624
 00  4 19 22  0  4.0000000  0  9 26 30 17  5 23 24 10  6 13          0.000000104
  -7606591.490 8  -5913121.10745  23829768.620    23829768.4564   23829791.2284
 -22233483.694 9 -17314801.09948  21251358.085    21251358.1914   21251369.8824
 -18074895.793 9 -14061035.52148  22036877.073    22036876.3484   22036889.7324
 -12667726.025 9  -9459098.17346  23036957.383    23036956.6164   23036974.7774
  -6875107.481 9  -5333810.60545  24217313.017    24217312.5654   24217339.2234
  -5256335.638 9  -4073723.63046  23882434.543    23882434.2954   23882450.4724
 -18418864.047 9 -14095938.57948  21586834.839    21586833.9264   21586845.8454
 -27549545.536 9 -21449258.62649  20682500.925    20682500.6234   20682511.0574
  -5042427.067 9  -3922220.57445  24888372.278    24888372.3594   24888387.8584
 00  4 19 22  0  5.0000000  0  9 26 30 17  5 23 24 10  6 13          0.000000103
  -7608019.531 8  -5914233.86045  23829496.871    23829496.7144   23829519.4794
 -22232450.431 9 -17313995.96248  21251554.724    21251554.8344   21251566.5204
 -18075744.742 9 -14061697.03848  22036715.508    22036714.7804   22036728.1664
 -12666021.536 9  -9457770.00346  23037281.739    23037280.9724   23037299.1314
  -6876851.331 9  -5335169.43945  24216981.150    24216980.7044   24217007.3554
  -5255090.898 9  -4072753.70446  23882671.425    23882671.1714   23882687.3574
 -18417767.486 9 -14095084.11748  21587043.529    21587042.6214   21587054.5224
 -27550234.793 9 -21449795.70949  20682369.762    20682369.4544   20682379.8874
  -5042292.878 9  -3922116.00845  24888397.808    24888397.8814   24888413.3834
 00  4 19 22  0  5.0000000  0  9 26 30 17  5 23 24 10  6 13          0.000000103
  -7609447.479 8  -5915346.54145  23829225.132    23829224.9724   23829247.7524
 -22231416.988 9 -17313190.68448  21251751.369    21251751.4784   21251763.1724
 -18076593.586 9 -14062358.47548  22036553.972    22036553.2424   22036566.6244
 -12664316.950 9  -9456441.76146  23037606.104    23037605.3284   23037623.4884
  -6878595.111 9  -5336528.21645  24216649.322    24216648.8744   24216675.5264
  -5253846.113 9  -4071783.74346  23882908.283    23882908.0274   23882924.2134
 -18416670.744 9 -14094229.51648  21587252.221    21587251.3074   21587263.2174
 -27550923.926 9 -21450332.69449  20682238.616    20682238.3044   20682248.7444
  -5042158.504 8  -3922011.29945  24888423.399    24888423.4734   24888438.9744
 00  4 19 22  0  6.0000000  0  9 26 30 17  5 23 24 10  6 13          0.000000103
  -7610875.357 8  -5916459.16645  23828953.412    23828953.2504   23828976.0344
 -22230383.352 9 -17312385.25548  21251948.086    21251948.1924   21251959.8874
 -18077442.306 9 -14063019.81548  22036392.479    22036391.7544   22036405.1374
 -12662612.260 9  -9455113.43846  23037930.502    23037929.7234   23037947.8864
  -6880338.785 9  -5337886.91245  24216317.505    24216317.0544   24216343.7134
  -5252601.271 9  -4070813.73846  23883145.171    23883144.9134   23883161.1004
 -18415573.819 9 -14093374.77048  21587460.954    21587460.0524   21587471.9574
 -27551612.909 9 -21450869.56549  20682107.492    20682107.1854   20682117.6154
  -5042023.924 9  -3921906.43045  24888449.000    24888449.0764   24888464.5814
 00  4 19 22  0  6.0000000  0  9 26 30 17  5 23 24 10  6 13          0.000000102
  -7612303.304 8  -5917571.84545  23828681.673    23828681.5084   23828704.2964
 -22229349.694 9 -17311579.81048  21252144.780    21252144.8864   21252156.5744
 -18078291.104 9 -14063681.21148  22036230.948    22036230.2164   22036243.6014
 -12660907.629 9  -9453785.16346  23038254.893    23038254.1184   23038272.2834
  -6882082.560 9  -5339245.68745  24215985.664    24215985.2044   24216011.8624
  -5251356.532 9  -4069843.81646  23883382.045    23883381.7894   23883397.9744
 -18414476.859 9 -14092519.99548  21587669.712    21587668.8084   21587680.7144
 -27552301.907 9 -21451406.44549  20681976.384    20681976.0764   20681986.5074
  -5041889.311 9  -3921801.53745  24888474.606    24888474.6784   24888490.1824
 00  4 19 22  0  7.0000000  0  9 26 30 17  5 23 24 10  6 13          0.000000102
  -7613731.232 8  -5918684.51145  23828409.930    23828409.7574   23828432.5574
 -22228315.911 9 -17310774.26248  21252341.490    21252341.6004   21252353.2894
 -18079139.854 9 -14064342.57248  22036069.438    22036068.7074   22036082.0874
 -12659202.969 9  -9452456.86446  23038579.277    23038578.4944   23038596.6664
  -6883826.328 9  -5340604.45645  24215653.833    24215653.3734   24215680.0344
  -5250111.805 9  -4068873.90246  23883618.909    23883618.6554   23883634.8394
 -18413379.778 9 -14091665.12848  21587878.471    21587877.5634   21587889.4734
 -27552990.825 9 -21451943.26249  20681845.289    20681844.9774   20681855.4084
  -5041754.548 9  -3921696.52945  24888500.242    24888500.3104   24888515.8204
 00  4 19 22  0  7.0000000  0  9 26 30 17  5 23 24 10  6 13          0.000000102
  -7615159.073 8  -5919797.10545  23828138.226    23828138.0554   23828160.8614
 -22227281.911 9 -17309968.55148  21252538.260    21252538.3644   21252550.0574
 -18079988.451 9 -14065003.81548  22035907.941    22035907.2094   22035920.5894
 -12657498.182 9  -9451128.46546  23038903.695    23038902.9194   23038921.0774
  -6885569.965 9  -5341963.12345  24215322.028    24215321.5634   24215348.2224
  -5248867.005 9  -4067903.93346  23883855.786    23883855.5304   23883871.7164
 -18412282.484 9 -14090810.09548  21588087.281    21588086.3794   21588098.2784
 -27553679.581 9 -21452479.95549  20681714.217    20681713.9084   20681724.3404
  -5041619.575 9  -3921591.35045  24888525.937    24888526.0024   24888541.5154
 00  4 19 22  0  8.0000000  0  9 26 30 17  5 23 24 10  6 13          0.000000102
  -7616586.870 8  -5920909.66845  23827866.528    23827866.3524   23827889.1674
 -22226247.790 9 -17309162.74548  21252735.057    21252735.1674   21252746.8624
 -18080837.030 9 -14065665.04448  22035746.481    22035745.7514   22035759.1364
 -12655793.359 9  -9449800.03546  23039228.125    23039227.3444   23039245.5124
  -6887313.622 9  -5343321.80845  24214990.223    24214989.7634   24215016.4214
  -5247622.191 9  -4066933.95346  23884092.667    23884092.4074   23884108.6084
 -18411185.059 9 -14089954.95848  21588296.123    21588295.2144   21588307.1214
 -27554368.244 9 -21453016.57449  20681583.184    20681582.8784   20681593.3034
  -5041484.441 9  -3921486.05145  24888551.650    24888551.7144   24888567.2224
 00  4 19 22  0  8.0000000  0  9 26 30 17  5 23 24 10  6 13          0.000000101
  -7618014.657 8  -5922022.22445  23827594.818    23827594.6414   23827617.4604
 -22225213.559 9 -17308356.85348  21252931.870    21252931.9814   21252943.6724
 -18081685.570 9 -14066326.24348  22035584.992    22035584.2634   22035597.6484
 -12654088.513 9  -9448471.58746  23039552.539    23039551.7594   23039569.9294
  -6889057.242 9  -5344680.46245  24214658.408    24214657.9434   24214684.5994
  -5246377.394 9  -4065963.98446  23884329.566    23884329.3034   23884345.5114
 -18410087.527 9 -14089099.73948  21588504.956    21588504.0504   21588515.9484
 -27555056.848 9 -21453553.15049  20681452.148    20681451.8394   20681462.2684
  -5041349.195 9  -3921380.66245  24888577.378    24888577.4474   24888592.9514
 00  4 19 22  0  9.0000000  0  9 26 30 17  5 23 24 10  6 13          0.000000101
  -7619442.436 9  -5923134.77245  23827323.122    23827322.9394   23827345.7594
 -22224179.197 9 -17307550.85948  21253128.685    21253128.7954   21253140.4854
 -18082534.047 9 -14066987.39048  22035423.549    22035422.8254   22035436.1994
 -12652383.624 9  -9447143.11046  23039876.963    23039876.1854   23039894.3594
  -6890800.850 9  -5346039.10745  24214326.607    24214326.1334   24214352.7954
  -5245132.600 9  -4064994.01846  23884566.433    23884566.1694   23884582.3744
 -18408989.865 9 -14088244.41848  21588713.849    21588712.9454   21588724.8414
 -27555745.375 9 -21454089.66349  20681321.128    20681320.8204   20681331.2494
  -5041213.812 9  -3921275.16645  24888603.155    24888603.2194   24888618.7294
 00  4 19 22  0  9.0000000  0  9 26 30 17  5 23 24 10  6 13          0.000000101
  -7620870.213 8  -5924247.31945  23827051.393    23827051.2074   23827074.0354
 -22223144.741 9 -17306744.79348  21253325.544    21253325.6494   21253337.3484
 -18083382.521 9 -14067648.53748  22035262.086    22035261.3564   22035274.7414
 -12650678.714 9  -9445814.61346  23040201.418    23040200.6414   23040218.8124
  -6892544.482 9  -5347397.77145  24213994.793    24213994.3224   24214020.9804
  -5243887.828 9  -4064024.06646  23884803.312    23884803.0544   23884819.2554
 -18407892.091 9 -14087389.01248  21588922.742    21588921.8404   21588933.7434
 -27556433.830 9 -21454626.12249  20681190.109    20681189.8004   20681200.2294
  -5041078.305 9  -3921169.57645  24888628.921    24888628.9814   24888644.4864
 00  4 19 22  0 10.0000000  0  9 26 30 17  5 23 24 10  6 13          0.000000100
  -7622297.963 8  -5925359.84345  23826779.710    23826779.5254   23826802.3624
 -22222110.161 9 -17305938.62848  21253522.424    21253522.5324   21253534.2214
 -18084230.948 9 -14068309.64748  22035100.625    22035099.8984   22035113.2784
 -12648973.771 9  -9444486.09446  23040525.853    23040525.0664   23040543.2484
  -6894288.105 9  -5348756.42745  24213662.992    24213662.5124   24213689.1684
  -5242643.065 9  -4063054.12446  23885040.190    23885039.9304   23885056.1364
 -18406794.190 9 -14086533.50548  21589131.683    21589130.7864   21589142.6794
 -27557122.209 9 -21455162.51949  20681059.116    20681058.8014   20681069.2394
  -5040942.663 9  -3921063.88245  24888654.731    24888654.7934   24888670.3064
 00  4 19 22  0 10.0000000  0  9 26 30 17  5 23 24 10  6 13          0.000000100
  -7623725.649 9  -5926472.31745  23826508.035    23826507.8534   23826530.6914
 -22221075.399 9 -17305132.32148  21253719.318    21253719.4264   21253731.1224
 -18085079.269 9 -14068970.67448  22034939.197    22034938.4704   22034951.8534
 -12647268.744 9  -9443157.50946  23040850.316    23040849.5314   23040867.7114
  -6896031.622 9  -5350115.00045  24213331.191    24213330.7124   24213357.3674
  -5241398.234 9  -4062084.12846  23885277.071    23885276.8164   23885293.0244
 -18405696.124 9 -14085677.86948  21589340.641    21589339.7414   21589351.6364
 -27557810.464 9 -21455698.82149  20680928.155    20680927.8424   20680938.2704
  -5040806.826 9  -3920958.03345  24888680.580    24888680.6354   24888696.1554
 00  4 19 22  0 11.0000000  0  9 26 30 17  5 23 24 10  6 13          0.000000099
  -7625153.308 8  -5927584.77245  23826236.333    23826236.1414   23826258.9894
 -22220040.521 9 -17304325.92548  21253916.253    21253916.3604   21253928.0494
 -18085927.560 9 -14069631.67748  22034777.760    22034777.0314   22034790.4074
 -12645563.674 9  -9441828.89046  23041174.791    23041174.0074   23041192.1854
  -6897775.149 9  -5351473.58245  24212999.412    24212998.9214   24213025.5804
  -5240153.412 9  -4061114.13846  23885513.957    23885513.7034   23885529.9094
 -18404597.909 9 -14084822.11848  21589549.596    21589548.6964   21589560.5984
 -27558498.624 9 -21456235.04949  20680797.189    20680796.8724   20680807.3074
  -5040670.856 9  -3920852.08645  24888706.483    24888706.5374   24888722.0484
 00  4 19 22  0 11.0000000  0  9 26 30 17  5 23 24 10  6 13          0.000000099
  -7626580.903 8  -5928697.17745  23825964.663    23825964.4794   23825987.3274
 -22219005.477 9 -17303519.39848  21254113.221    21254113.3234   21254125.0224
 -18086775.752 9 -14070292.60448  22034616.361    22034615.6334   22034629.0094
 -12643858.523 9  -9440500.20346  23041499.285    23041498.4924   23041516.6764
  -6899518.612 9  -5352832.11345  24212667.620    24212667.1314   24212693.7894
  -5238908.559 9  -4060144.12546  23885750.852    23885750.5994   23885766.7954
 -18403499.527 9 -14083966.23948  21589758.613    21589757.7124   21589769.6154
 -27559186.665 9 -21456771.18449  20680666.267    20680665.9534   20680676.3814
  -5040534.689 9  -3920745.97945  24888732.386    24888732.4394   24888747.9524
 00  4 19 22  0 12.0000000  0  9 26 30 17  5 23 24 10  6 13          0.000000099
  -7628008.546 8  -5929809.61945  23825693.009    23825692.8174   23825715.6774
 -22217970.357 9 -17302712.81148  21254310.221    21254310.3274   21254322.0234
 -18087623.946 9 -14070953.53148  22034454.944    22034454.2154   22034467.5884
 -12642153.394 9  -9439171.53346  23041823.755    23041822.9674   23041841.1534
  -6901262.081 9  -5354190.64945  24212335.853    24212335.3614   24212362.0104
  -5237663.771 9  -4059174.16446  23885987.741    23885987.4844   23886003.6744
 -18402401.077 9 -14083110.30248  21589967.641    21589966.7474   21589978.6384
 -27559874.685 9 -21457307.30449  20680535.327    20680535.0144   20680545.4454
  -5040398.443 9  -3920639.81045  24888758.315    24888758.3714   24888773.8984
 00  4 19 22  0 12.0000000  0  9 26 30 17  5 23 24 10  6 13          0.000000098
  -7629436.130 8  -5930922.01545  23825421.314    23825421.1254   23825443.9894
 -22216935.120 9 -17301906.13548  21254507.200    21254507.3014   21254519.0014
 -18088472.097 9 -14071614.42848  22034293.557    22034292.8274   22034306.2004
 -12640448.202 9  -9437842.81746  23042148.230    23042147.4424   23042165.6254
  -6903005.536 9  -5355549.17445  24212004.065    24212003.5704   24212030.2244
  -5236418.963 9  -4058204.18646  23886224.610    23886224.3514   23886240.5454
 -18401302.481 9 -14082254.25248  21590176.709    21590175.8124   21590187.7074
 -27560562.606 9 -21457843.34549  20680404.426    20680404.1144   20680414.5454
  -5040262.052 9  -3920533.53345  24888784.248    24888784.2944   24888799.8144
 00  4 19 22  0 13.0000000  0  9 26 30 17  5 23 24 10  6 13          0.000000098
  -7630863.646 9  -5932034.35945  23825149.684    23825149.4934   23825172.3624
 -22215899.720 9 -17301099.33248  21254704.250    21254704.3544   21254716.0524
 -18089320.155 9 -14072275.25048  22034132.165    22034131.4394   22034144.8144
 -12638742.938 9  -9436514.04646  23042472.746    23042471.9584   23042490.1474
  -6904748.940 9  -5356907.66145  24211672.304    24211671.8004   24211698.4534
  -5235174.114 9  -4057234.17646  23886461.508    23886461.2564   23886477.4424
 -18400203.729 9 -14081398.08348  21590385.797    21590384.8974   21590396.8004
 -27561250.412 9 -21458379.29649  20680273.549    20680273.2354   20680283.6654
  -5040125.485 9  -3920427.11445  24888810.253    24888810.2954   24888825.8364
 00  4 19 22  0 13.0000000  0  9 26 30 17  5 23 24 10  6 13          0.000000098
  -7632291.141 9  -5933146.68745  23824878.023    23824877.8314   23824900.7014
 -22214864.170 9 -17300292.41348  21254901.307    21254901.4084   21254913.1054
 -18090168.138 9 -14072936.01848  22033970.787    22033970.0604   22033983.4284
 -12637037.618 9  -9435185.23446  23042797.273    23042796.4934   23042814.6704
  -6906492.274 9  -5358266.09045  24211340.554    24211340.0494   24211366.7014
  -5233929.260 9  -4056264.16346  23886698.405    23886698.1524   23886714.3364
 -18399104.818 9 -14080541.79248  21590594.899    21590594.0034   21590605.9014
 -27561938.120 9 -21458915.17349  20680142.660    20680142.3454   20680152.7754
  -5039988.753 9  -3920320.57045  24888836.261    24888836.3174   24888851.8454
 00  4 19 22  0 14.0000000  0  9 26 30 17  5 23 24 10  6 13          0.000000097
  -7633718.611 9  -5934258.99545  23824606.385    23824606.1904   23824629.0634
 -22213828.523 9 -17299485.41848  21255098.386    21255098.4914   21255110.1834
 -18091016.104 9 -14073596.77048  22033809.424    22033808.6924   22033822.0654
 -12635332.260 9  -9433856.38746  23043121.779    23043120.9994   23043139.1824
  -6908235.633 9  -5359624.54145  24211008.792    24211008.2894   24211034.9374
  -5232684.418 9  -4055294.15846  23886935.286    23886935.0294   23886951.2214
 -18398005.788 9 -14079685.40648  21590804.055    21590803.1584   21590815.0614
 -27562625.752 9 -21459450.99049  20680011.811    20680011.4964   20680021.9254
  -5039851.897 9  -3920213.92845  24888862.305    24888862.3494   24888877.8844
 00  4 19 22  0 14.0000000  0  9 26 30 17  5 23 24 10  6 13          0.000000097
  -7635146.054 9  -5935371.28345  23824334.747    23824334.5484   23824357.4294
 -22212792.759 9 -17298678.33148  21255295.492    21255295.5954   21255307.2924
 -18091864.019 9 -14074257.47848  22033648.090    22033647.3644   22033660.7394
 -12633626.866 9  -9432527.51646  23043446.313    23043445.5344   23043463.7144
  -6909978.952 9  -5360982.95845  24210677.028    24210676.5194   24210703.1784
  -5231439.582 9  -4054324.15846  23887172.169    23887171.9144   23887188.1044
 -18396906.632 9 -14078828.92248  21591013.218    21591012.3234   21591024.2254
 -27563313.311 9 -21459986.74949  20679880.982    20679880.6674   20679891.1024
  -5039714.899 9  -3920107.17245  24888888.389    24888888.4314   24888903.9664
 00  4 19 22  0 15.0000000  0  9 26 30 17  5 23 24 10  6 13          0.000000096
  -7636573.451 9  -5936483.53545  23824063.111    23824062.9164   23824085.7954
 -22211756.832 9 -17297871.11948  21255492.612    21255492.7084   21255504.4104
 -18092711.841 9 -14074918.11748  22033486.743    22033486.0154   22033499.3884
 -12631921.406 9  -9431198.59546  23043770.849    23043770.0694   23043788.2484
  -6911722.224 9  -5362341.34345  24210345.308    24210344.7984   24210371.4534
  -5230194.727 9  -4053354.14646  23887409.065    23887408.8114   23887425.0004
 -18395807.317 9 -14077972.31448  21591222.396    21591221.4984   21591233.3984
 -27564000.763 9 -21460522.42549  20679750.173    20679749.8574   20679760.2924
  -5039577.746 9  -3920000.30045  24888914.487    24888914.5334   24888930.0714
 00  4 19 22  0 15.0000000  0  9 26 30 17  5 23 24 10  6 13          0.000000096
  -7638000.798 8  -5937595.74645  23823791.473    23823791.2744   23823814.1634
 -22210720.784 9 -17297063.81048  21255689.776    21255689.8724   21255701.5754
 -18093559.628 9 -14075578.72748  22033325.413    22033324.6874   22033338.0584
 -12630215.877 9  -9429869.61746  23044095.420    23044094.6354   23044112.8184
  -6913465.459 9  -5363699.69745  24210013.576    24210013.0684   24210039.7134
  -5228949.849 9  -4052384.11546  23887645.951    23887645.6974   23887661.8804
 -18394707.857 9 -14077115.59348  21591431.631    21591430.7434   21591442.6364
 -27564688.112 9 -21461058.02149  20679619.354    20679619.0384   20679629.4694
  -5039440.426 9  -3919893.29545  24888940.613    24888940.6554   24888956.1974
 00  4 19 22  0 16.0000000  0  9 26 30 17  5 23 24 10  6 13          0.000000096
  -7639428.157 8  -5938707.96745  23823519.847    23823519.6414   23823542.5374
 -22209684.630 9 -17296256.42048  21255886.954    21255887.0564   21255898.7574
 -18094407.372 9 -14076239.30448  22033164.100    22033163.3694   22033176.7474
 -12628510.330 9  -9428540.62646  23044419.986    23044419.2004   23044437.3814
  -6915208.702 9  -5365058.05645  24209681.815    24209681.2984   24209707.9504
  -5227704.992 9  -4051414.10146  23887882.856    23887882.6034   23887898.7924
 -18393608.283 9 -14076258.78348  21591640.877    21591639.9894   21591651.8814
 -27565375.397 9 -21461593.56949  20679488.574    20679488.2584   20679498.6894
  -5039302.996 9  -3919786.20545  24888966.760    24888966.7974   24888982.3494
 00  4 19 22  0 16.0000000  0  9 26 30 17  5 23 24 10  6 13          0.000000095
  -7640855.457 8  -5939820.14045  23823248.251    23823248.0504   23823270.9424
 -22208648.295 9 -17295448.88948  21256084.143    21256084.2394   21256095.9384
 -18095255.021 9 -14076899.80948  22033002.772    22033002.0404   22033015.4104
 -12626804.701 9  -9427211.57146  23044744.550    23044743.7654   23044761.9544
  -6916951.871 9  -5366416.35945  24209350.111    24209349.5974   24209376.2414
  -5226460.099 9  -4050444.05546  23888119.753    23888119.4994   23888135.6784
 -18392508.548 9 -14075401.84648  21591850.129    21591849.2344   21591861.1334
 -27566062.564 9 -21462129.02249  20679357.811    20679357.4994   20679367.9284
  -5039165.394 8  -3919678.98445  24888992.944    24888992.9794   24889008.5284
 00  4 19 22  0 17.0000000  0  9 26 30 17  5 23 24 10  6 13          0.000000095
  -7642282.770 9  -5940932.32745  23822976.632    23822976.4284   23822999.3284
 -22207611.907 9 -17294641.31348  21256281.365    21256281.4624   21256293.1644
 -18096102.679 9 -14077560.32048  22032841.479    22032840.7524   22032854.1214
 -12625099.073 9  -9425882.51246  23045069.123    23045068.3314   23045086.5244
  -6918695.059 9  -5367774.67745  24209018.377    24209017.8574   24209044.4924
  -5225215.249 9  -4049474.04446  23888356.629    23888356.3754   23888372.5624
 -18391408.725 9 -14074544.84148  21592059.430    21592058.5394   21592070.4384
 -27566749.685 9 -21462664.44049  20679227.055    20679226.7394   20679237.1734
  -5039027.688 9  -3919571.68045  24889019.141    24889019.1714   24889034.7254
 00  4 19 22  0 17.0000000  0  9 26 30 17  5 23 24 10  6 13          0.000000094
  -7643710.063 8  -5942044.49545  23822705.028    23822704.8264   23822727.7264
 -22206575.409 9 -17293833.65348  21256478.606    21256478.7064   21256490.4024
 -18096950.295 9 -14078220.79948  22032680.189    22032679.4644   22032692.8264
 -12623393.410 9  -9424553.43546  23045393.711    23045392.9264   23045411.1154
  -6920438.249 9  -5369132.99645  24208686.664    24208686.1474   24208712.7754
  -5223970.421 9  -4048504.05046  23888593.519    23888593.2714   23888609.4424
 -18390308.784 9 -14073687.74748  21592268.744    21592267.8544   21592279.7564
 -27567436.745 9 -21463199.81049  20679096.318    20679096.0004   20679106.4414
  -5038889.875 9  -3919464.28845  24889045.380    24889045.4034   24889060.9674
 00  4 19 22  0 18.0000000  0  9 26 30 17  5 23 24 10  6 13          0.000000094
  -7645137.270 9  -5943156.59845  23822433.427    23822433.2244   23822456.1304
 -22205538.704 9 -17293025.83248  21256675.877    21256675.9794   21256687.6734
 -18097797.788 9 -14078881.17948  22032518.892    22032518.1654   22032531.5304
 -12621687.644 9  -9423224.27746  23045718.295    23045717.5114   23045735.7064
  -6922181.322 9  -5370491.22545  24208354.959    24208354.4364   24208381.0714
  -5222725.547 9  -4047534.02046  23888830.405    23888830.1564   23888846.3334
 -18389208.644 9 -14072830.49648  21592478.086    21592477.1994   21592489.0984
 -27568123.652 9 -21463735.06249  20678965.609    20678965.2904   20678975.7254
  -5038751.811 9  -3919356.70645  24889071.665    24889071.6854   24889087.2594
 00  4 19 22  0 18.0000000  0  9 26 30 17  5 23 24 10  6 13          0.000000094
  -7646564.405 8  -5944268.64545  23822161.852    23822161.6424   23822184.5524
 -22204501.835 9 -17292217.88548  21256873.206    21256873.3034   21256885.0034
 -18098645.189 9 -14079541.49148  22032357.648    22032356.9174   22032370.2854
 -12619981.775 9  -9421895.03746  23046042.919    23046042.1364   23046060.3284
  -6923924.353 9  -5371849.42145  24208023.255    24208022.7364   24208049.3594
  -5221480.595 9  -4046563.92946  23889067.310    23889067.0624   23889083.2364
 -18388108.323 9 -14071973.10548  21592687.484    21592686.5944   21592698.4894
 -27568810.417 9 -21464270.20449  20678834.916    20678834.6014   20678845.0374
  -5038613.589 8  -3919248.99945  24889097.944    24889097.9764   24889113.5394
 00  4 19 22  0 19.0000000  0  9 26 30 17  5 23 24 10  6 13          0.000000093
  -7647991.553 8  -5945380.70245  23821890.275    23821890.0704   23821912.9714
 -22203464.899 9 -17291409.88548  21257070.528    21257070.6264   21257082.3314
 -18099492.590 9 -14080201.80248  22032196.392    22032195.6684   22032209.0294
 -12618275.920 9  -9420565.80246  23046367.541    23046366.7614   23046384.9534
  -6925667.407 9  -5373207.63445  24207691.553    24207691.0354   24207717.6504
  -5220235.702 9  -4045593.88246  23889304.201    23889303.9594   23889320.1294
 -18387007.918 9 -14071115.64748  21592896.870    21592895.9794   21592907.8784
 -27569497.155 9 -21464805.32549  20678704.220    20678703.9014   20678714.3434
  -5038475.279 9  -3919141.22545  24889124.264    24889124.2984   24889139.8544
 00  4 19 22  0 19.0000000  0  9 26 30 17  5 23 24 10  6 13          0.000000093
  -7649418.720 9  -5946492.77545  23821618.676    23821618.4684   23821641.3734
 -22202427.875 9 -17290601.81548  21257267.857    21257267.9594   21257279.6604
 -18100339.972 9 -14080862.09748  22032035.147    22032034.4204   22032047.7824
 -12616570.068 9  -9419236.57246  23046692.158    23046691.3774   23046709.5744
  -6927410.456 9  -5374565.84245  24207359.858    24207359.3354   24207385.9504
  -5218990.863 9  -4044623.88246  23889541.111    23889540.8644   23889557.0464
 -18385907.445 9 -14070258.13648  21593106.291    21593105.4044   21593117.2984
 -27570183.861 9 -21465340.42049  20678573.554    20678573.2424   20678583.6754
  -5038336.866 8  -3919033.36745  24889150.620    24889150.6494   24889166.2014
 00  4 19 22  0 20.0000000  0  9 26 30 17  5 23 24 10  6 13          0.000000092
  -7650845.846 9  -5947604.81445  23821347.104    23821346.8964   23821369.8024
 -22201390.727 9 -17289793.65048  21257465.236    21257465.3334   21257477.0444
 -18101187.310 9 -14081522.35648  22031873.887    22031873.1624   22031886.5254
 -12614864.149 9  -9417907.29046  23047016.777    23047016.0024   23047034.1904
  -6929153.490 9  -5375924.04445  24207028.152    24207027.6354   24207054.2424
  -5217746.010 9  -4043653.86946  23889778.008    23889777.7704   23889793.9424
 -18384806.815 9 -14069400.50348  21593315.726    21593314.8394   21593326.7344
 -27570870.466 9 -21465875.43649  20678442.883    20678442.5724   20678453.0014
  -5038198.321 8  -3918925.40845  24889176.965    24889177.0014   24889192.5484
 00  4 19 22  0 20.0000000  0  9 26 30 17  5 23 24 10  6 13          0.000000092
  -7652272.895 8  -5948716.79145  23821075.539    23821075.3244   23821098.2374
 -22200353.385 9 -17288985.33648  21257662.621    21257662.7264   21257674.4284
 -18102034.519 9 -14082182.51848  22031712.669    22031711.9444   22031725.3064
 -12613158.118 9  -9416577.92146  23047341.429    23047340.6574   23047358.8484
  -6930896.430 9  -5377282.16845  24206696.474    24206695.9544   24206722.5654
  -5216501.095 9  -4042683.80846  23890014.907    23890014.6664   23890030.8344
 -18383705.996 9 -14068542.72348  21593525.213    21593524.3244   21593536.2224
 -27571556.915 9 -21466410.33049  20678312.274    20678311.9634   20678322.3984
  -5038059.547 9  -3918817.27145  24889203.372    24889203.4134   24889218.9694
 00  4 19 22  0 21.0000000  0  9 26 30 17  5 23 24 10  6 13          0.000000091
  -7653700.009 8  -5949828.82245  23820803.957    23820803.7424   23820826.6574
 -22199315.988 9 -17288176.97648  21257860.039    21257860.1404   21257871.8434
 -18102881.748 9 -14082842.69448  22031551.443    22031550.7154   22031564.0794
 -12611452.125 9  -9415248.58146  23047666.083    23047665.3124   23047683.4944
  -6932639.407 9  -5378640.32145  24206364.785    24206364.2644   24206390.8684
  -5215256.258 9  -4041713.80946  23890251.776    23890251.5424   23890267.7104
 -18382605.122 9 -14067684.90148  21593734.691    21593733.7994   21593745.7044
 -27572243.370 9 -21466945.22949  20678181.622    20678181.3134   20678191.7404
  -5037920.718 9  -3918709.08845  24889229.793    24889229.8344   24889245.3944
 00  4 19 22  0 21.0000000  0  9 26 30 17  5 23 24 10  6 13          0.000000091
  -7655126.988 9  -5950940.74745  23820532.397    23820532.1804   23820555.0924
 -22198278.379 9 -17287368.45248  21258057.494    21258057.5934   21258069.3014
 -18103728.829 9 -14083502.75648  22031390.241    22031389.5174   22031402.8774
 -12609745.982 9  -9413919.12546  23047990.759    23047989.9984   23048008.1724
  -6934382.276 9  -5379998.39045  24206033.126    24206032.6034   24206059.2134
  -5214011.319 9  -4040743.72646  23890488.677    23890488.4484   23890504.6094
 -18381504.015 9 -14066826.89748  21593944.240    21593943.3544   21593955.2524
 -27572929.626 9 -21467479.97549  20678051.041    20678050.7244   20678061.1624
  -5037781.639 8  -3918600.71245  24889256.278    24889256.3164   24889271.8854
 00  4 19 22  0 22.0000000  0  9 26 30 17  5 23 24 10  6 13          0.000000091
  -7656553.944 8  -5952052.65545  23820260.860    23820260.6484   23820283.5474
 -22197240.663 9 -17286559.84348  21258254.973    21258255.0764   21258266.7774
 -18104575.879 9 -14084162.79048  22031229.067    22031228.3384   22031241.7004
 -12608039.814 9  -9412589.64846  23048315.431    23048314.6734   23048332.8434
  -6936125.115 9  -5381356.43545  24205701.483    24205700.9634   24205727.5654
  -5212766.406 9  -4039773.66646  23890725.576    23890725.3544   23890741.5074
 -18380402.799 9 -14065968.80548  21594153.807    21594152.9194   21594164.8174
 -27573615.815 9 -21468014.66849  20677920.477    20677920.1644   20677930.6014
  -5037642.430 8  -3918492.23745  24889282.756    24889282.7984   24889298.3674
 00  4 19 22  0 22.0000000  0  9 26 30 17  5 23 24 10  6 13          0.000000090
  -7657980.944 9  -5953164.59845  23819989.301    23819989.0864   23820011.9844
 -22196202.870 9 -17285751.17648  21258452.468    21258452.5694   21258464.2754
 -18105422.927 9 -14084822.82648  22031067.874    22031067.1504   22031080.5094
 -12606333.666 9  -9411260.18646  23048640.098    23048639.3384   23048657.5094
  -6937868.009 9  -5382714.52545  24205369.786    24205369.2634   24205395.8664
  -5211521.547 9  -4038803.65046  23890962.485    23890962.2704   23890978.4164
 -18379301.516 9 -14065110.66348  21594363.348    21594362.4644   21594374.3444
 -27574301.984 9 -21468549.34549  20677789.875    20677789.5644   20677799.9994
  -5037503.161 9  -3918383.71445  24889309.258    24889309.3094   24889324.8724
 00  4 19 22  0 23.0000000  0  9 26 30 17  5 23 24 10  6 13          0.000000090
  -7659407.830 8  -5954276.45345  23819717.771    23819717.5534   23819740.4564
 -22195164.897 9 -17284942.36748  21258649.966    21258650.0634   21258661.7734
 -18106269.863 9 -14085482.77848  22030906.704    22030905.9814   22030919.3424
 -12604627.388 9  -9409930.62646  23048964.785    23048964.0344   23048982.1954
  -6939610.798 9  -5384072.53345  24205038.137    24205037.6124   24205064.2054
  -5210276.611 9  -4037833.57246  23891199.376    23891199.1664   23891215.3044
 -18378200.032 9 -14064252.36848  21594572.965    21594572.0794   21594583.9584
 -27574987.992 9 -21469083.89649  20677659.333    20677659.0254   20677669.4604
  -5037363.674 8  -3918275.01645  24889335.816    24889335.8714   24889351.4324
 00  4 19 22  0 23.0000000  0  9 26 30 17  5 23 24 10  6 13          0.000000089
  -7660834.781 8  -5955388.35645  23819446.218    23819446.0024   23819468.8964
 -22194126.850 9 -17284133.50148  21258847.508    21258847.6064   21258859.3114
 -18107116.804 9 -14086142.72848  22030745.534    22030744.8134   22030758.1664
 -12602921.140 9  -9408601.08546  23049289.477    23049288.7294   23049306.8944
  -6941353.629 9  -5385430.57245  24204706.490    24204705.9624   24204732.5644
  -5209031.740 9  -4036863.54446  23891436.279    23891436.0724   23891452.2024
 -18377098.483 9 -14063394.01848  21594782.590    21594781.7044   21594793.5804
 -27575673.970 9 -21469618.42249  20677528.800    20677528.4854   20677538.9234
  -5037224.116 8  -3918166.26845  24889362.374    24889362.4324   24889377.9874
 00  4 19 22  0 24.0000000  0  9 26 30 17  5 23 24 10  6 13          0.000000089
  -7662261.597 8  -5956500.15745  23819174.698    23819174.4794   23819197.3664
 -22193088.587 9 -17283324.46648  21259045.098    21259045.1994   21259056.8994
 -18107963.602 9 -14086802.56948  22030584.401    22030583.6754   22030597.0404
 -12601214.755 9  -9407271.44146  23049614.193    23049613.4444   23049631.6124
  -6943096.330 9  -5386788.51045  24204374.865    24204374.3414   24204400.9384
  -5207786.787 9  -4035893.45546  23891673.198    23891672.9894   23891689.1244
 -18375996.724 9 -14062535.50548  21594992.234    21594991.3494   21595003.2414
 -27576359.785 9 -21470152.82349  20677398.297    20677397.9854   20677408.4204
  -5037084.308 9  -3918057.33045  24889388.967    24889389.0244   24889404.5814
 00  4 19 22  0 24.0000000  0  9 26 30 17  5 23 24 10  6 13          0.000000088
  -7663688.476 8  -5957612.00745  23818903.170    23818902.9474   23818925.8304
 -22192050.293 9 -17282515.40648  21259242.669    21259242.7724   21259254.4734
 -18108810.451 9 -14087462.44548  22030423.225    22030422.5064   22030435.8634
 -12599508.393 9  -9405941.81046  23049938.931    23049938.1794   23049956.3444
  -6944839.107 9  -5388146.51045  24204043.223    24204042.7014   24204069.2914
  -5206541.907 9  -4034923.42346  23891910.077    23891909.8554   23891926.0024
 -18374894.907 9 -14061676.94748  21595201.922    21595201.0234   21595212.9304
 -27577045.594 9 -21470687.21849  20677267.774    20677267.4664   20677277.9004
  -5036944.450 8  -3917948.34545  24889415.579    24889415.6274   24889431.1984
 00  4 19 22  0 25.0000000  0  9 26 30 17  5 23 24 10  6 13          0.000000088
  -7665115.304 9  -5958723.81545  23818631.638    23818631.4154   23818654.2924
 -22191011.845 9 -17281706.22948  21259440.293    21259440.3964   21259452.0994
 -18109657.212 9 -14088122.25548  22030262.110    22030261.3884   22030274.7484
 -12597801.990 9  -9404612.14846  23050263.654    23050262.9054   23050281.0744
  -6946581.815 9  -5389504.45345  24203711.581    24203711.0614   24203737.6444
  -5205296.998 9  -4033953.36746  23892146.972    23892146.7614   23892162.9044
 -18373792.953 9 -14060818.28148  21595411.622    21595410.7184   21595422.6254
 -27577731.295 9 -21471221.53049  20677137.316    20677137.0064   20677147.4394
  -5036804.441 8  -3917839.24645  24889442.213    24889442.2594   24889457.8294
 00  4 19 22  0 25.0000000  0  9 26 30 17  5 23 24 10  6 13          0.000000087
  -7666542.058 8  -5959835.56545  23818360.133    23818359.9134   23818382.7864
 -22189973.211 9 -17280896.90748  21259637.930    21259638.0294   21259649.7334
 -18110503.867 9 -14088781.98748  22030100.987    22030100.2694   22030113.6244
 -12596095.477 9  -9403282.40046  23050588.380    23050587.6304   23050605.8004
  -6948324.453 9  -5390862.34245  24203379.959    24203379.4304   24203406.0254
  -5204052.039 9  -4032983.27146  23892383.895    23892383.6874   23892399.8214
 -18372690.812 9 -14059959.47248  21595621.351    21595620.4534   21595632.3574
 -27578416.863 9 -21471755.74049  20677006.847    20677006.5364   20677016.9744
  -5036664.228 9  -3917729.98845  24889468.886    24889468.9304   24889484.5014
 00  4 19 22  0 26.0000000  0  9 26 30 17  5 23 24 10  6 13          0.000000087
  -7667968.719 9  -5960947.24145  23818088.648    23818088.4214   23818111.2964
 -22188934.405 9 -17280087.44848  21259835.599    21259835.7024   21259847.4024
 -18111350.429 9 -14089441.64448  22029939.892    22029939.1714   22029952.5264
 -12594388.859 9  -9401952.57246  23050913.135    23050912.3854   23050930.5514
  -6950067.003 9  -5392220.16245  24203048.360    24203047.8404   24203074.4224
  -5202807.031 9  -4032013.13646  23892620.809    23892620.5934   23892636.7394
 -18371588.481 9 -14059100.51348  21595831.107    21595830.2084   21595842.1124
 -27579102.277 9 -21472289.82749  20676876.420    20676876.1074   20676886.5464
  -5036523.837 9  -3917620.59245  24889495.598    24889495.6314   24889511.2174
 00  4 19 22  0 26.0000000  0  9 26 30 17  5 23 24 10  6 13          0.000000087
  -7669395.444 9  -5962058.96745  23817817.159    23817816.9294   23817839.8094
 -22187895.547 9 -17279277.95148  21260033.283    21260033.3854   21260045.0904
 -18112197.014 9 -14090101.31948  22029778.788    22029778.0624   22029791.4244
 -12592682.281 9  -9400622.77746  23051237.904    23051237.1504   23051255.3264
  -6951809.600 9  -5393578.01945  24202716.752    24202716.2294   24202742.8114
  -5201562.072 9  -4031043.03846  23892857.719    23892857.4994   23892873.6524
 -18370486.097 9 -14058241.51648  21596040.884    21596039.9934   21596051.8894
 -27579787.687 9 -21472823.91149  20676745.984    20676745.6774   20676756.1164
  -5036383.352 8  -3917511.12345  24889522.349    24889522.3834   24889537.9614
 00  4 19 22  0 27.0000000  0  9 26 30 17  5 23 24 10  6 13          0.000000086
  -7670822.164 9  -5963170.69245  23817545.644    23817545.4174   23817568.2924
 -22186856.597 9 -17278468.38148  21260230.988    21260231.0884   21260242.7934
 -18113043.576 9 -14090760.97748  22029617.690    22029616.9644   22029630.3264
 -12590975.700 9  -9399292.98546  23051562.645    23051561.8954   23051580.0604
  -6953552.192 9  -5394935.87145  24202385.121    24202384.5994   24202411.1774
  -5200317.181 9  -4030072.99646  23893094.603    23893094.3854   23893110.5394
 -18369383.627 9 -14057382.44848  21596250.691    21596249.7974   21596261.6924
 -27580473.054 9 -21473357.96449  20676615.558    20676615.2474   20676625.6934
  -5036242.773 9  -3917401.58145  24889549.093    24889549.1244   24889564.7224
 00  4 19 22  0 27.0000000  0  9 26 30 17  5 23 24 10  6 13          0.000000086
  -7672248.816 8  -5964282.36345  23817274.159    23817273.9254   23817296.8064
 -22185817.490 9 -17277658.69148  21260428.746    21260428.8414   21260440.5544
 -18113890.065 9 -14091420.57948  22029456.603    22029455.8854   22029469.2414
 -12589269.023 9  -9397963.11446  23051887.417    23051886.6704   23051904.8344
  -6955294.748 9  -5396293.69745  24202053.528    24202052.9984   24202079.5804
  -5199072.243 9  -4029102.91646  23893331.523    23893331.3014   23893347.4584
 -18368280.977 9 -14056523.24148  21596460.524    21596459.6324   21596471.5274
 -27581158.284 9 -21473891.90949  20676485.170    20676484.8674   20676495.3014
  -5036102.017 9  -3917291.90145  24889575.864    24889575.8964   24889591.4974
 00  4 19 22  0 28.0000000  0  9 26 30 17  5 23 24 10  6 13          0.000000085
  -7673675.416 8  -5965393.99345  23817002.686    23817002.4534   23817025.3254
 -22184778.205 9 -17276848.86148  21260626.508    21260626.6044   21260638.3164
 -18114736.460 9 -14092080.10748  22029295.543    22029294.8274   22029308.1834
 -12587562.271 9  -9396633.18346  23052212.199    23052211.4454   23052229.6254
  -6957037.220 9  -5397651.45745  24201721.934    24201721.4084   24201747.9934
  -5197827.249 9  -4028132.79246  23893568.416    23893568.1874   23893584.3524
 -18367178.157 9 -14055663.90148  21596670.378    21596669.4874   21596681.3804
 -27581843.389 9 -21474425.75649  20676354.779    20676354.4684   20676364.9084
  -5035961.077 9  -3917182.07645  24889602.703    24889602.7374   24889618.3374
 00  4 19 22  0 28.0000000  0  9 26 30 17  5 23 24 10  6 13          0.000000085
  -7675102.052 9  -5966505.65045  23816731.214    23816730.9814   23816753.8524
 -22183738.861 9 -17276038.98448  21260824.282    21260824.3774   21260836.0914
 -18115582.856 9 -14092739.63648  22029134.475    22029133.7584   22029147.1124
 -12585855.549 9  -9395303.28146  23052537.000    23052536.2514   23052554.4264
  -6958779.724 9  -5399009.24145  24201390.340    24201389.8184   24201416.3904
  -5196582.336 9  -4027162.73246  23893805.330    23893805.1034   23893821.2744
 -18366075.282 9 -14054804.51948  21596880.242    21596879.3414   21596891.2474
 -27582528.477 9 -21474959.59149  20676224.420    20676224.1184   20676234.5514
  -5035820.062 9  -3917072.19345  24889629.516    24889629.5394   24889645.1634
 00  4 19 22  0 29.0000000  0  9 26 30 17  5 23 24 10  6 13          0.000000084
  -7676528.496 8  -5967617.15745  23816459.766    23816459.5294   23816482.3944
 -22182699.223 9 -17275228.87848  21261022.126    21261022.2304   21261033.9364
 -18116429.056 9 -14093399.01148  22028973.426    22028972.7104   22028986.0584
 -12584148.610 9  -9393973.20146  23052861.803    23052861.0564   23052879.2304
  -6960522.030 9  -5400366.87245  24201058.761    24201058.2374   24201084.8094
  -5195337.242 9  -4026192.53246  23894042.269    23894042.0394   23894058.2184
 -18364972.101 9 -14053944.90048  21597090.156    21597089.2564   21597101.1554
 -27583213.296 9 -21475493.21649  20676094.098    20676093.7884   20676104.2304
  -5035678.723 9  -3916962.05845  24889656.409    24889656.4304   24889672.0604
 00  4 19 22  0 29.0000000  0  9 26 30 17  5 23 24 10  6 13          0.000000084
  -7677955.013 9  -5968728.72145  23816188.281    23816188.0474   23816210.9094
 -22181659.556 9 -17274418.75148  21261219.958    21261220.0534   21261231.7694
 -18117275.294 9 -14094058.41448  22028812.398    22028811.6814   22028825.0334
 -12582441.734 9  -9392643.17446  23053186.635    23053185.8914   23053204.0694
  -6962264.404 9  -5401724.55645  24200727.190    24200726.6674   24200753.2374
  -5194092.260 9  -4025222.42246  23894279.168    23894278.9354   23894295.1204
 -18363868.889 9 -14053085.25548  21597300.113    21597299.2214   21597311.1224
 -27583898.128 9 -21476026.85049  20675963.770    20675963.4684   20675973.9024
  -5035537.355 9  -3916851.89645  24889683.312    24889683.3314   24889698.9614
 00  4 19 22  0 30.0000000  0  9 26 30 17  5 23 24 10  6 13          0.000000083
  -7679381.482 8  -5969840.24845  23815916.833    23815916.5954   23815939.4554
 -22180619.740 9 -17273608.50548  21261417.839    21261417.9364   21261429.6514
 -18118121.459 9 -14094717.76348  22028651.393    22028650.6834   22028664.0324
 -12580734.788 9  -9391313.09446  23053511.464    23053510.7264   23053528.8954
  -6964006.717 9  -5403082.19145  24200395.633    24200395.1164   24200421.6744
  -5192847.253 9  -4024252.28846  23894516.099    23894515.8624   23894532.0574
 -18362765.536 9 -14052225.49848  21597510.075    21597509.1764   21597521.0774
 -27584582.870 9 -21476560.41349  20675833.473    20675833.1794   20675843.6054
  -5035395.827 9  -3916741.61545  24889710.259    24889710.2734   24889725.9124
 00  4 19 22  0 30.0000000  0  9 26 30 17  5 23 24 10  6 13          0.000000083
  -7680808.054 8  -5970951.85745  23815645.377    23815645.1434   23815667.9904
 -22179579.916 9 -17272798.25448  21261615.708    21261615.8104   21261627.5134
 -18118967.699 9 -14095377.16948  22028490.353    22028489.6444   22028502.9864
 -12579027.921 9  -9389983.07546  23053836.254    23053835.5124   23053853.6914
  -6965749.134 9  -5404439.90845  24200064.076    24200063.5564   24200090.1224
  -5191602.372 9  -4023282.25846  23894752.978    23894752.7374   23894768.9434
 -18361662.156 9 -14051365.72348  21597720.028    21597719.1304   21597731.0304
 -27585267.621 9 -21477093.98449  20675703.181    20675702.8794   20675713.3134
  -5035254.257 9  -3916631.29745  24889737.174    24889737.1844   24889752.8384
 00  4 19 22  0 31.0000000  0  9 26 30 17  5 23 24 10  6 13          0.000000082
  -7682234.435 8  -5972063.31745  23815373.921    23815373.6814   23815396.5304
 -22178539.841 9 -17271987.80848  21261813.625    21261813.7234   21261825.4414
 -18119813.769 9 -14096036.43848  22028329.337    22028328.6264   22028341.9754
 -12577320.888 9  -9388652.92546  23054161.089    23054160.3474   23054178.5234
  -6967491.389 9  -5405797.50045  24199732.507    24199731.9854   24199758.5414
  -5190357.361 9  -4022312.11846  23894989.894    23894989.6534   23895005.8624
 -18360558.537 9 -14050505.76048  21597930.059    21597929.1644   21597941.0644
 -27585952.166 9 -21477627.39649  20675572.897    20675572.5994   20675583.0314
  -5035112.431 9  -3916520.78245  24889764.183    24889764.1954   24889779.8454
 00  4 19 22  0 31.0000000  0  9 26 30 17  5 23 24 10  6 13          0.000000082
  -7683660.879 8  -5973174.82745  23815102.473    23815102.2294   23815125.0714
 -22177499.697 9 -17271177.30848  21262011.565    21262011.6654   21262023.3734
 -18120659.834 9 -14096695.70648  22028168.342    22028167.6274   22028180.9794
 -12575613.876 9  -9387322.79546  23054485.944    23054485.2024   23054503.3864
  -6969233.690 9  -5407155.12745  24199400.973    24199400.4554   24199427.0054
  -5189112.413 9  -4021342.03246  23895226.816    23895226.5694   23895242.7934
 -18359454.846 9 -14049645.74048  21598140.074    21598139.1794   21598151.0824
 -27586636.698 9 -21478160.79849  20675442.641    20675442.3394   20675452.7754
  -5034970.532 8  -3916410.20945  24889791.166    24889791.1774   24889806.8294
 00  4 19 22  0 32.0000000  0  9 26 30 17  5 23 24 10  6 13          0.000000082
  -7685087.230 8  -5974286.26245  23814831.054    23814830.8074   23814853.6534
 -22176459.359 9 -17270366.65748  21262209.536    21262209.6284   21262221.3474
 -18121505.794 9 -14097354.89648  22028007.348    22028006.6384   22028019.9844
 -12573906.742 9  -9385992.56646  23054810.807    23054810.0574   23054828.2424
  -6970975.875 9  -5408512.66445  24199069.412    24199068.8944   24199095.4344
  -5187867.387 9  -4020371.88246  23895463.726    23895463.4754   23895479.7054
 -18358350.945 9 -14048785.55948  21598350.132    21598349.2344   21598361.1394
 -27587321.054 9 -21478694.06149  20675312.408    20675312.1094   20675322.5454
  -5034828.403 9  -3916299.45445  24889818.230    24889818.2384   24889833.8914
 00  4 19 22  0 32.0000000  0  9 26 30 17  5 23 24 10  6 13          0.000000082
  -7686513.608 8  -5975397.71945  23814559.628    23814559.3854   23814582.2184
 -22175418.945 9 -17269555.94748  21262407.530    21262407.6314   21262419.3434
 -18122351.752 9 -14098014.08448  22027846.378    22027845.6704   22027859.0124
 -12572199.611 9  -9384662.33946  23055135.651    23055134.9024   23055153.0864
  -6972718.084 9  -5409870.22145  24198737.888    24198737.3744   24198763.9114
  -5186622.406 9  -4019401.76946  23895700.632    23895700.3914   23895716.6144
 -18357246.966 9 -14047925.31848  21598560.212    21598559.3184   21598571.2144
 -27588005.376 9 -21479227.30049  20675182.197    20675181.8904   20675192.3294
  -5034686.184 9  -3916188.62845  24889845.272    24889845.2794   24889860.9364
 00  4 19 22  0 33.0000000  0  9 26 30 17  5 23 24 10  6 13          0.000000081
  -7687939.941 8  -5976509.14045  23814288.196    23814287.9424   23814310.7904
 -22174378.381 9 -17268745.12048  21262605.543    21262605.6444   21262617.3564
 -18123197.630 9 -14098673.20548  22027685.421    22027684.7114   22027698.0554
 -12570492.425 9  -9383332.06946  23055460.530    23055459.7774   23055477.9734
  -6974460.238 9  -5411227.73245  24198406.352    24198405.8334   24198432.3654
  -5185377.423 9  -4018431.65546  23895937.534    23895937.2974   23895953.5194
 -18356142.850 9 -14047064.96948  21598770.343    21598769.4534   21598781.3474
 -27588689.603 9 -21479760.46349  20675051.977    20675051.6804   20675062.1134
  -5034543.799 9  -3916077.67745  24889872.372    24889872.3704   24889888.0384
 00  4 19 22  0 33.0000000  0  9 26 30 17  5 23 24 10  6 13          0.000000081
  -7689366.251 9  -5977620.54445  23814016.774    23814016.5204   23814039.3604
 -22173337.709 9 -17267934.20848  21262803.563    21262803.6574   21262815.3844
 -18124043.491 9 -14099332.31848  22027524.457    22027523.7434   22027537.0944
 -12568785.196 9  -9382001.76546  23055785.398    23055784.6424   23055802.8374
  -6976202.378 9  -5412585.23445  24198074.826    24198074.3134   24198100.8374
  -5184132.440 9  -4017461.53946  23896174.463    23896174.2324   23896190.4574
 -18355038.598 9 -14046204.51648  21598980.463    21598979.5584   21598991.4634
 -27589373.747 9 -21480293.56249  20674921.787    20674921.4804   20674931.9174
  -5034401.298 9  -3915966.63345  24889899.499    24889899.5014   24889915.1554
 00  4 19 22  0 34.0000000  0  9 26 30 17  5 23 24 10  6 13          0.000000080
  -7690792.560 9  -5978731.94745  23813745.345    23813745.0884   23813767.9304
 -22172296.909 9 -17267123.19848  21263001.634    21263001.7304   21263013.4514
 -18124889.304 9 -14099991.39148  22027363.494    22027362.7844   22027376.1294
 -12567077.938 9  -9380671.43946  23056110.303    23056109.5474   23056127.7434
  -6977944.489 9  -5413942.71345  24197743.313    24197742.8024   24197769.3144
  -5182887.461 9  -4016491.42746  23896411.373    23896411.1484   23896427.3714
 -18353934.222 9 -14045343.96348  21599190.611    21599189.7024   21599201.6094
 -27590057.811 9 -21480826.59849  20674791.625    20674791.3204   20674801.7734
  -5034258.641 9  -3915855.46745  24889926.628    24889926.6224   24889942.2934
 00  4 19 22  0 34.0000000  0  9 26 30 17  5 23 24 10  6 13          0.000000080
  -7692218.726 9  -5979843.24045  23813473.966    23813473.7164   23813496.5534
 -22171255.870 9 -17266312.00148  21263199.742    21263199.8334   21263211.5574
 -18125734.948 9 -14100650.33348  22027202.572    22027201.8664   22027215.2064
 -12565370.520 9  -9379340.98446  23056435.214    23056434.4524   23056452.6594
  -6979686.463 9  -5415300.08445  24197411.811    24197411.3024   24197437.8124
  -5181642.380 9  -4015521.23546  23896648.308    23896648.0844   23896664.3074
 -18352829.615 9 -14044483.23048  21599400.828    21599399.9364   21599411.8334
 -27590741.685 9 -21481359.48549  20674661.493    20674661.1904   20674671.6344
  -5034115.749 9  -3915744.12145  24889953.824    24889953.8244   24889969.4994
 00  4 19 22  0 35.0000000  0  9 26 30 17  5 23 24 10  6 13          0.000000080
  -7693644.951 9  -5980954.57945  23813202.547    23813202.2944   23813225.1324
 -22170214.809 9 -17265500.78648  21263397.858    21263397.9564   21263409.6774
 -18126580.652 9 -14101309.32048  22027041.643    22027040.9374   22027054.2764
 -12563663.157 9  -9378010.57846  23056760.125    23056759.3674   23056777.5814
  -6981428.507 9  -5416657.51145  24197080.309    24197079.8014   24197106.3014
  -5180397.377 9  -4014551.10746  23896885.205    23896884.9904   23896901.2114
 -18351724.957 9 -14043622.46048  21599611.030    21599610.1314   21599622.0334
 -27591425.562 9 -21481892.37549  20674531.352    20674531.0504   20674541.4844
  -5033972.802 9  -3915632.72945  24889981.034    24889981.0254   24889996.7024
 00  4 19 22  0 35.0000000  0  9 26 30 17  5 23 24 10  6 13          0.000000079
  -7695071.143 8  -5982065.89045  23812931.139    23812930.8824   23812953.7264
 -22169173.598 9 -17264689.45448  21263595.981    21263596.0784   21263607.7994
 -18127426.299 9 -14101968.26348  22026880.699    22026879.9884   22026893.3294
 -12561955.737 9  -9376680.12546  23057085.018    23057084.2624   23057102.4734
  -6983170.516 9  -5418014.91045  24196748.795    24196748.2914   24196774.7794
  -5179152.373 9  -4013580.97746  23897122.138    23897121.9264   23897138.1524
 -18350620.165 9 -14042761.58648  21599821.273    21599820.3754   21599832.2774
 -27592109.342 9 -21482425.19149  20674401.223    20674400.9204   20674411.3584
  -5033829.690 9  -3915521.21545  24890008.268    24890008.2564   24890023.9314
 00  4 19 22  0 36.0000000  0  9 26 30 17  5 23 24 10  6 13          0.000000079
  -7696497.269 8  -5983177.15245  23812659.759    23812659.5004   23812682.3404
 -22168132.223 9 -17263877.99548  21263794.152    21263794.2514   21263805.9744
 -18128271.841 9 -14102627.12748  22026719.794    22026719.0904   22026732.4234
 -12560248.248 9  -9375349.62146  23057409.967    23057409.2074   23057427.4194
  -6984912.438 8  -5419372.24145  24196417.314    24196416.8104   24196443.2924
  -5177907.321 9  -4012610.81146  23897359.042    23897358.8424   23897375.0564
 -18349515.203 9 -14041900.57948  21600031.520    21600030.6204   21600042.5244
 -27592793.006 9 -21482957.91749  20674271.118    20674270.8104   20674281.2514
  -5033686.409 9  -3915409.56545  24890035.534    24890035.5174   24890051.1944
 00  4 19 22  0 36.0000000  0  9 26 30 17  5 23 24 10  6 13          0.000000078
  -7697923.366 8  -5984288.39045  23812388.373    23812388.1174   23812410.9524
 -22167090.710 9 -17263066.43148  21263992.333    21263992.4344   21264004.1504
 -18129117.334 9 -14103285.95348  22026558.903    22026558.2014   22026571.5324
 -12558540.686 9  -9374019.06246  23057734.904    23057734.1524   23057752.3584
  -6986654.341 9  -5420729.55845  24196085.810    24196085.3104   24196111.7914
  -5176662.252 9  -4011640.63346  23897595.982    23897595.7784   23897611.9944
 -18348410.089 9 -14041039.45248  21600241.821    21600240.9244   21600252.8224
 -27593476.556 9 -21483490.55249  20674141.044    20674140.7404   20674151.1784
  -5033542.958 9  -3915297.78545  24890062.821    24890062.8094   24890078.4774
 00  4 19 22  0 37.0000000  0  9 26 30 17  5 23 24 10  6 13          0.000000077
  -7699349.444 8  -5985399.61645  23812117.003    23812116.7454   23812139.5834
 -22166049.082 9 -17262254.77348  21264190.562    21264190.6574   21264202.3864
 -18129962.788 9 -14103944.74648  22026398.012    22026397.3034   22026410.6504
 -12556833.102 9  -9372688.48046  23058059.855    23058059.1074   23058077.3164
  -6988396.203 9  -5422086.84445  24195754.352    24195753.8594   24195780.3254
  -5175417.205 9  -4010670.46746  23897832.899    23897832.7044   23897848.9114
 -18347304.858 9 -14040178.23348  21600452.152    21600451.2594   21600463.1514
 -27594160.036 9 -21484023.13349  20674011.000    20674010.7004   20674021.1384
  -5033399.404 9  -3915185.92245  24890090.127    24890090.1104   24890105.7854
 00  4 19 22  0 37.0000000  0  9 26 30 17  5 23 24 10  6 13          0.000000077
  -7700775.537 8  -5986510.85345  23811845.615    23811845.3534   23811868.1954
 -22165007.359 9 -17261443.04348  21264388.812    21264388.9104   21264400.6404
 -18130808.214 9 -14104603.51648  22026237.142    22026236.4344   22026249.7714
 -12555125.505 9  -9371357.89646  23058384.794    23058384.0424   23058402.2544
  -6990138.081 9  -5423444.13945  24195422.870    24195422.3794   24195448.8424
  -5174172.194 9  -4009700.33346  23898069.816    23898069.6204   23898085.8364
 -18346199.537 9 -14039316.94348  21600662.482    21600661.5834   21600673.4874
 -27594843.467 9 -21484555.67749  20673880.927    20673880.6204   20673891.0664
  -5033255.704 9  -3915073.94545  24890117.472    24890117.4514   24890133.1204
 00  4 19 22  0 38.0000000  0  9 26 30 17  5 23 24 10  6 13          0.000000077
  -7702201.524 8  -5987622.00445  23811574.254    23811574.0014   23811596.8344
 -22163965.432 9 -17260631.15248  21264587.076    21264587.1724   21264598.9034
 -18131653.525 9 -14105262.19748  22026076.295    22026075.5854   22026088.9294
 -12553417.786 9  -9370027.20946  23058709.766    23058709.0174   23058727.2254
  -6991879.859 9  -5424801.36045  24195091.412    24195090.9184   24195117.3784
  -5172927.100 9  -4008730.12946  23898306.744    23898306.5564   23898322.7704
 -18345094.002 9 -14038455.48848  21600872.869    21600871.9774   21600883.8694
 -27595526.724 9 -21485088.08249  20673750.926    20673750.6304   20673761.0594
  -5033111.806 9  -3914961.81445  24890144.860    24890144.8324   24890160.5094
 00  4 19 22  0 38.0000000  0  9 26 30 17  5 23 24 10  6 13          0.000000076
  -7703627.559 8  -5988733.19345  23811302.901    23811302.6494   23811325.4754
 -22162923.470 9 -17259819.23448  21264785.361    21264785.4554   21264797.1834
 -18132498.878 9 -14105920.91148  22025915.404    22025914.6974   22025928.0414
 -12551710.133 9  -9368696.57746  23059034.738    23059033.9924   23059052.2004
  -6993621.695 9  -5426158.62445  24194759.935    24194759.4484   24194785.8934
  -5171682.099 9  -4007760.00346  23898543.658    23898543.4724   23898559.6774
 -18343988.427 9 -14037594.00248  21601083.247    21601082.3524   21601094.2474
 -27596209.995 9 -21485620.50149  20673620.899    20673620.6004   20673631.0314
  -5032967.855 9  -3914849.64445  24890172.242    24890172.2134   24890187.8914
 00  4 19 22  0 39.0000000  0  9 26 30 17  5 23 24 10  6 13          0.000000075
  -7705053.558 8  -5989844.35645  23811031.539    23811031.2874   23811054.1194
 -22161881.352 9 -17259007.19848  21264983.651    21264983.7484   21264995.4774
 -18133344.144 9 -14106579.55748  22025754.554    22025753.8484   22025767.1924
 -12550002.404 9  -9367365.88446  23059359.707    23059358.9574   23059377.1694
  -6995363.481 9  -5427515.84945  24194428.494    24194428.0074   24194454.4514
  -5170437.076 9  -4006789.85946  23898780.584    23898780.3984   23898796.6084
 -18342882.709 9 -14036732.40348  21601293.647    21601292.7464   21601304.6574
 -27596893.163 9 -21486152.83949  20673490.878    20673490.5804   20673501.0184
  -5032823.736 9  -3914737.34245  24890199.664    24890199.6244   24890215.3024
 00  4 19 22  0 39.0000000  0  9 26 30 17  5 23 24 10  6 13          0.000000075
  -7706479.486 8  -5990955.46445  23810760.166    23810759.9154   23810782.7454
 -22160839.088 9 -17258195.04648  21265181.993    21265182.0914   21265193.8244
 -18134189.338 9 -14107238.14848  22025593.744    22025593.0394   22025606.3754
 -12548294.608 9  -9366035.14246  23059684.680    23059683.9334   23059702.1364
  -6997105.215 9  -5428873.03545  24194097.021    24194096.5364   24194122.9774
  -5169192.026 9  -4005819.69746  23899017.513    23899017.3344   23899033.5374
 -18341776.821 9 -14035870.67348  21601504.112    21601503.2204   21601515.1224
 -27597576.206 9 -21486685.07849  20673360.903    20673360.6004   20673371.0444
  -5032679.429 9  -3914624.89345  24890227.144    24890227.0954   24890242.7794
 00  4 19 22  0 40.0000000  0  9 26 30 17  5 23 24 10  6 13          0.000000074
  -7707905.313 9  -5992066.49045  23810488.854    23810488.6024   23810511.4424
 -22159796.615 9 -17257382.73248  21265380.380    21265380.4834   21265392.2044
 -18135034.407 9 -14107896.64148  22025432.909    22025432.2014   22025445.5394
 -12546586.689 9  -9364704.30346  23060009.703    23060008.9484   23060027.1624
  -6998846.824 9  -5430230.12145  24193765.608    24193765.1364   24193791.5644
  -5167946.899 9  -4004849.46746  23899254.447    23899254.2704   23899270.4734
 -18340670.727 9 -14035008.78248  21601714.589    21601713.6954   21601725.5934
 -27598259.088 9 -21487217.19449  20673230.970    20673230.6704   20673241.1104
  -5032534.931 9  -3914512.29845  24890254.623    24890254.5764   24890270.2584
 00  4 19 22  0 40.0000000  0  9 26 30 17  5 23 24 10  6 13          0.000000074
  -7709331.155 9  -5993177.53045  23810217.518    23810217.2604   23810240.1034
 -22158754.060 9 -17256570.35248  21265578.753    21265578.8564   21265590.5854
 -18135879.457 9 -14108555.12048  22025272.121    22025271.4124   22025284.7564
 -12544878.781 9  -9363373.46846  23060334.713    23060333.9624   23060352.1784
  -7000588.463 9  -5431587.23145  24193434.169    24193433.6954   24193460.1174
  -5166701.817 9  -4003879.27546  23899491.400    23899491.2264   23899507.4374
 -18339564.547 9 -14034146.82548  21601925.099    21601924.1994   21601936.1094
 -27598941.938 9 -21487749.28649  20673101.008    20673100.7104   20673111.1464
  -5032390.309 9  -3914399.60645  24890282.170    24890282.1174   24890297.8064
 00  4 19 22  0 41.0000000  0  9 26 30 17  5 23 24 10  6 13          0.000000073
  -7710756.920 9  -5994288.50945  23809946.183    23809945.9284   23809968.7694
 -22157711.348 9 -17255757.85248  21265777.196    21265777.2984   21265789.0314
 -18136724.441 9 -14109213.54848  22025111.309    22025110.6034   22025123.9354
 -12543170.794 9  -9362042.58246  23060659.735    23060658.9784   23060677.1924
  -7002330.050 9  -5432944.30245  24193102.749    24193102.2854   24193128.7024
  -5165456.674 9  -4002909.03346  23899728.337    23899728.1624   23899744.3754
 -18338458.206 9 -14033284.74348  21602135.618    21602134.7134   21602146.6264
 -27599624.664 9 -21488281.27849  20672971.091    20672970.7904   20672981.2254
  -5032245.525 9  -3914286.78645  24890309.698    24890309.6384   24890325.3364
 00  4 19 22  0 41.0000000  0  9 26 30 17  5 23 24 10  6 13          0.000000073
  -7712182.704 8  -5995399.50345  23809674.887    23809674.6364   23809697.4724
 -22156668.525 9 -17254945.26448  21265975.626    21265975.7314   21265987.4574
 -18137569.378 9 -14109871.94248  22024950.525    22024949.8254   22024963.1494
 -12541462.795 9  -9360711.67946  23060984.770    23060984.0124   23061002.2264
  -7004071.619 9  -5434301.35745  24192771.332    24192770.8644   24192797.2764
  -5164211.587 9  -4001938.83946  23899965.253    23899965.0884   23899981.2884
 -18337351.749 9 -14032422.56848  21602346.168    21602345.2584   21602357.1764
 -27600307.321 9 -21488813.21849  20672841.204    20672840.9004   20672851.3444
  -5032100.613 9  -3914173.86545  24890337.273    24890337.2094   24890352.9074
 00  4 19 22  0 42.0000000  0  9 26 30 17  5 23 24 10  6 13          0.000000072
  -7713608.506 8  -5996510.50845  23809403.556    23809403.3044   23809426.1444
 -22155625.609 9 -17254132.60248  21266174.098    21266174.2044   21266185.9304
 -18138414.304 9 -14110530.32248  22024789.727    22024789.0164   22024802.3524
 -12539754.779 9  -9359380.76546  23061309.774    23061309.0174   23061327.2234
  -7005813.190 9  -5435658.41645  24192439.911    24192439.4544   24192465.8564
  -5162966.514 9  -4000968.65146  23900202.209    23900202.0444   23900218.2484
 -18336245.209 9 -14031560.33148  21602556.735    21602555.8324   21602567.7404
 -27600989.935 9 -21489345.12449  20672711.290    20672710.9904   20672721.4274
  -5031955.584 9  -3914060.85145  24890364.887    24890364.8194   24890380.5264
 00  4 19 22  0 42.0000000  0  9 26 30 17  5 23 24 10  6 13          0.000000072
  -7715034.243 8  -5997621.46645  23809132.230    23809131.9714   23809154.8124
 -22154582.559 9 -17253319.83848  21266372.591    21266372.6964   21266384.4224
 -18139259.165 9 -14111188.65548  22024628.964    22024628.2574   22024641.5824
 -12538046.724 9  -9358049.82246  23061634.823    23061634.0724   23061652.2614
  -7007554.715 9  -5437015.43945  24192108.483    24192108.0234   24192134.4264
  -5161721.433 9  -3999998.46146  23900439.131    23900438.9694   23900455.1724
 -18335138.506 9 -14030697.96648  21602767.324    21602766.4164   21602778.3374
 -27601672.435 9 -21489876.94249  20672581.427    20672581.1204   20672591.5674
  -5031810.418 9  -3913947.73745  24890392.512    24890392.4404   24890408.1434
 00  4 19 22  0 43.0000000  0  9 26 30 17  5 23 24 10  6 13          0.000000071
  -7716459.979 8  -5998732.42245  23808860.916    23808860.6594   23808883.5014
 -22153539.377 9 -17252506.97048  21266571.103    21266571.2094   21266582.9314
 -18140103.973 9 -14111846.94648  22024468.194    22024467.4884   22024480.8204
 -12536338.616 9  -9356718.83546  23061959.878    23061959.1274   23061977.3194
  -7009296.236 9  -5438372.45845  24191777.071    24191776.6134   24191803.0134
  -5160476.360 9  -3999028.27446  23900676.056    23900675.8964   23900692.0994
 -18334031.681 9 -14029835.50748  21602977.957    21602977.0504   21602988.9704
 -27602354.849 9 -21490408.69449  20672451.554    20672451.2504   20672461.6894
  -5031665.111 9  -3913834.50945  24890420.167    24890420.0914   24890435.7984
 00  4 19 22  0 43.0000000  0  9 26 30 17  5 23 24 10  6 13          0.000000071
  -7717885.578 9  -5999843.27245  23808589.642    23808589.3874   23808612.2284
 -22152495.988 9 -17251693.94348  21266769.643    21266769.7514   21266781.4724
 -18140948.644 9 -14112505.13048  22024307.462    22024306.7604   22024320.0814
 -12534630.411 9  -9355387.77146  23062284.947    23062284.2024   23062302.3934
  -7011037.632 9  -5439729.37945  24191445.697    24191445.2424   24191471.6274
  -5159231.213 9  -3998058.03046  23900913.008    23900912.8524   23900929.0474
 -18332924.651 9 -14028972.88748  21603188.630    21603187.7244   21603199.6414
 -27603037.115 9 -21490940.32849  20672321.741    20672321.4404   20672331.8784
  -5031519.583 9  -3913721.11245  24890447.850    24890447.7634   24890463.4874
 00  4 19 22  0 44.0000000  0  9 26 30 17  5 23 24 10  6 13          0.000000070
  -7719311.217 8  -6000954.15145  23808318.344    23808318.0854   23808340.9214
 -22151452.514 9 -17250880.85048  21266968.210    21266968.3144   21266980.0414
 -18141793.317 9 -14113163.31548  22024146.718    22024146.0114   22024159.3414
 -12532922.185 9  -9354056.68646  23062610.018    23062609.2774   23062627.4654
  -7012779.033 8  -5441086.30645  24191114.312    24191113.8524   24191140.2444
  -5157986.067 9  -3997087.78846  23901149.941    23901149.7884   23901165.9784
 -18331817.519 9 -14028110.18848  21603399.306    21603398.3994   21603410.3204
 -27603719.309 9 -21491471.90749  20672191.920    20672191.6204   20672202.0614
  -5031373.935 9  -3913607.62145  24890475.561    24890475.4734   24890491.1964
 00  4 19 22  0 44.0000000  0  9 26 30 17  5 23 24 10  6 13          0.000000070
  -7720736.757 8  -6002064.95545  23808047.073    23808046.8234   23808069.6514
 -22150408.857 9 -17250067.61548  21267166.824    21267166.9274   21267178.6554
 -18142637.870 9 -14113821.40748  22023986.026    22023985.3224   22023998.6514
 -12531213.858 9  -9352725.52746  23062935.108    23062934.3624   23062952.5594
  -7014520.370 9  -5442443.18045  24190782.940    24190782.4814   24190808.8634
  -5156740.883 9  -3996117.51846  23901386.900    23901386.7444   23901402.9374
 -18330710.202 9 -14027247.34348  21603610.017    21603609.1134   21603621.0314
 -27604401.368 9 -21492003.38249  20672062.113    20672061.8104   20672072.2534
  -5031228.101 9  -3913493.98445  24890503.305    24890503.2144   24890518.9354
 00  4 19 22  0 45.0000000  0  9 26 30 17  5 23 24 10  6 13          0.000000069
  -7722162.343 8  -6003175.79445  23807775.796    23807775.5414   23807798.3654
 -22149365.144 9 -17249254.33348  21267365.437    21267365.5394   21267377.2724
 -18143482.435 9 -14114479.50548  22023825.297    22023824.5944   22023837.9154
 -12529505.574 9  -9351394.40146  23063260.164    23063259.4174   23063277.6214
  -7016261.717 9  -5443800.06545  24190451.559    24190451.1014   24190477.4824
  -5155495.781 9  -3995147.31146  23901623.849    23901623.7004   23901639.8914
 -18329602.831 9 -14026384.45748  21603820.749    21603819.8474   21603831.7674
 -27605083.424 9 -21492534.85449  20671932.325    20671932.0194   20671942.4634
  -5031082.190 9  -3913380.28545  24890531.083    24890530.9854   24890546.7124
 00  4 19 22  0 45.0000000  0  9 26 30 17  5 23 24 10  6 13          0.000000069
  -7723587.929 8  -6004286.63445  23807504.504    23807504.2484   23807527.0734
 -22148321.340 9 -17248440.98148  21267564.063    21267564.1624   21267575.8914
 -18144326.986 9 -14115137.59448  22023664.589    22023663.8854   22023677.2134
 -12527797.279 9  -9350063.27346  23063585.248    23063584.5024   23063602.7074
  -7018003.100 9  -5445156.97545  24190120.170    24190119.7104   24190146.0884
  -5154250.688 9  -3994177.11246  23901860.773    23901860.6164   23901876.8134
 -18328495.356 9 -14025521.48848  21604031.494    21604030.5914   21604042.5034
 -27605765.409 9 -21493066.27049  20671802.555    20671802.2494   20671812.6904
  -5030936.178 9  -3913266.51045  24890558.857    24890558.7454   24890574.4774
 00  4 19 22  0 46.0000000  0  9 26 30 17  5 23 24 10  6 13          0.000000068
  -7725013.413 8  -6005397.39545  23807233.230    23807232.9764   23807255.7954
 -22147277.326 9 -17247627.46548  21267762.725    21267762.8244   21267774.5594
 -18145171.410 9 -14115795.58748  22023503.896    22023503.1964   22023516.5134
 -12526088.854 9  -9348732.03846  23063910.363    23063909.6174   23063927.8204
  -7019744.354 9  -5446513.78745  24189788.805    24189788.3394   24189814.7264
  -5153005.514 9  -3993206.84946  23902097.721    23902097.5724   23902113.7594
 -18327387.672 9 -14024658.36048  21604242.268    21604241.3654   21604253.2754
 -27606447.229 9 -21493597.56049  20671672.809    20671672.4994   20671682.9414
  -5030789.925 9  -3913152.54445  24890586.692    24890586.5864   24890602.3144
 00  4 19 22  0 46.0000000  0  9 26 30 17  5 23 24 10  6 13          0.000000068
  -7726438.884 8  -6006508.14545  23806961.981    23806961.7244   23806984.5434
 -22146233.192 9 -17246813.85648  21267961.419    21267961.5164   21267973.2534
 -18146015.773 9 -14116453.52948  22023343.214    22023342.5174   22023355.8364
 -12524380.396 9  -9347400.77746  23064235.481    23064234.7324   23064252.9434
  -7021485.576 9  -5447870.57345  24189457.459    24189456.9994   24189483.3734
  -5151760.363 9  -3992236.60746  23902334.695    23902334.5384   23902350.7324
 -18326279.862 9 -14023795.13148  21604453.078    21604452.1694   21604464.0954
 -27607128.975 9 -21494128.78849  20671543.086    20671542.7794   20671553.2254
  -5030643.546 9  -3913038.47945  24890614.547    24890614.4464   24890630.1644
 00  4 19 22  0 47.0000000  0  9 26 30 17  5 23 24 10  6 13          0.000000067
  -7727864.306 8  -6007618.85745  23806690.726    23806690.4724   23806713.2874
 -22145188.941 9 -17246000.15548  21268160.141    21268160.2394   21268171.9744
 -18146860.098 9 -14117111.44348  22023182.563    22023181.8684   22023195.1794
 -12522671.901 9  -9346069.48946  23064560.610    23064559.8574   23064578.0744
  -7023226.772 9  -5449227.33945  24189126.115    24189125.6484   24189152.0334
  -5150515.207 9  -3991266.35746  23902571.635    23902571.4844   23902587.6774
 -18325171.926 9 -14022931.80548  21604663.904    21604663.0034   21604674.9194
 -27607810.628 9 -21494659.94749  20671413.371    20671413.0694   20671423.5114
  -5030497.017 9  -3912924.30045  24890642.426    24890642.3274   24890658.0344
 00  4 19 22  0 47.0000000  0  9 26 30 17  5 23 24 10  6 13          0.000000067
  -7729289.660 8  -6008729.51545  23806419.469    23806419.2094   23806442.0254
 -22144144.508 9 -17245186.31248  21268358.888    21268358.9914   21268370.7274
 -18147704.308 9 -14117769.26948  22023021.891    22023021.2004   22023034.5054
 -12520963.320 9  -9344738.13446  23064885.743    23064884.9924   23064903.2034
  -7024967.910 9  -5450584.05945  24188794.780    24188794.3184   24188820.6894
  -5149269.995 9  -3990296.06446  23902808.589    23902808.4404   23902824.6274
 -18324063.799 9 -14022068.33148  21604874.780    21604873.8674   21604885.7944
 -27608492.141 9 -21495190.99649  20671283.683    20671283.3784   20671293.8224
  -5030350.295 9  -3912809.97545  24890670.344    24890670.2474   24890685.9594
 00  4 19 22  0 48.0000000  0  9 26 30 17  5 23 24 10  6 13          0.000000066
  -7730715.011 9  -6009840.17145  23806148.242    23806147.9874   23806170.7924
 -22143099.969 9 -17244372.38748  21268557.675    21268557.7734   21268569.5084
 -18148548.488 9 -14118427.07048  22022861.248    22022860.5514   22022873.8564
 -12519254.722 9  -9343406.76246  23065210.879    23065210.1374   23065228.3474
  -7026709.008 9  -5451940.74745  24188463.439    24188462.9774   24188489.3474
  -5148024.814 9  -3989325.79646  23903045.539    23903045.3864   23903061.5854
 -18322955.581 9 -14021204.78848  21605085.672    21605084.7614   21605096.6894
 -27609173.603 9 -21495722.00349  20671153.992    20671153.6884   20671164.1324
  -5030203.457 9  -3912695.55645  24890698.300    24890698.2084   24890713.9204
 00  4 19 22  0 48.0000000  0  9 26 30 17  5 23 24 10  6 13          0.000000066
  -7732140.359 9  -6010950.82645  23805877.006    23805876.7554   23805899.5534
 -22142055.336 9 -17243558.38948  21268756.452    21268756.5564   21268768.2934
 -18149392.646 9 -14119084.85448  22022700.622    22022699.9224   22022713.2384
 -12517546.094 9  -9342075.37446  23065536.028    23065535.2814   23065553.4914
  -7028450.110 9  -5453297.44045  24188132.133    24188131.6674   24188158.0344
  -5146779.616 9  -3988355.51646  23903282.497    23903282.3414   23903298.5384
 -18321847.242 9 -14020341.15048  21605296.572    21605295.6754   21605307.5884
 -27609854.984 9 -21496252.94849  20671024.330    20671024.0284   20671034.4704
  -5030056.492 9  -3912581.03845  24890726.245    24890726.1584   24890741.8714
 00  4 19 22  0 49.0000000  0  9 26 30 17  5 23 24 10  6 13          0.000000065
  -7733565.647 9  -6012061.43345  23805605.756    23805605.5124   23805628.3024
 -22141010.547 9 -17242744.26948  21268955.267    21268955.3684   21268967.1034
 -18150236.725 9 -14119742.57648  22022539.985    22022539.2844   22022552.5994
 -12515837.416 9  -9340743.93946  23065861.176    23065860.4274   23065878.6374
  -7030191.176 9  -5454654.10545  24187800.784    24187800.3164   24187826.6874
  -5145534.416 9  -3987385.23246  23903519.467    23903519.3184   23903535.5154
 -18320738.755 9 -14019477.39348  21605507.515    21605506.6094   21605518.5354
 -27610536.266 9 -21496783.81549  20670894.687    20670894.3784   20670904.8264
  -5029909.368 9  -3912466.39645  24890754.257    24890754.1694   24890769.8694
 00  4 19 22  0 49.0000000  0  9 26 30 17  5 23 24 10  6 13          0.000000065
  -7734991.003 8  -6013172.09045  23805334.538    23805334.3104   23805357.0794
 -22139965.719 9 -17241930.12248  21269154.107    21269154.2114   21269165.9434
 -18151080.830 9 -14120400.31848  22022379.357    22022378.6554   22022391.9654
 -12514128.786 9  -9339412.54346  23066186.319    23066185.5714   23066203.7844
  -7031932.280 9  -5456010.79945  24187469.462    24187468.9954   24187495.3674
  -5144289.317 9  -3986415.02946  23903756.405    23903756.2444   23903772.4584
 -18319630.235 9 -14018613.61248  21605718.457    21605717.5534   21605729.4764
 -27611217.552 9 -21497314.68849  20670765.055    20670764.7474   20670775.1924
  -5029762.196 9  -3912351.71745  24890782.252    24890782.1704   24890797.8584
 00  4 19 22  0 50.0000000  0  9 26 30 17  5 23 24 10  6 13          0.000000064
  -7736416.170 9  -6014282.60345  23805063.338    23805063.0984   23805085.8804
 -22138920.626 9 -17241115.76648  21269352.985    21269353.0934   21269364.8184
 -18151924.740 9 -14121057.90948  22022218.777    22022218.0764   22022231.3844
 -12512419.964 9  -9338080.99846  23066511.517    23066510.7764   23066528.9774
  -7033673.204 9  -5457367.35345  24187138.163    24187137.6954   24187164.0634
  -5143044.039 9  -3985444.68946  23903993.379    23903993.2204   23904009.4344
 -18318521.422 9 -14017749.60248  21605929.479    21605928.5774   21605940.4964
 -27611898.584 9 -21497845.36349  20670635.462    20670635.1574   20670645.5914
  -5029614.719 9  -3912236.79945  24890810.325    24890810.2404   24890825.9344
 00  4 19 22  0 50.0000000  0  9 26 30 17  5 23 24 10  6 13          0.000000064
  -7737841.325 8  -6015393.10745  23804792.132    23804791.8964   23804814.6714
 -22137875.431 9 -17240301.33048  21269551.883    21269551.9854   21269563.7174
 -18152768.627 9 -14121715.48148  22022058.184    22022057.4874   22022070.7984
 -12510711.141 9  -9336749.45246  23066836.695    23066835.9514   23066854.1564
  -7035414.134 9  -5458723.91145  24186806.880    24186806.4044   24186832.7794
  -5141798.795 9  -3984474.37146  23904230.339    23904230.1754   23904246.3974
 -18317412.514 9 -14016885.51748  21606140.491    21606139.5814   21606151.5084
 -27612579.571 9 -21498376.00149  20670505.854    20670505.5474   20670515.9904
  -5029467.117 9  -3912121.78045  24890838.401    24890838.3214   24890854.0084
 00  4 19 22  0 51.0000000  0  9 26 30 17  5 23 24 10  6 13          0.000000063
  -7739266.518 8  -6016503.63945  23804520.918    23804520.6834   23804543.4524
 -22136830.150 9 -17239486.82448  21269750.781    21269750.8884   21269762.6194
 -18153612.500 9 -14122373.04348  22021897.591    22021896.8884   22021910.2034
 -12509002.314 9  -9335417.90546  23067161.867    23067161.1164   23067179.3324
  -7037155.087 9  -5460080.48645  24186475.568    24186475.0934   24186501.4584
  -5140553.598 9  -3983504.09146  23904467.302    23904467.1414   23904483.3624
 -18316303.532 9 -14016021.37848  21606351.501    21606350.5854   21606362.5184
 -27613260.518 9 -21498906.60849  20670376.279    20670375.9774   20670386.4144
  -5029319.438 9  -3912006.70345  24890866.505    24890866.4314   24890882.0994
 00  4 19 22  0 51.0000000  0  9 26 30 17  5 23 24 10  6 13          0.000000063
  -7740691.673 8  -6017614.14445  23804249.702    23804249.4714   23804272.2364
 -22135784.744 9 -17238672.22448  21269949.705    21269949.8104   21269961.5484
 -18154456.321 9 -14123030.56548  22021737.023    22021736.3204   22021749.6324
 -12507293.446 9  -9334086.32346  23067487.052    23067486.3014   23067504.5184
  -7038895.994 9  -5461437.02745  24186144.270    24186143.7934   24186170.1594
  -5139308.377 9  -3982533.78946  23904704.252    23904704.0874   23904720.3114
 -18315194.401 9 -14015157.11848  21606562.579    21606561.6694   21606573.5924
 -27613941.361 9 -21499437.13349  20670246.722    20670246.4164   20670256.8624
  -5029171.585 9  -3911891.49645  24890894.663    24890894.5914   24890910.2534
 00  4 19 22  0 52.0000000  0  9 26 30 17  5 23 24 10  6 13          0.000000062
  -7742116.757 8  -6018724.59245  23803978.519    23803978.2994   23804001.0514
 -22134739.159 9 -17237857.48648  21270148.678    21270148.7824   21270160.5224
 -18155300.041 9 -14123688.00648  22021576.465    22021575.7614   22021589.0714
 -12505584.498 9  -9332754.68046  23067812.275    23067811.5264   23067829.7444
  -7040636.832 9  -5462793.51445  24185813.008    24185812.5224   24185838.8984
  -5138063.112 9  -3981563.45246  23904941.209    23904941.0534   23904957.2634
 -18314085.109 9 -14014292.73848  21606773.659    21606772.7434   21606784.6774
 -27614622.074 9 -21499967.55849  20670117.173    20670116.8664   20670127.3114
  -5029023.570 9  -3911776.15945  24890922.823    24890922.7624   24890938.4074
 00  4 19 22  0 52.0000000  0  9 26 30 17  5 23 24 10  6 13          0.000000062
  -7743541.838 8  -6019835.03745  23803707.318    23803707.0974   23803729.8504
 -22133693.484 9 -17237042.67448  21270347.683    21270347.7844   21270359.5294
 -18156143.734 9 -14124345.42748  22021415.923    22021415.2224   22021428.5254
 -12503875.542 9  -9331423.03246  23068137.470    23068136.7214   23068154.9384
  -7042377.653 9  -5464149.98645  24185481.713    24185481.2324   24185507.6004
  -5136817.890 9  -3980593.15246  23905178.188    23905178.0294   23905194.2434
 -18312975.719 9 -14013428.27748  21606984.772    21606983.8564   21606995.7894
 -27615302.742 9 -21500497.94849  20669987.666    20669987.3564   20669997.8064
  -5028875.435 9  -3911660.72945  24890951.012    24890950.9524   24890966.5834
 00  4 19 22  0 53.0000000  0  9 26 30 17  5 23 24 10  6 13          0.000000061
  -7744966.848 8  -6020945.42745  23803436.172    23803435.9544   23803458.7084
 -22132647.656 9 -17236227.74748  21270546.698    21270546.8074   21270558.5484
 -18156987.356 9 -14125002.79348  22021255.380    22021254.6734   22021267.9814
 -12502166.524 9  -9330091.33646  23068462.698    23068461.9464   23068480.1714
  -7044118.440 9  -5465506.43345  24185150.446    24185149.9614   24185176.3324
  -5135572.625 9  -3979622.81946  23905415.149    23905414.9944   23905431.2084
 -18311866.157 9 -14012563.68548  21607195.913    21607195.0104   21607206.9364
 -27615983.286 9 -21501028.24449  20669858.158    20669857.8454   20669868.2924
  -5028727.129 9  -3911545.16445  24890979.220    24890979.1734   24890994.7804
 00  4 19 22  0 53.0000000  0  9 26 30 17  5 23 24 10  6 13          0.000000061
  -7746391.854 8  -6022055.81545  23803164.992    23803164.7724   23803187.5244
 -22131601.715 9 -17235412.73048  21270745.722    21270745.8294   21270757.5694
 -18157830.935 9 -14125660.12448  22021094.866    22021094.1544   22021107.4664
 -12500457.476 9  -9328759.61746  23068787.914    23068787.1614   23068805.3854
  -7045859.200 9  -5466862.86045  24184819.172    24184818.6804   24184845.0534
  -5134327.385 9  -3978652.50746  23905652.117    23905651.9614   23905668.1754
 -18310756.490 9 -14011699.00848  21607407.083    21607406.1744   21607418.1094
 -27616663.760 9 -21501558.48149  20669728.647    20669728.3354   20669738.7864
  -5028578.724 9  -3911429.52245  24891007.473    24891007.4334   24891023.0294
 00  4 19 22  0 54.0000000  0  9 26 30 17  5 23 24 10  6 13          0.000000060
  -7747816.794 9  -6023166.15145  23802893.814    23802893.6004   23802916.3424
 -22130555.614 9 -17234597.58848  21270944.783    21270944.8914   21270956.6324
 -18158674.422 9 -14126317.38648  22020934.348    22020933.6354   22020946.9494
 -12498748.364 9  -9327427.84646  23069113.151    23069112.3954   23069130.6224
  -7047599.878 9  -5468219.22445  24184487.938    24184487.4394   24184513.8174
  -5133082.097 9  -3977682.15446  23905889.110    23905888.9574   23905905.1694
 -18309646.666 9 -14010834.21148  21607618.265    21607617.3584   21607629.2904
 -27617344.129 9 -21502088.63749  20669599.200    20669598.8954   20669609.3344
  -5028430.088 8  -3911313.69945  24891035.751    24891035.7144   24891051.2984
 00  4 19 22  0 54.0000000  0  9 26 30 17  5 23 24 10  6 13          0.000000060
  -7749241.719 9  -6024276.47545  23802622.654    23802622.4384   23802645.1864
 -22129509.417 9 -17233782.37048  21271143.868    21271143.9734   21271155.7134
 -18159517.898 9 -14126974.64148  22020773.848    22020773.1464   22020786.4404
 -12497039.228 9  -9326096.05546  23069438.399    23069437.6404   23069455.8724
  -7049340.579 9  -5469575.60445  24184156.683    24184156.1894   24184182.5614
  -5131836.838 9  -3976711.82546  23906126.070    23906125.9234   23906142.1244
 -18308536.734 9 -14009969.33148  21607829.500    21607828.5914   21607840.5284
 -27618024.422 9 -21502618.73449  20669469.725    20669469.4144   20669479.8564
  -5028281.399 9  -3911197.83645  24891064.035    24891064.0044   24891079.5834
 00  4 19 22  0 55.0000000  0  9 26 30 17  5 23 24 10  6 13          0.000000059
  -7750666.555 9  -6025386.73145  23802351.530    23802351.3164   23802374.0614
 -22128463.029 9 -17232967.00548  21271342.996    21271343.1054   21271354.8484
 -18160361.247 9 -14127631.79548  22020613.353    22020612.6474   22020625.9524
 -12495329.998 9  -9324764.19046  23069763.662    23069762.9054   23069781.1404
  -7051081.170 9  -5470931.89745  24183825.447    24183824.9484   24183851.3294
  -5130591.505 9  -3975741.43946  23906363.064    23906362.9194   23906379.1184
 -18307426.616 9 -14009104.30648  21608040.751    21608039.8454   21608051.7764
 -27618704.569 9 -21503148.72049  20669340.319    20669340.0144   20669350.4584
  -5028132.486 8  -3911081.79745  24891092.384    24891092.3654   24891107.9264
 00  4 19 22  0 55.0000000  0  9 26 30 17  5 23 24 10  6 13          0.000000059
  -7752091.414 8  -6026497.00445  23802080.385    23802080.1734   23802102.9144
 -22127416.527 9 -17232151.55248  21271542.156    21271542.2674   21271554.0094
 -18161204.565 9 -14128288.92348  22020452.870    22020452.1584   22020465.4694
 -12493620.745 9  -9323432.31546  23070088.945    23070088.1804   23070106.4224
  -7052821.755 9  -5472288.18645  24183494.214    24183493.7074   24183520.0924
  -5129346.212 9  -3974771.08446  23906600.023    23906599.8754   23906616.0734
 -18306316.390 9 -14008239.19548  21608251.994    21608251.0794   21608263.0224
 -27619384.655 9 -21503678.65949  20669210.884    20669210.5734   20669221.0204
  -5027983.441 9  -3910965.65845  24891120.745    24891120.7354   24891136.2854
 00  4 19 22  0 56.0000000  0  9 26 30 17  5 23 24 10  6 13          0.000000058
  -7753516.191 8  -6027607.21445  23801809.251    23801809.0314   23801831.7724
 -22126369.865 9 -17231335.97348  21271741.316    21271741.4304   21271753.1674
 -18162047.794 9 -14128945.98448  22020292.411    22020291.6994   22020305.0104
 -12491911.416 9  -9322100.37646  23070414.222    23070413.4554   23070431.6934
  -7054562.275 9  -5473644.42545  24183162.987    24183162.4774   24183188.8624
  -5128100.876 9  -3973800.69246  23906837.018    23906836.8714   23906853.0714
 -18305205.990 9 -14007373.95148  21608463.314    21608462.4134   21608474.3444
 -27620064.598 9 -21504208.48449  20669081.500    20669081.1934   20669091.6334
  -5027834.217 9  -3910849.37645  24891149.149    24891149.1354   24891164.6834
 00  4 19 22  0 56.0000000  0  9 26 30 17  5 23 24 10  6 13          0.000000058
  -7754940.923 9  -6028717.38745  23801538.119    23801537.8994   23801560.6394
 -22125323.104 9 -17230520.31648  21271940.525    21271940.6324   21271952.3784
 -18162891.001 9 -14129603.02548  22020131.938    22020131.2304   22020144.5334
 -12490202.093 9  -9320768.44246  23070739.479    23070738.7104   23070756.9474
  -7056302.781 9  -5475000.65245  24182831.775    24182831.2664   24182857.6544
  -5126855.569 9  -3972830.32046  23907073.993    23907073.8474   23907090.0404
 -18304095.499 9 -14006508.63448  21608674.629    21608673.7264   21608685.6514
 -27620744.490 9 -21504738.26849  20668952.121    20668951.8134   20668962.2604
  -5027684.877 8  -3910733.00545  24891177.567    24891177.5664   24891193.0964
 00  4 19 22  0 57.0000000  0  9 26 30 17  5 23 24 10  6 13          0.000000057
  -7756365.690 9  -6029827.58845  23801266.999    23801266.7774   23801289.5194
 -22124276.244 9 -17229704.58048  21272139.744    21272139.8444   21272151.5964
 -18163734.173 9 -14130260.04148  22019971.493    22019970.7914   22019984.0904
 -12488492.737 9  -9319436.48246  23071064.786    23071064.0144   23071082.2594
  -7058043.294 9  -5476356.88545  24182500.576    24182500.0654   24182526.4524
  -5125610.282 9  -3971859.96946  23907310.959    23907310.8024   23907327.0014
 -18302984.903 9 -14005643.23548  21608885.968    21608885.0604   21608896.9954
 -27621424.328 9 -21505268.01049  20668822.756    20668822.4524   20668832.8914
  -5027535.423 9  -3910616.54745  24891206.000    24891205.9964   24891221.5274
 00  4 19 22  0 57.0000000  0  9 26 30 17  5 23 24 10  6 13          0.000000057
  -7757790.406 8  -6030937.75145  23800995.895    23800995.6654   23801018.4124
 -22123229.251 9 -17228888.74548  21272338.974    21272339.0864   21272350.8244
 -18164577.297 9 -14130917.01848  22019811.048    22019810.3434   22019823.6444
 -12486783.355 9  -9318104.50346  23071390.069    23071389.2994   23071407.5324
  -7059783.787 8  -5477713.10145  24182169.365    24182168.8454   24182195.2364
  -5124364.968 9  -3970889.59646  23907547.946    23907547.7984   23907563.9844
 -18301874.181 9 -14004777.73748  21609097.336    21609096.4344   21609108.3644
 -27622104.059 9 -21505797.67049  20668693.393    20668693.0824   20668703.5284
  -5027385.825 9  -3910499.97645  24891234.468    24891234.4574   24891250.0004
 00  4 19 22  0 58.0000000  0  9 26 30 17  5 23 24 10  6 13          0.000000056
  -7759215.049 9  -6032047.85545  23800724.781    23800724.5524   23800747.2904
 -22122182.079 9 -17228072.76848  21272538.226    21272538.3284   21272550.0714
 -18165420.319 9 -14131573.91448  22019650.651    22019649.9444   22019663.2464
 -12485073.884 9  -9316772.45546  23071715.368    23071714.5944   23071732.8384
  -7061524.168 9  -5479069.23245  24181838.168    24181837.6444   24181864.0364
  -5123119.611 9  -3969919.18946  23907784.921    23907784.7744   23907800.9474
 -18300763.280 9 -14003912.10248  21609308.742    21609307.8374   21609319.7714
 -27622783.655 9 -21506327.22649  20668564.063    20668563.7514   20668574.2044
  -5027236.026 9  -3910383.24845  24891262.965    24891262.9674   24891278.5094
 00  4 19 22  0 58.0000000  0  9 26 30 17  5 23 24 10  6 13          0.000000056
  -7760639.698 9  -6033157.96345  23800453.679    23800453.4404   23800476.1864
 -22121134.823 9 -17227256.72748  21272737.525    21272737.6304   21272749.3764
 -18166263.323 9 -14132230.80048  22019490.208    22019489.5054   22019502.8004
 -12483364.421 9  -9315440.41046  23072040.666    23072039.8894   23072058.1294
  -7063264.571 9  -5480425.38045  24181506.953    24181506.4234   24181532.8144
  -5121874.311 9  -3968948.82846  23908021.919    23908021.7704   23908037.9394
 -18299652.297 9 -14003046.40348  21609520.139    21609519.2414   21609531.1654
 -27623463.223 9 -21506856.75849  20668434.773    20668434.4614   20668444.9094
  -5027086.150 9  -3910266.45945  24891291.493    24891291.4974   24891307.0384
 00  4 19 22  0 59.0000000  0  9 26 30 17  5 23 24 10  6 13          0.000000055
  -7762064.325 8  -6034268.05545  23800182.578    23800182.3384   23800205.0884
 -22120087.455 9 -17226440.60048  21272936.838    21272936.9424   21272948.6794
 -18167106.297 9 -14132887.66148  22019329.816    22019329.1064   22019342.4124
 -12481654.939 9  -9314108.35346  23072365.978    23072365.2034   23072383.4394
  -7065004.982 9  -5481781.53545  24181175.772    24181175.2434   24181201.6354
  -5120629.005 9  -3967978.46246  23908258.885    23908258.7364   23908274.8964
 -18298541.205 9 -14002180.61848  21609731.586    21609730.6854   21609742.6124
 -27624142.703 9 -21507386.22349  20668305.459    20668305.1504   20668315.5994
  -5026936.121 8  -3910149.55245  24891320.027    24891320.0374   24891335.5674
 00  4 19 22  0 59.0000000  0  9 26 30 17  5 23 24 10  6 13          0.000000055
  -7763488.910 9  -6035378.11545  23799911.485    23799911.2364   23799933.9854
 -22119039.937 9 -17225624.35448  21273136.185    21273136.2844   21273148.0284
 -18167949.199 9 -14133544.46748  22019169.400    22019168.6974   22019181.9904
 -12479945.402 9  -9312776.25446  23072691.307    23072690.5284   23072708.7654
  -7066745.306 9  -5483137.62145  24180844.569    24180844.0324   24180870.4314
  -5119383.662 9  -3967008.06746  23908495.874    23908495.7324   23908511.8714
 -18297429.968 9 -14001314.71948  21609943.034    21609942.1284   21609954.0654
 -27624822.080 9 -21507915.60649  20668176.182    20668175.8704   20668186.3144
  -5026785.956 9  -3910032.53645  24891348.601    24891348.6174   24891364.1534
 00  4 19 22  1  0.0000000  0  9 26 30 17  5 23 24 10  6 13          0.000000054
  -7764913.439 9  -6036488.13345  23799640.408    23799640.1534   23799662.9124
 -22117992.242 9 -17224807.97048  21273335.545    21273335.6364   21273347.3894
 -18168791.995 9 -14134201.18848  22019009.039    22019008.3284   22019021.6274
 -12478235.780 9  -9311444.08646  23073016.625    23073015.8534   23073034.0874
  -7068485.581 8  -5484493.66845  24180513.409    24180512.8714   24180539.2654
  -5118138.306 9  -3966037.66346  23908732.873    23908732.7284   23908748.8714
 -18296318.561 9 -14000448.69248  21610154.518    21610153.6224   21610165.5504
 -27625501.334 9 -21508444.89449  20668046.930    20668046.6194   20668057.0714
  -5026635.611 9  -3909915.38045  24891377.224    24891377.2374   24891392.7704
 00  4 19 22  1  0.0000000  0  9 26 30 17  5 23 24 10  6 13          0.000000054
  -7766337.861 8  -6037598.06645  23799369.333    23799369.0814   23799391.8304
 -22116944.360 9 -17223991.44248  21273534.960    21273535.0584   21273546.7994
 -18169634.683 9 -14134857.82848  22018848.668    22018847.9594   22018861.2604
 -12476526.057 9  -9310111.84346  23073341.985    23073341.2084   23073359.4474
  -7070225.743 8  -5485849.62845  24180182.250    24180181.7104   24180208.0984
  -5116892.859 9  -3965067.18546  23908969.869    23908969.7244   23908985.8684
 -18295206.953 9 -13999582.50348  21610366.064    21610365.1654   21610377.0954
 -27626180.420 9 -21508974.05349  20667917.691    20667917.3794   20667927.8224
  -5026485.033 9  -3909798.04645  24891405.864    24891405.8884   24891421.4164
 00  4 19 22  1  1.0000000  0  9 26 30 17  5 23 24 10  6 13          0.000000053
  -7767762.305 8  -6038708.01445  23799098.270    23799098.0084   23799120.7624
 -22115896.396 9 -17223174.84948  21273734.368    21273734.4704   21273746.2144
 -18170477.370 9 -14135514.46648  22018688.297    22018687.6004   22018700.8854
 -12474816.357 9  -9308779.62046  23073667.333    23073666.5524   23073684.7884
  -7071965.955 9  -5487205.62645  24179851.107    24179850.5694   24179876.9544
  -5115647.466 9  -3964096.75446  23909206.863    23909206.7204   23909222.8534
 -18294095.277 9 -13998716.26348  21610577.599    21610576.6994   21610588.6304
 -27626859.480 9 -21509503.19049  20667788.460    20667788.1484   20667798.5964
  -5026334.391 9  -3909680.66045  24891434.544    24891434.5684   24891450.0994
 00  4 19 22  1  1.0000000  0  9 26 30 17  5 23 24 10  6 13          0.000000053
  -7769186.723 8  -6039817.94345  23798827.220    23798826.9564   23798849.7094
 -22114848.304 9 -17222358.15748  21273933.818    21273933.9224   21273945.6654
 -18171319.997 9 -14136171.05748  22018527.955    22018527.2514   22018540.5424
 -12473106.613 9  -9307447.35446  23073992.695    23073991.9174   23074010.1524
  -7073706.095 9  -5488561.56945  24179519.968    24179519.4284   24179545.8194
  -5114402.065 9  -3963126.31346  23909443.873    23909443.7264   23909459.8584
 -18292983.475 9 -13997849.92148  21610789.189    21610788.2924   21610800.2294
 -27627538.459 9 -21510032.26449  20667659.265    20667658.9584   20667669.4044
  -5026183.603 8  -3909563.16145  24891463.229    24891463.2584   24891478.7944
 00  4 19 22  1  2.0000000  0  9 26 30 17  5 23 24 10  6 13          0.000000052
  -7770611.099 8  -6040927.83845  23798556.159    23798555.8844   23798578.6474
 -22113800.086 9 -17221541.36548  21274133.291    21274133.3944   21274145.1304
 -18172162.584 9 -14136827.61448  22018367.632    22018366.9224   22018380.2144
 -12471396.839 9  -9306115.07046  23074318.067    23074317.2914   23074335.5344
  -7075446.251 9  -5489917.52545  24179188.798    24179188.2584   24179214.6464
  -5113156.663 9  -3962155.87146  23909680.868    23909680.7224   23909696.8514
 -18291871.543 9 -13996983.48248  21611000.762    21610999.8664   21611011.7964
 -27628217.333 9 -21510561.25649  20667530.061    20667529.7574   20667540.1994
  -5026032.673 8  -3909445.55345  24891491.939    24891491.9784   24891507.5134
 00  4 19 22  1  2.0000000  0  9 26 30 17  5 23 24 10  6 13          0.000000052
  -7772035.440 9  -6042037.70645  23798285.102    23798284.8224   23798307.5894
 -22112751.758 9 -17220724.48948  21274332.789    21274332.8764   21274344.6324
 -18173005.128 9 -14137484.14048  22018207.286    22018206.5734   22018219.8714
 -12469687.045 9  -9304782.76646  23074643.440    23074642.6664   23074660.9094
  -7077186.376 9  -5491273.45445  24178857.649    24178857.1074   24178883.4914
  -5111911.264 9  -3961185.43346  23909917.854    23909917.7084   23909933.8374
 -18290759.501 9 -13996116.95748  21611212.381    21611211.4894   21611223.4074
 -27628896.145 9 -21511090.20149  20667400.912    20667400.6064   20667411.0514
  -5025881.617 9  -3909327.84345  24891520.695    24891520.7384   24891536.2704
 00  4 19 22  1  3.0000000  0  9 26 30 17  5 23 24 10  6 13          0.000000051
  -7773459.783 9  -6043147.57645  23798014.069    23798013.7894   23798036.5624
 -22111703.312 9 -17219907.51948  21274532.308    21274532.3984   21274544.1504
 -18173847.630 9 -14138140.63348  22018046.965    22018046.2644   22018059.5434
 -12467977.216 9  -9303450.43746  23074968.793    23074968.0214   23074986.2614
  -7078926.469 9  -5492629.36045  24178526.537    24178525.9864   24178552.3774
  -5110665.887 9  -3960215.00746  23910154.864    23910154.7144   23910170.8474
 -18289647.348 9 -13995250.34648  21611424.008    21611423.1134   21611435.0484
 -27629574.886 9 -21511619.08949  20667271.728    20667271.4264   20667281.8664
  -5025730.442 9  -3909210.04545  24891549.458    24891549.4994   24891565.0384
 00  4 19 22  1  3.0000000  0  9 26 30 17  5 23 24 10  6 13          0.000000051
  -7774884.006 9  -6044257.35445  23797743.030    23797742.7474   23797765.5224
 -22110654.655 9 -17219090.38548  21274731.848    21274731.9494   21274743.6914
 -18174690.010 9 -14138797.03348  22017886.661    22017885.9554   22017899.2404
 -12466267.278 9  -9302118.02046  23075294.184    23075293.4164   23075311.6524
  -7080666.474 9  -5493985.20045  24178195.403    24178194.8554   24178221.2444
  -5109420.419 9  -3959244.51646  23910391.854    23910391.7004   23910407.8434
 -18288534.977 9 -13994383.56648  21611635.691    21611634.7964   21611646.7284
 -27630253.446 9 -21512147.83749  20667142.602    20667142.2954   20667152.7384
  -5025579.059 9  -3909092.08445  24891578.266    24891578.3194   24891593.8434
 00  4 19 22  1  4.0000000  0  9 26 30 17  5 23 24 10  6 13          0.000000050
  -7776308.264 8  -6045367.15845  23797471.996    23797471.7054   23797494.4834
 -22109605.915 9 -17218273.18648  21274931.424    21274931.5214   21274943.2664
 -18175532.374 9 -14139453.41648  22017726.377    22017725.6664   22017738.9534
 -12464557.352 9  -9300785.61446  23075619.592    23075618.8314   23075637.0604
  -7082406.466 9  -5495341.02645  24177864.300    24177863.7454   24177890.1374
  -5108174.998 9  -3958274.05846  23910628.850    23910628.6964   23910644.8384
 -18287422.523 9 -13993516.71948  21611847.403    21611846.5104   21611858.4364
 -27630931.970 9 -21512676.55849  20667013.502    20667013.1954   20667023.6394
  -5025427.564 9  -3908974.03645  24891607.100    24891607.1494   24891622.6854
 00  4 19 22  1  4.0000000  0  9 26 30 17  5 23 24 10  6 13          0.000000050
  -7777732.446 8  -6046476.90445  23797200.986    23797200.6824   23797223.4814
 -22108557.010 9 -17217455.85748  21275131.021    21275131.1234   21275142.8604
 -18176374.657 9 -14140109.74148  22017566.101    22017565.3974   22017578.6744
 -12462847.360 9  -9299453.15946  23075944.982    23075944.2164   23075962.4554
  -7084146.396 9  -5496696.80745  24177533.173    24177532.6244   24177559.0064
  -5106929.554 9  -3957303.58546  23910865.874    23910865.7224   23910881.8584
 -18286309.919 9 -13992649.75748  21612059.099    21612058.2134   21612070.1384
 -27631610.380 9 -21513205.18849  20666884.391    20666884.0844   20666894.5324
  -5025275.896 9  -3908855.85145  24891635.947    24891635.9894   24891651.5324
 00  4 19 22  1  5.0000000  0  9 26 30 17  5 23 24 10  6 13          0.000000049
  -7779156.549 8  -6047586.58945  23796929.978    23796929.6704   23796952.4684
 -22107507.942 9 -17216638.40448  21275330.647    21275330.7454   21275342.4854
 -18177216.855 9 -14140765.99848  22017405.806    22017405.0984   22017418.3884
 -12461137.292 9  -9298120.64846  23076270.415    23076269.6504   23076287.8834
  -7085886.287 8  -5498052.55545  24177202.077    24177201.5234   24177227.9124
  -5105684.073 9  -3956333.08346  23911102.894    23911102.7384   23911118.8794
 -18285197.142 9 -13991782.65648  21612270.857    21612269.9674   21612281.8964
 -27632288.653 9 -21513733.71249  20666755.326    20666755.0234   20666765.4664
  -5025124.055 9  -3908737.53045  24891664.851    24891664.8894   24891680.4424
 00  4 19 22  1  5.0000000  0  9 26 30 17  5 23 24 10  6 13          0.000000049
  -7780580.670 8  -6048696.28845  23796658.987    23796658.6774   23796681.4784
 -22106458.777 9 -17215820.87448  21275530.290    21275530.3874   21275542.1354
 -18178059.032 9 -14141422.23948  22017245.563    22017244.8594   22017258.1454
 -12459427.222 9  -9296788.12846  23076595.816    23076595.0554   23076613.2954
  -7087626.168 9  -5499408.29645  24176870.996    24176870.4424   24176896.8284
  -5104438.610 9  -3955362.59246  23911339.882    23911339.7244   23911355.8664
 -18284084.269 9 -13990915.48448  21612482.629    21612481.7404   21612493.6654
 -27632966.872 9 -21514262.19249  20666626.266    20666625.9634   20666636.4144
  -5024972.118 8  -3908619.13645  24891693.745    24891693.7894   24891709.3264
 00  4 19 22  1  6.0000000  0  9 26 30 17  5 23 24 10  6 13          0.000000048
  -7782004.812 8  -6049806.00445  23796387.960    23796387.6454   23796410.4514
 -22105409.523 9 -17215003.27548  21275729.976    21275730.0684   21275741.8194
 -18178901.196 9 -14142078.46948  22017085.301    22017084.5904   22017097.8774
 -12457717.168 9  -9295455.62346  23076921.252    23076920.4994   23076938.7284
  -7089366.062 9  -5500764.04745  24176539.873    24176539.3124   24176565.6954
  -5103193.201 9  -3954392.14346  23911576.885    23911576.7204   23911592.8574
 -18282971.319 9 -13990048.25048  21612694.437    21612693.5534   21612705.4834
 -27633645.060 9 -21514790.64849  20666497.207    20666496.9024   20666507.3504
  -5024820.082 9  -3908500.66345  24891722.676    24891722.7194   24891738.2554
 00  4 19 22  1  6.0000000  0  9 26 30 17  5 23 24 10  6 13          0.000000047
  -7783428.913 8  -6050915.68645  23796116.963    23796116.6424   23796139.4554
 -22104360.137 9 -17214185.57348  21275929.673    21275929.7704   21275941.5144
 -18179743.301 9 -14142734.65448  22016925.054    22016924.3414   22016937.6244
 -12456007.064 9  -9294123.08146  23077246.669    23077245.9144   23077264.1494
  -7091105.917 9  -5502119.76745  24176208.784    24176208.2214   24176234.6074
  -5101947.770 9  -3953421.68246  23911813.885    23911813.7064   23911829.8594
 -18281858.227 9 -13989180.90848  21612906.237    21612905.3474   21612917.2794
 -27634323.131 9 -21515319.01649  20666368.172    20666367.8714   20666378.3114
  -5024667.883 8  -3908382.06745  24891751.645    24891751.6894   24891767.2384
 00  4 19 22  1  7.0000000  0  9 26 30 17  5 23 24 10  6 13          0.000000047
  -7784852.904 9  -6052025.28245  23795845.988    23795845.6704   23795868.4734
 -22103310.555 9 -17213367.72048  21276129.377    21276129.4724   21276141.2234
 -18180585.296 9 -14143390.75248  22016764.822    22016764.1214   22016777.3964
 -12454296.864 9  -9292790.46546  23077572.120    23077571.3694   23077589.5964
  -7092845.679 9  -5503475.41745  24175877.706    24175877.1404   24175903.5264
  -5100702.276 9  -3952451.16646  23912050.918    23912050.7424   23912066.8914
 -18280744.943 9 -13988313.41548  21613118.100    21613117.2204   21613129.1434
 -27635001.065 9 -21515847.27649  20666239.173    20666238.8714   20666249.3234
  -5024515.487 9  -3908263.31745  24891780.647    24891780.6894   24891796.2404
 00  4 19 22  1  7.0000000  0  9 26 30 17  5 23 24 10  6 13          0.000000047
  -7786276.849 9  -6053134.84445  23795575.027    23795574.7074   23795597.5164
 -22102260.802 9 -17212549.73348  21276329.162    21276329.2634   21276341.0034
 -18181427.179 9 -14144046.76348  22016604.626    22016603.9124   22016617.1954
 -12452586.593 9  -9291457.79046  23077897.587    23077896.8444   23077915.0694
  -7094585.365 9  -5504831.00745  24175546.664    24175546.0894   24175572.4784
  -5099456.753 9  -3951480.63246  23912287.919    23912287.7284   23912303.8894
 -18279631.498 9 -13987445.79748  21613329.976    21613329.0934   21613341.0164
 -27635678.872 9 -21516375.43549  20666110.169    20666109.8704   20666120.3124
  -5024362.900 9  -3908144.41445  24891809.695    24891809.7394   24891825.2964
 00  4 19 22  1  8.0000000  0  9 26 30 17  5 23 24 10  6 13          0.000000046
  -7787700.830 9  -6054244.43445  23795304.042    23795303.7254   23795326.5314
 -22101211.012 9 -17211731.71648  21276528.925    21276529.0254   21276540.7694
 -18182269.112 9 -14144702.81448  22016444.402    22016443.6934   22016456.9744
 -12450876.390 9  -9290125.17046  23078223.010    23078222.2694   23078240.4914
  -7096325.117 9  -5506186.64745  24175215.572    24175214.9994   24175241.3844
  -5098211.309 9  -3950510.15746  23912524.918    23912524.7334   23912540.8844
 -18278518.010 9 -13986578.14548  21613541.875    21613540.9974   21613552.9224
 -27636356.676 9 -21516903.59349  20665981.212    20665980.9094   20665991.3564
  -5024210.270 9  -3908025.48145  24891838.719    24891838.7594   24891854.3314
 00  4 19 22  1  8.0000000  0  9 26 30 17  5 23 24 10  6 13          0.000000045
  -7789124.764 8  -6055353.98645  23795033.071    23795032.7534   23795055.5614
 -22100161.054 9 -17210913.57048  21276728.734    21276728.8374   21276740.5844
 -18183110.940 9 -14145358.78048  22016284.202    22016283.4944   22016296.7664
 -12449166.093 9  -9288792.47746  23078548.492    23078547.7434   23078565.9794
  -7098064.787 8  -5507542.22345  24174884.535    24174883.9584   24174910.3464
  -5096965.814 9  -3949539.64646  23912761.945    23912761.7594   23912777.9084
 -18277404.345 9 -13985710.35548  21613753.787    21613752.9104   21613764.8324
 -27637034.350 9 -21517431.65049  20665852.242    20665851.9394   20665862.3854
  -5024057.432 8  -3907906.38545  24891867.802    24891867.8394   24891883.4204
 00  4 19 22  1  9.0000000  0  9 26 30 17  5 23 24 10  6 13          0.000000045
  -7790548.646 8  -6056463.50045  23794762.111    23794761.7804   23794784.5944
 -22099110.948 9 -17210095.30848  21276928.551    21276928.6494   21276940.4034
 -18183952.703 9 -14146014.69748  22016124.016    22016123.3054   22016136.5784
 -12447455.761 9  -9287459.75646  23078873.951    23078873.2084   23078891.4394
  -7099804.412 9  -5508897.76345  24174553.494    24174552.9174   24174579.2994
  -5095720.323 9  -3948569.13546  23912998.955    23912998.7564   23913014.9184
 -18276290.556 9 -13984842.46848  21613965.737    21613964.8444   21613976.7854
 -27637711.938 9 -21517959.63949  20665723.298    20665722.9984   20665733.4464
  -5023904.459 9  -3907787.18445  24891896.903    24891896.9394   24891912.5274
 00  4 19 22  1  9.0000000  0  9 26 30 17  5 23 24 10  6 13          0.000000044
  -7791972.529 8  -6057573.01545  23794491.151    23794490.8184   23794513.6284
 -22098060.731 9 -17209276.95948  21277128.412    21277128.5104   21277140.2644
 -18184794.429 9 -14146670.58748  22015963.848    22015963.1364   22015976.4074
 -12445745.400 9  -9286127.01346  23079199.432    23079198.6824   23079216.9204
  -7101544.030 9  -5510253.29945  24174222.418    24174221.8364   24174248.2224
  -5094474.823 9  -3947598.61746  23913235.975    23913235.7714   23913251.9374
 -18275176.641 9 -13983974.48048  21614177.709    21614176.8274   21614188.7544
 -27638389.431 9 -21518487.55649  20665594.364    20665594.0574   20665604.5094
  -5023751.353 8  -3907667.88045  24891926.045    24891926.0794   24891941.6704
 00  4 19 22  1 10.0000000  0  9 26 30 17  5 23 24 10  6 13          0.000000044
  -7793396.206 8  -6058682.36845  23794220.218    23794219.8854   23794242.6994
 -22097010.247 9 -17208458.40248  21277328.305    21277328.4124   21277340.1544
 -18185635.955 9 -14147326.31848  22015803.715    22015803.0074   22015816.2754
 -12444034.872 9  -9284794.14046  23079524.914    23079524.1674   23079542.4084
  -7103283.456 9  -5511608.68645  24173891.433    24173890.8454   24173917.2324
  -5093229.191 9  -3946628.00046  23913473.015    23913472.8174   23913488.9824
 -18274062.464 9 -13983106.29248  21614389.723    21614388.8404   21614400.7704
 -27639066.701 9 -21519015.29949  20665465.502    20665465.1964   20665475.6554
  -5023597.982 9  -3907548.36845  24891955.219    24891955.2494   24891970.8454
 00  4 19 22  1 10.0000000  0  9 26 30 17  5 23 24 10  6 13          0.000000043
  -7794820.019 9  -6059791.82645  23793949.279    23793948.9434   23793971.7564
 -22095959.756 9 -17207639.84248  21277528.207    21277528.3144   21277540.0564
 -18186477.555 9 -14147982.10948  22015643.560    22015642.8484   22015656.1134
 -12442324.434 9  -9283461.34146  23079850.412    23079849.6724   23079867.8964
  -7105022.989 9  -5512964.15745  24173560.392    24173559.8044   24173586.1884
  -5091983.691 9  -3945657.48046  23913710.025    23913709.8234   23913725.9954
 -18272948.285 9 -13982238.10248  21614601.733    21614600.8434   21614612.7794
 -27639744.021 9 -21519543.08249  20665336.603    20665336.3054   20665346.7504
  -5023444.567 9  -3907428.82245  24891984.427    24891984.4494   24892000.0604
 00  4 19 22  1 11.0000000  0  9 26 30 17  5 23 24 10  6 13          0.000000043
  -7796243.755 9  -6060901.22345  23793678.353    23793678.0204   23793700.8304
 -22094909.103 9 -17206821.15248  21277728.127    21277728.2254   21277739.9764
 -18187319.056 9 -14148637.82348  22015483.420    22015482.7094   22015495.9734
 -12440613.923 9  -9282128.48046  23080175.934    23080175.1864   23080193.4234
  -7106762.457 8  -5514319.57845  24173229.360    24173228.7734   24173255.1594
  -5090738.142 9  -3944686.92546  23913947.063    23913946.8594   23913963.0324
 -18271833.942 9 -13981369.78248  21614813.799    21614812.9164   21614824.8474
 -27640421.193 9 -21520070.74849  20665207.732    20665207.4354   20665217.8794
  -5023290.986 9  -3907309.14645  24892013.664    24892013.6784   24892029.3044
 00  4 19 22  1 11.0000000  0  9 26 30 17  5 23 24 10  6 13          0.000000042
  -7797667.456 8  -6062010.59445  23793407.432    23793407.0984   23793429.9124
 -22093858.324 9 -17206002.36348  21277928.085    21277928.1874   21277939.9394
 -18188160.509 9 -14149293.50048  22015323.290    22015322.5804   22015335.8414
 -12438903.393 9  -9280795.60346  23080501.414    23080500.6714   23080518.9024
  -7108501.898 9  -5515674.97545  24172898.370    24172897.7834   24172924.1624
  -5089492.601 9  -3943716.37446  23914184.091    23914183.8754   23914200.0624
 -18270719.470 9 -13980501.36448  21615025.872    21615024.9804   21615036.9204
 -27641098.288 9 -21520598.35449  20665078.888    20665078.5844   20665089.0404
  -5023137.280 9  -3907189.37045  24892042.886    24892042.8984   24892058.5334
 00  4 19 22  1 12.0000000  0  9 26 30 17  5 23 24 10  6 13          0.000000042
  -7799091.185 8  -6063119.98745  23793136.488    23793136.1554   23793158.9674
 -22092807.460 9 -17205183.50848  21278128.085    21278128.1884   21278139.9414
 -18189001.950 9 -14149949.16748  22015163.171    22015162.4614   22015175.7184
 -12437192.863 9  -9279462.72746  23080826.929    23080826.1954   23080844.4064
  -7110241.328 9  -5517030.36645  24172567.339    24172566.7524   24172593.1294
  -5088247.096 9  -3942745.85146  23914421.103    23914420.8914   23914437.0674
 -18269604.931 9 -13979632.89248  21615237.965    21615237.0734   21615249.0184
 -27641775.345 9 -21521125.92949  20664950.053    20664949.7534   20664960.2054
  -5022983.442 9  -3907069.49645  24892072.180    24892072.1874   24892087.8324
 00  4 19 22  1 12.0000000  0  9 26 30 17  5 23 24 10  6 13          0.000000041
  -7800514.855 9  -6064229.33445  23792865.571    23792865.2434   23792888.0414
 -22091756.440 9 -17204364.53448  21278328.066    21278328.1704   21278339.9254
 -18189843.308 9 -14150604.76848  22015003.066    22015002.3514   22015015.6144
 -12435482.270 9  -9278129.80346  23081152.463    23081151.7314   23081169.9404
  -7111980.704 9  -5518385.71545  24172236.340    24172235.7514   24172262.1314
  -5087001.556 9  -3941775.30446  23914658.104    23914657.8874   23914674.0624
 -18268490.222 9 -13978764.28948  21615450.088    21615449.2064   21615461.1424
 -27642452.269 9 -21521653.40049  20664821.223    20664820.9224   20664831.3724
  -5022829.439 9  -3906949.49345  24892101.472    24892101.4774   24892117.1224
 00  4 19 22  1 13.0000000  0  9 26 30 17  5 23 24 10  6 13          0.000000041
  -7801938.455 9  -6065338.62645  23792594.651    23792594.3204   23792617.1184
 -22090705.246 9 -17203545.42248  21278528.125    21278528.2214   21278539.9844
 -18190684.564 9 -14151260.29348  22014842.978    22014842.2624   22014855.5224
 -12433771.613 9  -9276796.83146  23081477.983    23081477.2464   23081495.4574
  -7113720.003 9  -5519741.00345  24171905.370    24171904.7804   24171931.1644
  -5085755.980 9  -3940804.72846  23914895.148    23914894.9334   23914911.1124
 -18267375.357 9 -13977895.56548  21615662.253    21615661.3694   21615673.3094
 -27643129.071 9 -21522180.78049  20664692.457    20664692.1514   20664702.6044
  -5022675.270 8  -3906829.35745  24892130.814    24892130.8174   24892146.4724
 00  4 19 22  1 13.0000000  0  9 26 30 17  5 23 24 10  6 13          0.000000040
  -7803362.044 8  -6066447.91145  23792323.760    23792323.4284   23792346.2334
 -22089653.936 9 -17202726.22348  21278728.164    21278728.2634   21278740.0164
 -18191525.783 9 -14151915.78648  22014682.920    22014682.2034   22014695.4694
 -12432060.920 9  -9275463.83046  23081803.529    23081802.7814   23081821.0034
  -7115459.293 8  -5521096.28445  24171574.381    24171573.7894   24171600.1744
  -5084510.429 9  -3939834.17346  23915132.177    23915131.9494   23915148.1384
 -18266260.374 9 -13977026.74748  21615874.410    21615873.5324   21615885.4684
 -27643805.809 9 -21522708.10849  20664563.678    20664563.3814   20664573.8324
  -5022520.958 9  -3906709.11445  24892160.167    24892160.1774   24892175.8314
 00  4 19 22  1 14.0000000  0  9 26 30 17  5 23 24 10  6 13          0.000000040
  -7804785.622 8  -6067557.18445  23792052.857    23792052.5254   23792075.3204
 -22088602.533 9 -17201906.95048  21278928.255    21278928.3544   21278940.1114
 -18192366.983 9 -14152571.26448  22014522.834    22014522.1144   22014535.3824
 -12430350.245 9  -9274130.84146  23082129.052    23082128.3154   23082146.5314
  -7117198.588 9  -5522451.57045  24171243.373    24171242.7784   24171269.1584
  -5083264.893 9  -3938863.63046  23915369.195    23915368.9554   23915385.1494
 -18265145.295 9 -13976157.85548  21616086.610    21616085.7254   21616097.6644
 -27644482.478 9 -21523235.38149  20664434.900    20664434.6004   20664445.0504
  -5022366.536 9  -3906588.78645  24892189.546    24892189.5464   24892205.2124
 00  4 19 22  1 14.0000000  0  9 26 30 17  5 23 24 10  6 13          0.000000039
  -7806209.190 8  -6068666.45145  23791781.935    23791781.6034   23791804.3984
 -22087551.010 9 -17201087.58248  21279128.358    21279128.4564   21279140.2174
 -18193208.133 9 -14153226.70448  22014362.783    22014362.0654   22014375.3304
 -12428639.533 9  -9272797.82346  23082454.604    23082453.8594   23082472.0814
  -7118937.857 8  -5523806.83345  24170912.395    24170911.7974   24170938.1894
  -5082019.367 9  -3937893.09646  23915606.213    23915605.9714   23915622.1654
 -18264030.104 9 -13975288.87548  21616298.839    21616297.9584   21616309.8994
 -27645159.069 9 -21523762.59349  20664306.144    20664305.8394   20664316.2934
  -5022211.981 9  -3906468.35545  24892218.950    24892218.9564   24892234.6254
 00  4 19 22  1 15.0000000  0  9 26 30 17  5 23 24 10  6 13          0.000000039
  -7807632.667 8  -6069775.64545  23791511.072    23791510.7404   23791533.5404
 -22086499.306 9 -17200268.07448  21279328.495    21279328.5974   21279340.3534
 -18194049.173 9 -14153882.05748  22014202.718    22014201.9954   22014215.2614
 -12426928.729 9  -9271464.73146  23082780.149    23082779.4044   23082797.6314
  -7120677.022 9  -5525162.01745  24170581.435    24170580.8374   24170607.2274
  -5080773.798 9  -3936922.52946  23915843.246    23915842.9974   23915859.1914
 -18262914.746 9 -13974419.76548  21616511.078    21616510.2014   21616522.1384
 -27645835.531 9 -21524289.70649  20664177.408    20664177.1084   20664187.5564
  -5022057.229 9  -3906347.76645  24892248.420    24892248.4164   24892264.0954
 00  4 19 22  1 15.0000000  0  9 26 30 17  5 23 24 10  6 13          0.000000038
  -7809056.109 8  -6070884.81445  23791240.196    23791239.8684   23791262.6634
 -22085447.463 9 -17199448.45848  21279528.636    21279528.7394   21279540.4904
 -18194890.148 9 -14154537.35948  22014042.684    22014041.9664   22014055.2324
 -12425217.884 9  -9270131.61046  23083105.714    23083104.9684   23083123.2004
  -7122416.150 9  -5526517.17145  24170250.491    24170249.8964   24170276.2854
  -5079528.207 9  -3935951.93946  23916080.255    23916080.0024   23916096.2044
 -18261799.236 9 -13973550.53848  21616723.355    21616722.4744   21616734.4194
 -27646511.881 9 -21524816.73249  20664048.709    20664048.4074   20664058.8594
  -5021902.312 9  -3906227.04945  24892277.898    24892277.8954   24892293.5774
 00  4 19 22  1 16.0000000  0  9 26 30 17  5 23 24 10  6 13          0.000000038
  -7810479.454 8  -6071993.90745  23790969.335    23790969.0154   23790991.7904
 -22084395.439 9 -17198628.70348  21279728.826    21279728.9304   21279740.6834
 -18195731.014 9 -14155192.57848  22013882.674    22013881.9574   22013895.2134
 -12423506.946 9  -9268798.42146  23083431.291    23083430.5434   23083448.7864
  -7124155.201 9  -5527872.26645  24169919.563    24169918.9654   24169945.3604
  -5078282.569 9  -3934981.31246  23916317.310    23916317.0684   23916333.2614
 -18260683.554 9 -13972681.17848  21616935.643    21616934.7584   21616946.7084
 -27647188.085 9 -21525343.64449  20663920.021    20663919.7164   20663930.1764
  -5021747.216 8  -3906106.19445  24892307.395    24892307.3954   24892323.0824
 00  4 19 22  1 16.0000000  0  9 26 30 17  5 23 24 10  6 13          0.000000038
  -7811902.817 8  -6073103.01445  23790698.449    23790698.1334   23790720.9024
 -22083343.322 9 -17197808.87348  21279929.035    21279929.1414   21279940.8994
 -18196571.852 9 -14155847.77748  22013722.672    22013721.9574   22013735.2174
 -12421795.999 9  -9267465.22646  23083756.901    23083756.1574   23083774.4004
  -7125894.240 9  -5529227.35045  24169588.625    24169588.0244   24169614.4154
  -5077036.991 9  -3934010.73546  23916554.330    23916554.0844   23916570.2814
 -18259567.777 9 -13971811.74348  21617147.978    21617147.0914   21617159.0384
 -27647864.251 9 -21525870.52749  20663791.368    20663791.0654   20663801.5254
  -5021591.992 9  -3905985.24045  24892336.941    24892336.9344   24892352.6314
 00  4 19 22  1 17.0000000  0  9 26 30 17  5 23 24 10  6 13          0.000000037
  -7813326.158 9  -6074212.10445  23790427.609    23790427.2914   23790450.0654
 -22082291.078 9 -17196988.94748  21280129.279    21280129.3834   21280141.1344
 -18197412.644 9 -14156502.93948  22013562.676    22013561.9684   22013575.2184
 -12420085.031 9  -9266132.01246  23084082.472    23084081.7324   23084099.9694
  -7127633.257 9  -5530582.41845  24169257.695    24169257.0934   24169283.4884
  -5075791.393 9  -3933040.14346  23916791.366    23916791.1304   23916807.3184
 -18258451.870 9 -13970942.20748  21617360.334    21617359.4534   21617371.3824
 -27648540.308 9 -21526397.32349  20663662.721    20663662.4244   20663672.8764
  -5021436.631 9  -3905864.18145  24892366.491    24892366.4844   24892382.1814
 00  4 19 22  1 17.0000000  0  9 26 30 17  5 23 24 10  6 13          0.000000037
  -7814749.439 9  -6075321.14745  23790156.757    23790156.4384   23790179.2114
 -22081238.702 9 -17196168.91848  21280329.535    21280329.6344   21280341.3914
 -18198253.370 9 -14157158.04948  22013402.697    22013401.9794   22013415.2384
 -12418374.020 9  -9264798.76046  23084408.061    23084407.3274   23084425.5594
  -7129372.227 8  -5531937.44845  24168926.775    24168926.1724   24168952.5704
  -5074545.787 9  -3932069.54546  23917028.394    23917028.1564   23917044.3354
 -18257335.842 9 -13970072.57848  21617572.699    21617571.8164   21617583.7494
 -27649216.282 9 -21526924.05649  20663534.090    20663533.7934   20663544.2484
  -5021281.133 8  -3905743.01345  24892396.100    24892396.0934   24892411.7984
 00  4 19 22  1 18.0000000  0  9 26 30 17  5 23 24 10  6 13          0.000000036
  -7816172.707 8  -6076430.18245  23789885.899    23789885.5864   23789908.3524
 -22080186.203 9 -17195348.78848  21280529.840    21280529.9454   21280541.6974
 -18199094.041 9 -14157813.11948  22013242.725    22013242.0104   22013255.2664
 -12416662.966 9  -9263465.47746  23084733.690    23084732.9524   23084751.1914
  -7131111.178 9  -5533292.46545  24168595.848    24168595.2414   24168621.6424
  -5073300.196 9  -3931098.95646  23917265.411    23917265.1724   23917281.3544
 -18256219.687 9 -13969202.84948  21617785.093    21617784.2094   21617796.1424
 -27649892.177 9 -21527450.72749  20663405.457    20663405.1524   20663415.6154
  -5021125.467 8  -3905621.71445  24892425.717    24892425.7034   24892441.4164
 00  4 19 22  1 18.0000000  0  9 26 30 17  5 23 24 10  6 13          0.000000036
  -7817595.957 8  -6077539.20145  23789615.057    23789614.7434   23789637.5074
 -22079133.594 9 -17194528.57648  21280730.141    21280730.2474   21280741.9994
 -18199934.681 9 -14158468.16248  22013082.728    22013082.0114   22013095.2614
 -12414951.910 9  -9262132.19446  23085059.293    23085058.5564   23085076.7944
  -7132850.094 9  -5534647.45445  24168264.922    24168264.3104   24168290.7224
  -5072054.616 9  -3930128.37746  23917502.442    23917502.1984   23917518.3804
 -18255103.419 9 -13968333.03148  21617997.507    21617996.6324   21618008.5704
 -27650567.986 9 -21527977.33149  20663276.847    20663276.5414   20663287.0024
  -5020969.684 8  -3905500.32545  24892455.337    24892455.3224   24892471.0434
 00  4 19 22  1 19.0000000  0  9 26 30 17  5 23 24 10  6 13          0.000000035
  -7819019.096 9  -6078648.13445  23789344.255    23789343.9414   23789366.7064
 -22078080.772 9 -17193708.19648  21280930.478    21280930.5784   21280942.3424
 -18200775.172 9 -14159123.08748  22012922.806    22012922.0914   22012935.3414
 -12413240.734 9  -9260798.81146  23085384.922    23085384.1914   23085402.4244
  -7134588.904 9  -5536002.36045  24167934.026    24167933.4194   24167959.8214
  -5070808.945 9  -3929157.72646  23917739.493    23917739.2434   23917755.4344
 -18253986.943 9 -13967463.04948  21618209.979    21618209.1054   21618221.0424
 -27651243.628 9 -21528503.80449  20663148.274    20663147.9714   20663158.4344
  -5020813.683 9  -3905378.76645  24892485.044    24892485.0224   24892500.7574
 00  4 19 22  1 19.0000000  0  9 26 30 17  5 23 24 10  6 13          0.000000035
  -7820442.246 8  -6079757.07545  23789073.434    23789073.1184   23789095.8824
 -22077027.876 9 -17192887.75848  21281130.846    21281130.9494   21281142.7034
 -18201615.660 9 -14159778.00948  22012762.852    22012762.1324   22012775.3904
 -12411529.570 9  -9259465.43946  23085710.540    23085709.8054   23085728.0414
  -7136327.718 9  -5537357.27145  24167603.128    24167602.5184   24167628.9264
  -5069563.338 9  -3928187.12446  23917976.531    23917976.2894   23917992.4624
 -18252870.394 9 -13966593.00848  21618422.449    21618421.5784   21618433.5134
 -27651919.240 9 -21529030.25349  20663019.711    20663019.4094   20663029.8784
  -5020657.598 8  -3905257.14045  24892514.736    24892514.7114   24892530.4624
 00  4 19 22  1 20.0000000  0  9 26 30 17  5 23 24 10  6 13          0.000000034
  -7821865.416 8  -6080866.03245  23788802.594    23788802.2864   23788825.0384
 -22075974.914 9 -17192067.26948  21281331.224    21281331.3214   21281343.0834
 -18202456.150 9 -14160432.93448  22012602.920    22012602.2034   22012615.4564
 -12409818.443 9  -9258132.09646  23086036.175    23086035.4404   23086053.6794
  -7138066.572 9  -5538712.21145  24167272.228    24167271.6174   24167298.0234
  -5068317.773 9  -3927216.55846  23918213.550    23918213.3054   23918229.4684
 -18251753.775 9 -13965722.91748  21618634.923    21618634.0414   21618645.9914
 -27652594.817 9 -21529556.67749  20662891.161    20662890.8584   20662901.3244
  -5020501.412 8  -3905135.43645  24892544.456    24892544.4314   24892560.1884
 00  4 19 22  1 20.0000000  0  9 26 30 17  5 23 24 10  6 13          0.000000034
  -7823288.496 9  -6081974.91845  23788531.784    23788531.4744   23788554.2264
 -22074921.746 9 -17191246.61948  21281531.626    21281531.7224   21281543.4914
 -18203296.508 9 -14161087.75548  22012443.014    22012442.2934   22012455.5524
 -12408107.207 9  -9256798.67446  23086361.797    23086361.0644   23086379.3034
  -7139805.309 8  -5540067.06245  24166941.364    24166940.7574   24166967.1624
  -5067072.151 9  -3926245.94346  23918450.590    23918450.3514   23918466.5124
 -18250636.962 9 -13964852.67448  21618847.447    21618846.5644   21618858.5084
 -27653270.224 9 -21530082.96649  20662762.649    20662762.3474   20662772.8074
  -5020345.025 9  -3905013.57445  24892574.213    24892574.1904   24892589.9504
 00  4 19 22  1 21.0000000  0  9 26 30 17  5 23 24 10  6 13          0.000000033
  -7824711.559 8  -6083083.79345  23788260.978    23788260.6614   23788283.4134
 -22073868.448 9 -17190425.87248  21281732.077    21281732.1734   21281743.9384
 -18204136.804 9 -14161742.52948  22012283.092    22012282.3744   22012295.6324
 -12406395.928 9  -9255465.21846  23086687.464    23086686.7284   23086704.9634
  -7141544.008 9  -5541421.88345  24166610.503    24166609.8964   24166636.2934
  -5065826.535 9  -3925275.33446  23918687.624    23918687.3874   23918703.5364
 -18249520.023 9 -13963982.33448  21619060.012    21619059.1274   21619071.0744
 -27653945.556 9 -21530609.19749  20662634.113    20662633.8164   20662644.2734
  -5020188.496 9  -3904891.60445  24892604.000    24892603.9794   24892619.7454
 00  4 19 22  1 21.0000000  0  9 26 30 17  5 23 24 10  6 13          0.000000033
  -7826134.487 8  -6084192.56145  23787990.181    23787989.8684   23788012.6154
 -22072814.962 9 -17189604.97548  21281932.548    21281932.6454   21281944.4104
 -18204976.975 9 -14162397.20548  22012123.215    22012122.5054   22012135.7504
 -12404684.565 9  -9254131.69546  23087013.104    23087012.3734   23087030.6054
  -7143282.606 9  -5542776.62345  24166279.628    24166279.0154   24166305.4214
  -5064580.836 9  -3924304.66146  23918924.688    23918924.4534   23918940.5984
 -18248402.883 9 -13963111.83448  21619272.582    21619271.7004   21619283.6574
 -27654620.716 9 -21531135.29749  20662505.630    20662505.3254   20662515.7934
  -5020031.734 9  -3904769.45045  24892633.821    24892633.7894   24892649.5654
 00  4 19 22  1 22.0000000  0  9 26 30 17  5 23 24 10  6 13          0.000000032
  -7827557.498 8  -6085301.39545  23787719.384    23787719.0664   23787741.8144
 -22071761.405 9 -17188784.02548  21282133.030    21282133.1264   21282144.8944
 -18205817.155 9 -14163051.89448  22011963.334    22011962.6154   22011975.8744
 -12402973.226 9  -9252798.18946  23087338.767    23087338.0384   23087356.2734
  -7145021.247 9  -5544131.39745  24165948.786    24165948.1644   24165974.5774
  -5063335.212 9  -3923334.04946  23919161.723    23919161.4894   23919177.6324
 -18247285.684 9 -13962241.29148  21619485.166    21619484.2824   21619496.2424
 -27655295.855 9 -21531661.37849  20662377.166    20662376.8644   20662387.3264
  -5019874.912 9  -3904647.24945  24892663.656    24892663.6284   24892679.4054
 00  4 19 22  1 22.0000000  0  9 26 30 17  5 23 24 10  6 13          0.000000032
  -7828980.461 9  -6086410.19145  23787448.598    23787448.2744   23787471.0214
 -22070707.758 9 -17187963.00348  21282333.543    21282333.6474   21282345.4054
 -18206657.302 9 -14163706.55348  22011803.466    22011802.7564   22011816.0034
 -12401261.886 9  -9251464.68146  23087664.437    23087663.7124   23087681.9374
  -7146759.859 8  -5545486.15145  24165617.926    24165617.3034   24165643.7114
  -5062089.611 9  -3922363.45046  23919398.743    23919398.5144   23919414.6534
 -18246168.391 9 -13961370.67348  21619697.807    21619696.9354   21619708.8804
 -27655970.950 9 -21532187.42649  20662248.706    20662248.4034   20662258.8664
  -5019717.988 9  -3904524.97145  24892693.511    24892693.4874   24892709.2704
 00  4 19 22  1 23.0000000  0  9 26 30 17  5 23 24 10  6 13          0.000000031
  -7830403.397 8  -6087518.96745  23787177.812    23787177.4914   23787200.2414
 -22069653.968 9 -17187141.86948  21282534.079    21282534.1784   21282545.9444
 -18207497.374 9 -14164361.15248  22011643.588    22011642.8774   22011656.1284
 -12399550.493 9  -9250131.13846  23087990.108    23087989.3874   23088007.6094
  -7148498.438 8  -5546840.87845  24165287.080    24165286.4624   24165312.8654
  -5060843.990 9  -3921392.83746  23919635.790    23919635.5614   23919651.6924
 -18245050.946 9 -13960499.93748  21619910.424    21619909.5384   21619921.4994
 -27656645.916 9 -21532713.37349  20662120.255    20662119.9524   20662130.4174
  -5019560.885 9  -3904402.55245  24892723.415    24892723.3864   24892739.1804
 00  4 19 22  1 23.0000000  0  9 26 30 17  5 23 24 10  6 13          0.000000031
  -7831826.242 9  -6088627.66845  23786907.049    23786906.7284   23786929.4684
 -22068599.993 9 -17186320.59348  21282734.643    21282734.7394   21282746.5054
 -18208337.332 9 -14165015.66448  22011483.773    22011483.0584   22011496.3094
 -12397839.018 9  -9248797.52746  23088315.793    23088315.0824   23088333.2984
  -7150236.922 9  -5548195.53145  24164956.223    24164955.6014   24164982.0064
  -5059598.299 9  -3920422.16746  23919872.815    23919872.5874   23919888.7244
 -18243933.324 9 -13959629.06348  21620123.113    21620122.2414   21620134.1864
 -27657320.740 9 -21533239.21049  20661991.840    20661991.5414   20662001.9984
  -5019403.596 9  -3904279.98745  24892753.355    24892753.3264   24892769.1264
 00  4 19 22  1 24.0000000  0  9 26 30 17  5 23 24 10  6 13          0.000000031
  -7833249.067 9  -6089736.35845  23786636.292    23786635.9664   23786658.7084
 -22067545.905 9 -17185499.22548  21282935.205    21282935.3104   21282947.0714
 -18209177.240 9 -14165670.13548  22011323.928    22011323.2084   22011336.4614
 -12396127.524 9  -9247463.90846  23088641.492    23088640.7764   23088659.0054
  -7151975.382 9  -5549550.16645  24164625.427    24164624.8004   24164651.2064
  -5058352.633 9  -3919451.51846  23920109.876    23920109.6534   23920125.7904
 -18242815.593 9 -13958758.10648  21620335.793    21620334.9234   21620346.8744
 -27657995.495 9 -21533764.99349  20661863.438    20661863.1404   20661873.6024
  -5019246.161 9  -3904157.30845  24892783.303    24892783.2754   24892799.0834
 00  4 19 22  1 24.0000000  0  9 26 30 17  5 23 24 10  6 13          0.000000030
  -7834671.867 8  -6090845.02745  23786365.529    23786365.2034   23786387.9464
 -22066491.684 9 -17184677.75548  21283135.823    21283135.9214   21283147.6914
 -18210017.090 9 -14166324.56048  22011164.100    22011163.3894   22011176.6334
 -12394415.989 9  -9246130.25046  23088967.192    23088966.4714   23088984.7004
  -7153713.806 9  -5550904.77245  24164294.599    24164293.9784   24164320.3804
  -5057106.970 9  -3918480.87346  23920346.925    23920346.6984   23920362.8334
 -18241697.727 9 -13957887.04548  21620548.536    21620547.6664   21620559.6164
 -27658670.139 9 -21534290.68749  20661735.048    20661734.7494   20661745.2054
  -5019088.600 9  -3904034.53745  24892813.291    24892813.2644   24892829.0714
 00  4 19 22  1 25.0000000  0  9 26 30 17  5 23 24 10  6 13          0.000000030
  -7836094.658 9  -6091953.68845  23786094.788    23786094.4614   23786117.2074
 -22065437.362 9 -17183856.20848  21283336.471    21283336.5734   21283348.3374
 -18210856.905 9 -14166978.95948  22011004.285    22011003.5694   22011016.8204
 -12392704.444 9  -9244796.58546  23089292.882    23089292.1654   23089310.4014
  -7155452.209 9  -5552259.36145  24163963.782    24163963.1574   24163989.5644
  -5055861.309 9  -3917510.22646  23920583.942    23920583.7144   23920599.8394
 -18240579.758 9 -13957015.90148  21620761.284    21620760.4094   21620772.3684
 -27659344.723 9 -21534816.33749  20661606.674    20661606.3784   20661616.8344
  -5018930.908 8  -3903911.65845  24892843.300    24892843.2734   24892859.0804
 00  4 19 22  1 25.0000000  0  9 26 30 17  5 23 24 10  6 13          0.000000029
  -7837517.372 8  -6093062.29045  23785824.048    23785823.7184   23785846.4594
 -22064382.852 9 -17183034.51548  21283537.122    21283537.2244   21283548.9904
 -18211696.600 9 -14167633.26848  22010844.511    22010843.8004   22010857.0414
 -12390992.808 9  -9243462.85046  23089618.599    23089617.8804   23089636.1154
  -7157190.521 8  -5553613.88245  24163632.991    24163632.3664   24163658.7674
  -5054615.605 9  -3916539.55346  23920821.001    23920820.7614   23920836.9124
 -18239461.611 9 -13956144.61848  21620974.035    21620973.1624   21620985.1204
 -27660019.166 9 -21535341.87849  20661478.357    20661478.0564   20661488.5184
  -5018773.016 8  -3903788.62245  24892873.325    24892873.3034   24892889.1014
 00  4 19 22  1 26.0000000  0  9 26 30 17  5 23 24 10  6 13          0.000000029
  -7838940.033 9  -6094170.84945  23785553.320    23785552.9864   23785575.7284
 -22063328.230 9 -17182212.73348  21283737.817    21283737.9254   21283749.6834
 -18212536.249 9 -14168287.53748  22010684.727    22010684.0114   22010697.2564
 -12389281.151 9  -9242129.09546  23089944.327    23089943.6044   23089961.8474
  -7158928.827 8  -5554968.39745  24163302.194    24163301.5754   24163327.9714
  -5053369.892 9  -3915568.86646  23921058.069    23921057.8274   23921073.9744
 -18238343.337 9 -13955273.23948  21621186.851    21621185.9844   21621197.9364
 -27660693.514 9 -21535867.34149  20661350.021    20661349.7254   20661360.1844
  -5018614.991 8  -3903665.48245  24892903.386    24892903.3624   24892919.1624
 00  4 19 22  1 26.0000000  0  9 26 30 17  5 23 24 10  6 13          0.000000028
  -7840362.717 9  -6095279.42745  23785282.583    23785282.2434   23785304.9904
 -22062273.510 9 -17181390.87748  21283938.527    21283938.6264   21283950.3944
 -18213375.869 9 -14168941.78548  22010524.948    22010524.2414   22010537.4814
 -12387569.491 9  -9240795.34346  23090270.049    23090269.3194   23090287.5774
  -7160667.105 9  -5556322.88845  24162971.375    24162970.7554   24162997.1534
  -5052124.211 9  -3914598.20946  23921295.104    23921294.8634   23921311.0144
 -18237224.978 9 -13954401.78948  21621399.658    21621398.7874   21621410.7334
 -27661367.816 9 -21536392.77349  20661221.703    20661221.4044   20661231.8654
  -5018456.855 8  -3903542.26045  24892933.503    24892933.4914   24892949.2804
 00  4 19 22  1 27.0000000  0  9 26 30 17  5 23 24 10  6 13          0.000000028
  -7841785.310 9  -6096387.93545  23785011.856    23785011.5204   23785034.2674
 -22061218.632 9 -17180568.89648  21284139.276    21284139.3774   21284151.1444
 -18214215.392 9 -14169595.95848  22010365.203    22010364.4924   22010377.7314
 -12385857.758 9  -9239461.52846  23090595.771    23090595.0434   23090613.3044
  -7162405.327 9  -5557677.33745  24162640.596    24162639.9744   24162666.3744
  -5050878.490 9  -3913627.51946  23921532.166    23921531.9194   23921548.0594
 -18236106.449 9 -13953530.20948  21621612.497    21621611.6304   21621623.5844
 -27662041.995 9 -21536918.10749  20661093.405    20661093.1034   20661103.5704
  -5018298.531 9  -3903418.88845  24892963.602    24892963.5804   24892979.3754
 00  4 19 22  1 27.0000000  0  9 26 30 17  5 23 24 10  6 13          0.000000027
  -7843207.958 9  -6097496.48645  23784741.133    23784740.7884   23784763.5394
 -22060163.663 9 -17179746.84448  21284340.016    21284340.1184   21284351.8874
 -18215054.895 9 -14170250.11448  22010205.431    22010204.7224   22010217.9624
 -12384146.035 9  -9238127.72146  23090921.507    23090920.7784   23090939.0424
  -7164143.553 9  -5559031.78745  24162309.840    24162309.2234   24162335.6214
  -5049632.814 9  -3912656.86746  23921769.199    23921768.9444   23921785.0984
 -18234987.842 9 -13952658.56648  21621825.391    21621824.5224   21621836.4764
 -27662716.115 9 -21537443.39449  20660965.135    20660964.8324   20660975.3034
  -5018140.108 9  -3903295.43845  24892993.753    24892993.7294   24893009.5254
 00  4 19 22  1 28.0000000  0  9 26 30 17  5 23 24 10  6 13          0.000000027
  -7844630.567 8  -6098605.00645  23784470.412    23784470.0654   23784492.8144
 -22059108.585 9 -17178924.70748  21284540.794    21284540.8994   21284552.6644
 -18215894.358 9 -14170904.23948  22010045.696    22010044.9934   22010058.2264
 -12382434.298 9  -9236793.90746  23091247.247    23091246.5224   23091264.7784
  -7165881.766 8  -5560386.23045  24161979.060    24161978.4424   24162004.8374
  -5048387.151 9  -3911686.22346  23922006.239    23922005.9804   23922022.1314
 -18233869.124 9 -13951786.83948  21622038.262    21622037.3954   21622049.3444
 -27663390.172 9 -21537968.63349  20660836.859    20660836.5614   20660847.0254
  -5017981.573 9  -3903171.89945  24893023.918    24893023.9084   24893039.6974
 00  4 19 22  1 28.0000000  0  9 26 30 17  5 23 24 10  6 13          0.000000027
  -7846053.109 8  -6099713.47445  23784199.714    23784199.3624   23784222.1164
 -22058053.317 9 -17178102.42348  21284741.607    21284741.7104   21284753.4794
 -18216733.700 9 -14171558.26848  22009885.974    22009885.2644   22009898.4974
 -12380722.462 9  -9235460.01446  23091572.999    23091572.2764   23091590.5314
  -7167619.874 9  -5561740.58845  24161648.300    24161647.6814   24161674.0724
  -5047141.440 9  -3910715.54646  23922243.313    23922243.0564   23922259.1954
 -18232750.225 9 -13950914.97048  21622251.185    21622250.3174   21622262.2734
 -27664064.084 9 -21538493.76049  20660708.602    20660708.3004   20660718.7724
  -5017822.841 9  -3903048.21045  24893054.147    24893054.1374   24893069.9244
 00  4 19 22  1 29.0000000  0  9 26 30 17  5 23 24 10  6 13          0.000000026
  -7847475.566 8  -6100821.87545  23783929.008    23783928.6604   23783951.4014
 -22056997.894 9 -17177280.01748  21284942.437    21284942.5414   21284954.3074
 -18217572.938 9 -14172212.22048  22009726.267    22009725.5644   22009738.7884
 -12379010.559 9  -9234126.06946  23091898.786    23091898.0614   23091916.3124
  -7169357.907 9  -5563094.88945  24161317.554    24161316.9404   24161343.3264
  -5045895.662 9  -3909744.81146  23922480.370    23922480.1124   23922496.2514
 -18231631.164 9 -13950042.97748  21622464.125    21622463.2604   21622475.2124
 -27664737.854 9 -21539018.77349  20660580.413    20660580.1084   20660590.5804
  -5017663.905 9  -3902924.36045  24893084.380    24893084.3764   24893100.1544
 00  4 19 22  1 29.0000000  0  9 26 30 17  5 23 24 10  6 13          0.000000026
  -7848898.087 8  -6101930.32545  23783658.323    23783657.9774   23783680.7214
 -22055942.419 9 -17176457.56948  21285143.288    21285143.3924   21285155.1584
 -18218412.202 9 -14172866.19148  22009566.571    22009565.8654   22009579.1004
 -12377298.709 9  -9232792.16746  23092224.539    23092223.8154   23092242.0704
  -7171096.010 9  -5564449.24445  24160986.780    24160986.1584   24161012.5594
  -5044649.980 9  -3908774.15346  23922717.402    23922717.1484   23922733.2864
 -18230512.060 9 -13949170.94848  21622677.076    21622676.2134   21622688.1624
 -27665411.620 9 -21539543.78549  20660452.187    20660451.8874   20660462.3584
  -5017504.910 9  -3902800.46345  24893114.622    24893114.6054   24893130.3924
 00  4 19 22  1 30.0000000  0  9 26 30 17  5 23 24 10  6 13          0.000000025
  -7850320.482 9  -6103038.67745  23783387.650    23783387.3044   23783410.0474
 -22054886.722 9 -17175634.95148  21285344.190    21285344.2934   21285356.0634
 -18219251.308 9 -14173520.03748  22009406.876    22009406.1654   22009419.4004
 -12375586.718 9  -9231458.15646  23092550.303    23092549.5894   23092567.8394
  -7172833.956 9  -5565803.47845  24160656.057    24160655.4384   24160681.8294
  -5043404.185 9  -3907803.40846  23922954.475    23922954.2234   23922970.3624
 -18229392.737 9 -13948298.75048  21622890.088    21622889.2254   21622901.1744
 -27666085.212 9 -21540068.66349  20660323.994    20660323.6864   20660334.1574
  -5017345.701 9  -3902676.40345  24893144.912    24893144.9054   24893160.6794
 00  4 19 22  1 30.0000000  0  9 26 30 17  5 23 24 10  6 13          0.000000025
  -7851742.920 9  -6104147.06445  23783116.957    23783116.6124   23783139.3544
 -22053830.968 9 -17174812.28748  21285545.112    21285545.2144   21285556.9894
 -18220090.420 9 -14174173.88848  22009247.213    22009246.5064   22009259.7404
 -12373874.784 9  -9230124.18546  23092876.095    23092875.3844   23092893.6354
  -7174571.929 9  -5567157.73445  24160325.316    24160324.6974   24160351.0904
  -5042158.469 9  -3906832.72546  23923191.520    23923191.2594   23923207.4004
 -18228273.359 9 -13947426.50948  21623103.113    21623102.2384   21623114.2024
 -27666758.764 9 -21540593.50749  20660195.825    20660195.5244   20660205.9884
  -5017186.407 9  -3902552.27945  24893175.251    24893175.2434   24893191.0164
 00  4 19 22  1 31.0000000  0  9 26 30 17  5 23 24 10  6 13          0.000000025
  -7853165.256 9  -6105255.37145  23782846.292    23782845.9394   23782868.6854
 -22052775.017 9 -17173989.47348  21285746.055    21285746.1544   21285757.9274
 -18220929.409 9 -14174827.64548  22009087.540    22009086.8264   22009100.0624
 -12372162.743 9  -9228790.13446  23093201.892    23093201.1794   23093219.4274
  -7176309.815 9  -5568511.91945  24159994.601    24159993.9864   24160020.3754
  -5040912.672 9  -3905861.97846  23923428.610    23923428.3454   23923444.4924
 -18227153.795 9 -13946554.12248  21623316.154    21623315.2804   21623327.2484
 -27667432.165 9 -21541118.23449  20660067.673    20660067.3734   20660077.8364
  -5017026.894 8  -3902427.98245  24893205.591    24893205.5834   24893221.3524
 00  4 19 22  1 31.0000000  0  9 26 30 17  5 23 24 10  6 13          0.000000024
  -7854587.581 9  -6106363.66945  23782575.634    23782575.2864   23782598.0304
 -22051718.955 9 -17173166.56948  21285947.018    21285947.1154   21285958.8904
 -18221768.345 9 -14175481.36148  22008927.908    22008927.1974   22008940.4304
 -12370450.675 9  -9227456.06546  23093527.673    23093526.9634   23093545.2074
  -7178047.677 8  -5569866.08845  24159663.898    24159663.2744   24159689.6664
  -5039666.889 9  -3904891.24246  23923665.667    23923665.4114   23923681.5554
 -18226034.117 9 -13945681.64648  21623529.227    21623528.3534   21623540.3224
 -27668105.503 9 -21541642.91149  20659939.560    20659939.2624   20659949.7324
  -5016867.276 9  -3902303.60545  24893235.956    24893235.9424   24893251.7164
 00  4 19 22  1 32.0000000  0  9 26 30 17  5 23 24 10  6 13          0.000000024
  -7856009.916 9  -6107471.97645  23782304.947    23782304.6044   23782327.3424
 -22050662.821 9 -17172343.60948  21286147.984    21286148.0864   21286159.8544
 -18222607.284 9 -14176135.07648  22008768.251    22008767.5374   22008780.7714
 -12368738.638 9  -9226122.01246  23093853.470    23093852.7684   23093870.9984
  -7179785.559 9  -5571220.27045  24159333.179    24159332.5534   24159358.9544
  -5038421.150 9  -3903920.54146  23923902.720    23923902.4474   23923918.6004
 -18224914.376 9 -13944809.12148  21623742.283    21623741.4054   21623753.3744
 -27668778.788 9 -21542167.54949  20659811.429    20659811.1304   20659821.6114
  -5016707.543 8  -3902179.13545  24893266.354    24893266.3414   24893282.1054
 00  4 19 22  1 32.0000000  0  9 26 30 17  5 23 24 10  6 13          0.000000023
  -7857432.193 8  -6108580.24145  23782034.310    23782033.9614   23782056.7054
 -22049606.499 9 -17171520.50148  21286348.983    21286349.0874   21286360.8614
 -18223446.101 9 -14176788.70148  22008608.630    22008607.9184   22008621.1494
 -12367026.515 9  -9224787.89746  23094179.284    23094178.5724   23094196.8144
  -7181523.338 9  -5572574.37345  24159002.487    24159001.8624   24159028.2634
  -5037175.368 9  -3902949.80346  23924139.786    23924139.5134   23924155.6664
 -18223794.460 9 -13943936.45948  21623955.402    21623954.5384   21623966.5044
 -27669451.933 9 -21542692.07549  20659683.331    20659683.0294   20659693.4994
  -5016547.614 9  -3902054.51445  24893296.802    24893296.7904   24893312.5424
 00  4 19 22  1 33.0000000  0  9 26 30 17  5 23 24 10  6 13          0.000000023
  -7858854.460 8  -6109688.49745  23781763.647    23781763.2984   23781786.0364
 -22048550.065 9 -17170697.30648  21286550.027    21286550.1284   21286561.9044
 -18224284.870 9 -14177442.28248  22008449.017    22008448.3084   22008461.5394
 -12365314.364 9  -9223453.76146  23094505.104    23094504.3974   23094522.6354
  -7183261.107 8  -5573928.46945  24158671.788    24158671.1614   24158697.5554
  -5035929.600 9  -3901979.07646  23924376.845    23924376.5694   23924392.7344
 -18222674.433 9 -13943063.70948  21624168.552    21624167.6804   21624179.6544
 -27670125.014 9 -21543216.55449  20659555.245    20659554.9384   20659565.4234
  -5016387.556 8  -3901929.79245  24893327.254    24893327.2394   24893342.9934
 00  4 19 22  1 33.0000000  0  9 26 30 17  5 23 24 10  6 13          0.000000023
  -7860276.712 8  -6110796.73745  23781493.004    23781492.6564   23781515.4014
 -22047493.484 9 -17169873.99748  21286751.096    21286751.1994   21286762.9734
 -18225123.558 9 -14178095.80348  22008289.413    22008288.6994   22008301.9434
 -12363602.171 9  -9222119.59146  23094830.931    23094830.2214   23094848.4634
  -7184998.815 9  -5575282.51745  24158341.112    24158340.4904   24158366.8864
  -5034683.780 9  -3901008.31346  23924613.918    23924613.6454   23924629.8044
 -18221554.272 9 -13942190.85848  21624381.712    21624380.8424   21624392.8174
 -27670797.968 9 -21543740.93349  20659427.202    20659426.8964   20659437.3724
  -5016227.349 9  -3901804.95645  24893357.741    24893357.7184   24893373.4684
 00  4 19 22  1 34.0000000  0  9 26 30 17  5 23 24 10  6 13          0.000000022
  -7861698.952 8  -6111904.96945  23781222.349    23781222.0034   23781244.7414
 -22046436.835 9 -17169050.63648  21286952.153    21286952.2594   21286964.0364
 -18225962.242 9 -14178749.32148  22008129.832    22008129.1194   22008142.3534
 -12361890.002 9  -9220785.43946  23095156.754    23095156.0464   23095174.2864
  -7186736.544 9  -5576636.58145  24158010.424    24158009.7994   24158036.1904
  -5033438.038 9  -3900037.60346  23924850.995    23924850.7114   23924866.8784
 -18220434.047 9 -13941317.95648  21624594.866    21624593.9954   21624605.9674
 -27671470.901 9 -21544265.29749  20659299.131    20659298.8254   20659309.3064
  -5016067.040 9  -3901680.03845  24893388.227    24893388.2074   24893403.9574
 00  4 19 22  1 34.0000000  0  9 26 30 17  5 23 24 10  6 13          0.000000022
  -7863121.080 8  -6113013.11445  23780951.722    23780951.3804   23780974.1214
 -22045379.953 9 -17168227.09348  21287153.294    21287153.4004   21287165.1754
 -18226800.766 9 -14179402.71648  22007970.253    22007969.5404   22007982.7764
 -12360177.693 9  -9219451.17246  23095482.606    23095481.8904   23095500.1424
  -7188474.138 9  -5577990.54045  24157679.766    24157679.1474   24157705.5314
  -5032192.200 9  -3899066.82046  23925088.043    23925087.7574   23925103.9324
 -18219313.602 9 -13940444.88548  21624808.086    21624807.2174   21624819.1894
 -27672143.652 9 -21544789.51849  20659171.108    20659170.8044   20659181.2844
  -5015906.510 9  -3901554.95045  24893418.796    24893418.7664   24893434.5124
 00  4 19 22  1 35.0000000  0  9 26 30 17  5 23 24 10  6 13          0.000000022
  -7864543.151 9  -6114121.21445  23780681.105    23780680.7684   23780703.5054
 -22044322.946 9 -17167403.45548  21287354.434    21287354.5414   21287366.3144
 -18227639.219 9 -14180056.05648  22007810.707    22007810.0004   22007823.2274
 -12358465.371 9  -9218116.89846  23095808.430    23095807.7154   23095825.9694
  -7190211.713 9  -5579344.48645  24157349.087    24157348.4664   24157374.8504
  -5030946.323 9  -3898096.01046  23925325.137    23925324.8524   23925341.0284
 -18218193.038 9 -13939571.72148  21625021.312    21625020.4504   21625032.4084
 -27672816.302 9 -21545313.66049  20659043.101    20659042.8024   20659053.2754
  -5015745.822 9  -3901429.73745  24893449.370    24893449.3344   24893465.0864
 00  4 19 22  1 35.0000000  0  9 26 30 17  5 23 24 10  6 13          0.000000021
  -7865965.333 9  -6115229.40146  23780410.452    23780410.1154   23780432.8534
 -22043265.933 9 -17166579.80948  21287555.588    21287555.6924   21287567.4734
 -18228477.747 9 -14180709.45448  22007651.143    22007650.4314   22007663.6604
 -12356753.140 9  -9216782.70046  23096134.274    23096133.5594   23096151.8204
  -7191949.370 9  -5580698.49645  24157018.408    24157017.7954   24157044.1614
  -5029700.587 9  -3897125.30746  23925562.200    23925561.9184   23925578.0964
 -18217072.477 9 -13938698.55648  21625234.560    21625233.6924   21625245.6604
 -27673488.991 9 -21545837.83249  20658915.088    20658914.7914   20658925.2644
  -5015585.106 8  -3901304.50245  24893479.946    24893479.9134   24893495.6514
 00  4 19 22  1 36.0000000  0  9 26 30 17  5 23 24 10  6 13          0.000000021
  -7867387.327 9  -6116337.44046  23780139.846    23780139.5124   23780162.2434
 -22042208.625 9 -17165755.93548  21287756.763    21287756.8724   21287768.6464
 -18229316.046 9 -14181362.67148  22007491.625    22007490.9214   22007504.1454
 -12355040.703 9  -9215448.34146  23096460.153    23096459.4334   23096477.7094
  -7193686.810 9  -5582052.33645  24156687.788    24156687.1844   24156713.5394
  -5028454.708 9  -3896154.49446  23925799.276    23925798.9944   23925815.1774
 -18215951.641 9 -13937825.18048  21625447.859    21625446.9944   21625458.9554
 -27674161.441 9 -21546361.82049  20658787.148    20658786.8494   20658797.3294
  -5015424.088 8  -3901179.03345  24893510.577    24893510.5324   24893526.2744
 00  4 19 22  1 36.0000000  0  9 26 30 17  5 23 24 10  6 13          0.000000021
  -7868809.363 8  -6117445.51446  23779869.257    23779868.9304   23779891.6554
 -22041151.257 9 -17164932.01548  21287957.986    21287958.0934   21287969.8724
 -18230154.342 9 -14182015.88748  22007332.103    22007331.4014   22007344.6254
 -12353328.300 9  -9214114.00846  23096786.004    23096785.2784   23096803.5544
  -7195424.280 8  -5583406.19745  24156357.138    24156356.5434   24156382.8914
  -5027208.841 9  -3895183.69146  23926036.361    23926036.0804   23926052.2674
 -18214830.740 9 -13936951.75148  21625661.142    21625660.2774   21625672.2314
 -27674833.848 9 -21546885.77349  20658659.165    20658658.8684   20658669.3434
  -5015262.969 9  -3901053.48545  24893541.234    24893541.1914   24893556.9324
 00  4 19 22  1 37.0000000  0  9 26 30 17  5 23 24 10  6 13          0.000000020
  -7870231.463 8  -6118553.63745  23779598.631    23779598.3074   23779621.0304
 -22040093.823 9 -17164108.04148  21288159.223    21288159.3344   21288171.1074
 -18230992.638 9 -14182669.10248  22007172.582    22007171.8824   22007185.0994
 -12351615.924 9  -9212779.69446  23097111.853    23097111.1234   23097129.4144
  -7197161.793 9  -5584760.09145  24156026.505    24156025.9124   24156052.2444
  -5025963.065 9  -3894212.95946  23926273.412    23926273.1264   23926289.3214
 -18213709.788 9 -13936078.28448  21625874.461    21625873.5994   21625885.5564
 -27675506.236 9 -21547409.71049  20658531.224    20658530.9274   20658541.4174
  -5015101.828 9  -3900927.91945  24893571.891    24893571.8394   24893587.5764
 00  4 19 22  1 37.0000000  0  9 26 30 17  5 23 24 10  6 13          0.000000020
  -7871653.402 8  -6119661.63345  23779328.028    23779327.7044   23779350.4304
 -22039036.139 9 -17163283.87648  21288360.491    21288360.5944   21288372.3784
 -18231830.759 9 -14183322.18448  22007013.087    22007012.3834   22007025.6074
 -12349903.394 9  -9211445.26246  23097437.743    23097437.0074   23097455.3024
  -7198899.141 9  -5586113.85945  24155695.886    24155695.3014   24155721.6304
  -5024717.158 9  -3893242.12446  23926510.514    23926510.2314   23926526.4364
 -18212588.593 9 -13935204.62548  21626087.820    21626086.9424   21626098.9214
 -27676178.420 9 -21547933.49049  20658403.317    20658403.0354   20658413.5104
  -5014940.372 9  -3900802.10745  24893602.612    24893602.5584   24893618.2944
 00  4 19 22  1 38.0000000  0  9 26 30 17  5 23 24 10  6 13          0.000000020
  -7873075.365 8  -6120769.64846  23779057.430    23779057.1124   23779079.8244
 -22037978.380 9 -17162459.64848  21288561.757    21288561.8654   21288573.6444
 -18232668.863 9 -14183975.25048  22006853.591    22006852.8834   22006866.1054
 -12348190.890 9  -9210110.84946  23097763.654    23097762.9214   23097781.2044
  -7200636.487 8  -5587467.62545  24155365.286    24155364.7104   24155391.0184
  -5023471.286 9  -3892271.31446  23926747.589    23926747.3074   23926763.5164
 -18211467.333 9 -13934330.91448  21626301.188    21626300.3244   21626312.2904
 -27676850.556 9 -21548457.23049  20658275.398    20658275.1144   20658285.5864
  -5014778.821 8  -3900676.22045  24893633.349    24893633.2974   24893649.0304
 00  4 19 22  1 38.0000000  0  9 26 30 17  5 23 24 10  6 13          0.000000020
  -7874497.282 9  -6121877.62946  23778786.864    23778786.5494   23778809.2614
 -22036920.472 9 -17161635.30648  21288763.081    21288763.1864   21288774.9654
 -18233506.894 9 -14184628.25848  22006694.135    22006693.4244   22006706.6514
 -12346478.331 9  -9208776.39146  23098089.520    23098088.7864   23098107.0744
  -7202373.799 8  -5588821.36345  24155034.660    24155034.0884   24155060.3994
  -5022225.385 9  -3891300.48446  23926984.672    23926984.3934   23927000.6064
 -18210345.935 9 -13933457.09848  21626514.579    21626513.7164   21626525.6764
 -27677522.589 9 -21548980.89249  20658147.531    20658147.2424   20658157.7254
  -5014617.138 9  -3900550.23245  24893664.129    24893664.0764   24893679.8054
 00  4 19 22  1 39.0000000  0  9 26 30 17  5 23 24 10  6 13          0.000000019
  -7875919.169 9  -6122985.58646  23778516.281    23778515.9664   23778538.6794
 -22035862.440 9 -17160810.86748  21288964.411    21288964.5164   21288976.3034
 -18234344.866 9 -14185281.21948  22006534.666    22006533.9544   22006547.1754
 -12344765.745 9  -9207441.91146  23098415.440    23098414.7004   23098432.9924
  -7204111.072 9  -5590175.07245  24154704.065    24154703.4974   24154729.7974
  -5020979.510 9  -3890329.67746  23927221.762    23927221.4894   23927237.6904
 -18209224.422 9 -13932583.19048  21626727.999    21626727.1184   21626739.1054
 -27678194.549 9 -21549504.49749  20658019.654    20658019.3714   20658029.8444
  -5014455.308 8  -3900424.12845  24893694.908    24893694.8444   24893710.5744
 00  4 19 22  1 39.0000000  0  9 26 30 17  5 23 24 10  6 13          0.000000019
  -7877341.149 9  -6124093.61346  23778245.665    23778245.3544   23778268.0684
 -22034804.407 9 -17159986.42748  21289165.760    21289165.8674   21289177.6504
 -18235182.905 9 -14185934.23348  22006375.178    22006374.4644   22006387.6934
 -12343053.261 9  -9206107.51446  23098741.323    23098740.5844   23098758.8754
  -7205848.435 9  -5591528.85445  24154373.456    24154372.8964   24154399.1784
  -5019733.740 9  -3889358.95046  23927458.825    23927458.5454   23927474.7594
 -18208102.927 9 -13931709.29948  21626941.431    21626940.5514   21626952.5344
 -27678866.534 9 -21550028.12249  20657891.783    20657891.4994   20657901.9644
  -5014293.479 8  -3900298.02445  24893725.709    24893725.6624   24893741.3724
 00  4 19 22  1 40.0000000  0  9 26 30 17  5 23 24 10  6 13          0.000000018
  -7878762.988 9  -6125201.53246  23777975.098    23777974.7914   23777997.4974
 -22033746.128 9 -17159161.79748  21289367.162    21289367.2684   21289379.0444
 -18236020.771 9 -14186587.11648  22006215.738    22006215.0254   22006228.2494
 -12341340.637 9  -9204773.01046  23099067.229    23099066.4894   23099084.7924
  -7207585.662 9  -5592882.52645  24154042.852    24154042.2954   24154068.5794
  -5018487.846 9  -3888388.12746  23927695.912    23927695.6314   23927711.8514
 -18206981.188 9 -13930835.21948  21627154.883    21627154.0034   21627165.9834
 -27679538.325 9 -21550551.59349  20657763.945    20657763.6684   20657774.1284
  -5014131.349 9  -3900171.68945  24893756.572    24893756.5214   24893772.2344
 00  4 19 22  1 40.0000000  0  9 26 30 17  5 23 24 10  6 13          0.000000018
  -7880184.815 8  -6126309.44246  23777704.519    23777704.2184   23777726.9134
 -22032687.736 9 -17158337.07948  21289568.563    21289568.6684   21289580.4504
 -18236858.589 9 -14187239.95948  22006056.317    22006055.6054   22006068.8304
 -12339627.971 9  -9203438.47446  23099393.127    23099392.3834   23099410.6904
  -7209322.850 9  -5594236.16945  24153712.257    24153711.7044   24153737.9744
  -5017241.987 9  -3887417.32946  23927932.988    23927932.6974   23927948.9184
 -18205859.352 9 -13929961.06348  21627368.373    21627367.4954   21627379.4694
 -27680210.052 9 -21551075.01749  20657636.117    20657635.8364   20657646.3124
  -5013969.129 9  -3900045.28245  24893787.427    24893787.3804   24893803.0924
 00  4 19 22  1 41.0000000  0  9 26 30 17  5 23 24 10  6 13          0.000000018
  -7881606.592 8  -6127417.31646  23777433.968    23777433.6654   23777456.3594
 -22031629.148 9 -17157512.20648  21289769.996    21289770.0994   21289781.8834
 -18237696.278 9 -14187892.70348  22005896.898    22005896.1854   22005909.4014
 -12337915.239 9  -9202103.88146  23099719.049    23099718.3074   23099736.6224
  -7211059.942 9  -5595589.74045  24153381.693    24153381.1434   24153407.4094
  -5015996.032 9  -3886446.45846  23928170.093    23928169.8034   23928186.0264
 -18204737.332 9 -13929086.76348  21627581.887    21627581.0074   21627592.9834
 -27680881.619 9 -21551598.31549  20657508.322    20657508.0454   20657518.5184
  -5013806.703 9  -3899918.71545  24893818.340    24893818.2884   24893834.0024
 00  4 19 22  1 41.0000000  0  9 26 30 17  5 23 24 10  6 13          0.000000018
  -7883028.351 8  -6128525.17346  23777163.404    23777163.1034   23777185.7994
 -22030570.448 9 -17156687.24748  21289971.477    21289971.5794   21289983.3614
 -18238533.929 9 -14188545.41548  22005737.498    22005736.7864   22005750.0044
 -12336202.484 9  -9200769.27346  23100045.000    23100044.2614   23100062.5724
  -7212797.021 9  -5596943.29845  24153051.117    24153050.5724   24153076.8294
  -5014750.101 9  -3885475.60746  23928407.175    23928406.8984   23928423.1134
 -18203615.199 9 -13928212.37748  21627795.411    21627794.5294   21627806.5084
 -27681553.113 9 -21552121.55649  20657380.536    20657380.2534   20657390.7364
  -5013644.114 8  -3899792.02145  24893849.273    24893849.2174   24893864.9354
 00  4 19 22  1 42.0000000  0  9 26 30 17  5 23 24 10  6 13          0.000000017
  -7884450.120 8  -6129633.03846  23776892.841    23776892.5504   23776915.2344
 -22029511.657 9 -17155862.21748  21290172.950    21290173.0504   21290184.8384
 -18239371.556 9 -14189198.11248  22005578.119    22005577.4064   22005590.6244
 -12334489.730 9  -9199434.66946  23100370.905    23100370.1654   23100388.4844
  -7214534.074 9  -5598296.83745  24152720.571    24152720.0304   24152746.2864
  -5013504.208 9  -3884504.78546  23928644.284    23928644.0044   23928660.2174
 -18202492.992 9 -13927337.92948  21628008.952    21628008.0624   21628020.0524
 -27682224.572 9 -21552644.77049  20657252.753    20657252.4724   20657262.9544
  -5013481.465 9  -3899665.28045  24893880.216    24893880.1664   24893895.8784
 00  4 19 22  1 42.0000000  0  9 26 30 17  5 23 24 10  6 13          0.000000017
  -7885871.784 9  -6130740.82145  23776622.301    23776622.0174   23776644.6904
 -22028452.674 9 -17155037.03848  21290374.468    21290374.5704   21290386.3514
 -18240209.054 9 -14189850.70548  22005418.741    22005418.0264   22005431.2454
 -12332776.874 9  -9198099.98346  23100696.862    23100696.1304   23100714.4464
  -7216271.047 8  -5599650.31245  24152390.022    24152389.4894   24152415.7334
  -5012258.234 9  -3883533.89646  23928881.357    23928881.0804   23928897.2974
 -18201370.600 9 -13926463.33948  21628222.542    21628221.6644   21628233.6424
 -27682895.865 9 -21553167.85649  20657125.018    20657124.7304   20657135.2214
  -5013318.598 8  -3899538.36745  24893911.218    24893911.1644   24893926.8834
 00  4 19 22  1 43.0000000  0  9 26 30 17  5 23 24 10  6 13          0.000000017
  -7887293.440 9  -6131848.59846  23776351.770    23776351.4854   23776374.1674
 -22027393.589 9 -17154211.77848  21290576.011    21290576.1114   21290587.8964
 -18241046.516 9 -14190503.27148  22005259.360    22005258.6474   22005271.8664
 -12331064.035 9  -9196765.31546  23101022.802    23101022.0754   23101040.3844
  -7218007.980 8  -5601003.75845  24152059.486    24152058.9584   24152085.1944
  -5011012.275 9  -3882563.02646  23929118.476    23929118.2064   23929134.4174
 -18200248.122 9 -13925588.67948  21628436.148    21628435.2764   21628447.2574
 -27683567.109 9 -21553690.90249  20656997.290    20656997.0194   20657007.4924
  -5013155.617 9  -3899411.37045  24893942.229    24893942.1734   24893957.8924
 00  4 19 22  1 43.0000000  0  9 26 30 17  5 23 24 10  6 13          0.000000017
  -7888715.018 9  -6132956.31545  23776081.244    23776080.9624   23776103.6414
 -22026334.315 9 -17153386.37248  21290777.593    21290777.6914   21290789.4804
 -18241883.856 9 -14191155.74348  22005100.023    22005099.3074   22005112.5314
 -12329351.088 9  -9195430.55946  23101348.792    23101348.0694   23101366.3734
  -7219744.847 8  -5602357.15145  24151728.961    24151728.4374   24151754.6704
  -5009766.266 9  -3881592.11446  23929355.576    23929355.3124   23929371.5234
 -18199125.458 9 -13924713.87848  21628649.778    21628648.9084   21628660.8834
 -27684238.207 9 -21554213.83449  20656869.586    20656869.3074   20656879.7874
  -5012992.451 9  -3899284.22345  24893973.267    24893973.2114   24893988.9384
 00  4 19 22  1 44.0000000  0  9 26 30 17  5 23 24 10  6 13          0.000000016
  -7890136.685 8  -6134064.10145  23775810.688    23775810.4094   23775833.0874
 -22025275.025 9 -17152560.95248  21290979.160    21290979.2624   21290991.0474
 -18242721.245 9 -14191808.25348  22004940.672    22004939.9574   22004953.1744
 -12327638.237 9  -9194095.87546  23101674.734    23101674.0034   23101692.3144
  -7221481.768 9  -5603710.58545  24151398.433    24151397.9164   24151424.1334
  -5008520.345 9  -3880621.27146  23929592.673    23929592.4084   23929608.6244
 -18198002.783 9 -13923839.06848  21628863.424    21628862.5504   21628874.5354
 -27684909.321 9 -21554736.78049  20656741.850    20656741.5654   20656752.0584
  -5012829.216 9  -3899157.02545  24894004.329    24894004.2804   24894020.0004
 00  4 19 22  1 44.0000000  0  9 26 30 17  5 23 24 10  6 13          0.000000016
  -7891558.345 8  -6135171.88345  23775540.165    23775539.8964   23775562.5564
 -22024215.630 9 -17151735.45248  21291180.746    21291180.8424   21291192.6294
 -18243558.591 9 -14192460.72948  22004781.352    22004780.6384   22004793.8564
 -12325925.363 9  -9192761.17746  23102000.694    23101999.9674   23102018.2714
  -7223218.689 9  -5605064.02045  24151067.889    24151067.3754   24151093.5824
  -5007274.461 9  -3879650.45346  23929829.765    23929829.4944   23929845.7164
 -18196880.016 9 -13922964.18648  21629077.071    21629076.1824   21629088.1744
 -27685580.376 9 -21555259.68149  20656614.160    20656613.8744   20656624.3684
  -5012665.874 9  -3899029.74645  24894035.407    24894035.3584   24894051.0704
 00  4 19 22  1 45.0000000  0  9 26 30 17  5 23 24 10  6 13          0.000000016
  -7892979.879 8  -6136279.56645  23775269.639    23775269.3744   23775292.0324
 -22023156.004 9 -17150909.77148  21291382.392    21291382.4924   21291394.2754
 -18244395.782 9 -14193113.08448  22004622.036    22004621.3184   22004634.5344
 -12324212.373 9  -9191426.38246  23102326.669    23102325.9514   23102344.2494
  -7224955.453 9  -5606417.33245  24150737.381    24150736.8644   24150763.0704
  -5006028.468 9  -3878679.55046  23930066.841    23930066.5704   23930082.8084
 -18195757.019 9 -13922089.12548  21629290.788    21629289.9144   21629301.8904
 -27686251.253 9 -21555782.44149  20656486.514    20656486.2324   20656496.7164
  -5012502.287 9  -3898902.27445  24894066.535    24894066.4874   24894082.2124
 00  4 19 22  1 45.0000000  0  9 26 30 17  5 23 24 10  6 13          0.000000016
  -7894401.389 8  -6137387.22945  23774999.144    23774998.8814   23775021.5404
 -22022096.264 9 -17150084.00348  21291584.072    21291584.1634   21291595.9544
 -18245232.918 9 -14193765.39548  22004462.715    22004461.9984   22004475.2134
 -12322499.367 9  -9190091.57946  23102652.647    23102651.9264   23102670.2384
  -7226692.183 9  -5607770.61845  24150406.888    24150406.3734   24150432.5734
  -5004782.470 9  -3877708.64546  23930303.963    23930303.6954   23930319.9304
 -18194633.931 9 -13921213.99248  21629504.500    21629503.6164   21629515.6104
 -27686922.045 9 -21556305.13549  20656358.852    20656358.5714   20656369.0454
  -5012338.605 9  -3898774.72845  24894097.696    24894097.6554   24894113.3744
 00  4 19 22  1 46.0000000  0  9 26 30 17  5 23 24 10  6 13          0.000000015
  -7895822.891 8  -6138494.88745  23774728.618    23774728.3594   23774751.0124
 -22021036.376 9 -17149258.11748  21291785.751    21291785.8434   21291797.6324
 -18246069.970 9 -14194417.64048  22004303.451    22004302.7284   22004315.9454
 -12320786.300 9  -9188756.72446  23102978.639    23102977.9204   23102996.2304
  -7228428.882 9  -5609123.88245  24150076.389    24150075.8814   24150102.0784
  -5003536.470 9  -3876737.73746  23930541.061    23930540.8014   23930557.0324
 -18193510.701 9 -13920338.75048  21629718.252    21629717.3684   21629729.3564
 -27687592.736 9 -21556827.75149  20656231.213    20656230.9394   20656241.4144
  -5012174.708 9  -3898647.01345  24894128.861    24894128.8134   24894144.5484
 00  4 19 22  1 46.0000000  0  9 26 30 17  5 23 24 10  6 13          0.000000015
  -7897244.376 8  -6139602.52945  23774458.110    23774457.8464   23774480.5074
 -22019976.378 9 -17148432.14648  21291987.459    21291987.5544   21291999.3404
 -18246906.985 9 -14195069.85948  22004144.162    22004143.4494   22004156.6544
 -12319073.226 9  -9187421.87046  23103304.626    23103303.9154   23103322.2204
  -7230165.538 9  -5610477.11245  24149745.908    24149745.4004   24149771.5884
  -5002290.483 9  -3875766.83946  23930778.156    23930777.8974   23930794.1274
 -18192387.367 9 -13919463.42748  21629932.007    21629931.1304   21629943.1104
 -27688263.364 9 -21557350.31849  20656103.606    20656103.3274   20656113.8044
  -5012010.716 9  -3898519.22345  24894160.082    24894160.0424   24894175.7624
 00  4 19 22  1 47.0000000  0  9 26 30 17  5 23 24 10  6 13          0.000000015
  -7898665.880 9  -6140710.18645  23774187.616    23774187.3634   23774210.0144
 -22018916.307 9 -17147606.11748  21292189.210    21292189.3044   21292201.0894
 -18247743.986 9 -14195722.06848  22003984.877    22003984.1594   22003997.3674
 -12317360.179 9  -9186087.03346  23103630.593    23103629.8804   23103648.1884
  -7231902.215 9  -5611830.35645  24149415.433    24149414.9294   24149441.1154
  -5001044.550 9  -3874795.98446  23931015.254    23931014.9934   23931031.2314
 -18191263.983 9 -13918588.06448  21630145.788    21630144.9024   21630156.8994
 -27688933.959 9 -21557872.85849  20655975.994    20655975.7164   20655986.1884
  -5011846.652 9  -3898391.37945  24894191.304    24894191.2604   24894206.9894
 00  4 19 22  1 47.0000000  0  9 26 30 17  5 23 24 10  6 13          0.000000015
  -7900087.299 9  -6141817.77945  23773917.104    23773916.8514   23773939.5064
 -22017856.078 9 -17146779.96648  21292390.951    21292391.0444   21292402.8364
 -18248580.899 9 -14196374.20548  22003825.613    22003824.8894   22003838.1044
 -12315647.062 9  -9184752.14346  23103956.610    23103955.8944   23103974.2124
  -7233638.808 9  -5613183.53445  24149084.961    24149084.4584   24149110.6384
  -4999798.572 9  -3873825.09646  23931252.369    23931252.1094   23931268.3504
 -18190140.446 9 -13917712.58048  21630359.573    21630358.6844   21630370.6694
 -27689604.437 9 -21558395.30749  20655848.413    20655848.1344   20655858.6184
  -5011682.423 9  -3898263.40845  24894222.562    24894222.5284   24894238.2524
 00  4 19 22  1 48.0000000  0  9 26 30 17  5 23 24 10  6 13          0.000000015
  -7901508.671 9  -6142925.33545  23773646.629    23773646.3684   23773669.0344
 -22016795.674 9 -17145953.67948  21292592.737    21292592.8354   21292604.6204
 -18249417.699 9 -14197026.25448  22003666.374    22003665.6494   22003678.8654
 -12313933.872 9  -9183417.19846  23104282.614    23104281.8984   23104300.2124
  -7235375.338 9  -5614536.66645  24148754.502    24148754.0074   24148780.1784
  -4998552.572 9  -3872854.19146  23931489.476    23931489.2144   23931505.4634
 -18189016.738 9 -13916836.96448  21630573.416    21630572.5364   21630584.5064
 -27690274.789 9 -21558917.65849  20655720.842    20655720.5724   20655731.0534
  -5011517.984 9  -3898135.27545  24894253.843    24894253.8074   24894269.5364
 00  4 19 22  1 48.0000000  0  9 26 30 17  5 23 24 10  6 13          0.000000014
  -7902930.008 8  -6144032.86245  23773376.153    23773375.8954   23773398.5614
 -22015735.139 9 -17145127.29148  21292794.547    21292794.6454   21292806.4354
 -18250254.438 9 -14197678.25648  22003507.168    22003506.4504   22003519.6634
 -12312220.661 9  -9182082.23246  23104608.630    23104607.9124   23104626.2374
  -7237111.810 9  -5615889.75145  24148424.039    24148423.5454   24148449.7134
  -4997306.521 9  -3871883.24246  23931726.595    23931726.3404   23931742.5844
 -18187892.930 9 -13915961.27148  21630787.280    21630786.3984   21630798.3724
 -27690945.049 9 -21559439.93749  20655593.297    20655593.0304   20655603.5134
  -5011353.424 9  -3898007.04645  24894285.141    24894285.0954   24894300.8334
 00  4 19 22  1 49.0000000  0  9 26 30 17  5 23 24 10  6 13          0.000000014
  -7904351.304 8  -6145140.36145  23773105.675    23773105.4224   23773128.0834
 -22014674.479 9 -17144300.80648  21292996.398    21292996.4954   21293008.2804
 -18251091.116 9 -14198330.21248  22003347.936    22003347.2204   22003360.4294
 -12310507.406 9  -9180747.23446  23104934.661    23104933.9464   23104952.2704
  -7238848.257 9  -5617242.81745  24148093.599    24148093.1044   24148119.2714
  -4996060.469 9  -3870912.29246  23931963.693    23931963.4364   23931979.6894
 -18186768.991 9 -13915085.47448  21631001.136    21631000.2504   21631012.2344
 -27691615.233 9 -21559962.15749  20655465.765    20655465.4994   20655475.9764
  -5011188.714 9  -3897878.69845  24894316.499    24894316.4544   24894332.1974
 00  4 19 22  1 49.0000000  0  9 26 30 17  5 23 24 10  6 13          0.000000014
  -7905772.633 8  -6146247.88445  23772835.221    23772834.9604   23772857.6224
 -22013613.712 9 -17143474.23548  21293198.249    21293198.3454   21293210.1374
 -18251927.762 9 -14198982.14148  22003188.743    22003188.0204   22003201.2394
 -12308794.144 9  -9179412.23046  23105260.677    23105259.9614   23105278.2904
  -7240584.686 9  -5618595.87045  24147763.177    24147762.6834   24147788.8384
  -4994814.453 9  -3869941.37346  23932200.819    23932200.5624   23932216.8084
 -18185644.964 9 -13914209.61048  21631215.046    21631214.1624   21631226.1484
 -27692285.353 9 -21560484.32849  20655338.243    20655337.9774   20655348.4484
  -5011023.879 9  -3897750.25245  24894347.861    24894347.8124   24894363.5674
 00  4 19 22  1 50.0000000  0  9 26 30 17  5 23 24 10  6 13          0.000000014
  -7907193.964 8  -6147355.41045  23772564.735    23772564.4774   23772587.1414
 -22012552.846 9 -17142647.58848  21293400.135    21293400.2254   21293412.0234
 -18252764.363 9 -14199634.03448  22003029.521    22003028.8004   22003042.0204
 -12307080.889 9  -9178077.23346  23105586.707    23105585.9954   23105604.3254
  -7242321.106 9  -5619948.91545  24147432.710    24147432.2124   24147458.3734
  -4993568.444 9  -3868970.46246  23932437.925    23932437.6684   23932453.9174
 -18184520.848 9 -13913333.67548  21631428.962    21631428.0844   21631440.0584
 -27692955.414 9 -21561006.45349  20655210.734    20655210.4554   20655220.9424
  -5010858.950 9  -3897621.73745  24894379.235    24894379.1904   24894394.9534
 00  4 19 22  1 50.0000000  0  9 26 30 17  5 23 24 10  6 13          0.000000014
  -7908615.207 8  -6148462.86345  23772294.284    23772294.0244   23772316.6914
 -22011491.811 9 -17141820.81048  21293602.036    21293602.1264   21293613.9244
 -18253600.865 9 -14200285.85448  22002870.341    22002869.6204   22002882.8324
 -12305367.562 9  -9176742.17146  23105912.754    23105912.0404   23105930.3784
  -7244057.445 8  -5621301.89745  24147102.309    24147101.8204   24147127.9734
  -4992322.400 9  -3867999.52246  23932675.024    23932674.7744   23932691.0144
 -18183396.580 9 -13912457.62448  21631642.911    21631642.0164   21631654.0134
 -27693625.352 9 -21561528.48449  20655083.249    20655082.9744   20655093.4664
  -5010693.826 9  -3897493.06745  24894410.675    24894410.6194   24894426.3924
 00  4 19 22  1 51.0000000  0  9 26 30 17  5 23 24 10  6 13          0.000000014
  -7910036.378 9  -6149570.26345  23772023.812    23772023.5524   23772046.2294
 -22010430.619 9 -17140993.90748  21293803.979    21293804.0664   21293815.8694
 -18254437.286 9 -14200937.60848  22002711.168    22002710.4514   22002723.6574
 -12303654.162 9  -9175407.06146  23106238.813    23106238.0944   23106256.4394
  -7245793.720 9  -5622654.82945  24146771.890    24146771.3994   24146797.5504
  -4991076.322 9  -3867028.55546  23932912.159    23932911.9094   23932928.1374
 -18182272.162 9 -13911581.45548  21631856.858    21631855.9684   21631867.9624
 -27694295.185 9 -21562050.43149  20654955.787    20654955.5024   20654965.9954
  -5010528.561 9  -3897364.28645  24894442.107    24894442.0574   24894457.8364
 00  4 19 22  1 51.0000000  0  9 26 30 17  5 23 24 10  6 13          0.000000014
  -7911457.544 9  -6150677.65845  23771753.374    23771753.1194   23771775.7954
 -22009369.315 9 -17140166.91748  21294005.949    21294006.0364   21294017.8394
 -18255273.646 9 -14201589.31548  22002552.029    22002551.3114   22002564.5234
 -12301940.761 9  -9174071.94946  23106564.867    23106564.1484   23106582.4904
  -7247529.950 8  -5624007.72645  24146441.494    24146441.0084   24146467.1514
  -4989830.241 9  -3866057.58446  23933149.290    23933149.0454   23933165.2704
 -18181147.648 9 -13910705.21348  21632070.850    21632069.9604   21632081.9544
 -27694964.942 9 -21562572.31949  20654828.326    20654828.0504   20654838.5344
  -5010363.157 9  -3897235.39645  24894473.578    24894473.5154   24894489.3154
 00  4 19 22  1 52.0000000  0  9 26 30 17  5 23 24 10  6 13          0.000000013
  -7912878.737 9  -6151785.07445  23771482.915    23771482.6564   23771505.3434
 -22008307.928 9 -17139339.86648  21294207.926    21294208.0164   21294219.8154
 -18256109.998 9 -14202241.01848  22002392.873    22002392.1514   22002405.3734
 -12300227.366 9  -9172736.84746  23106890.911    23106890.1924   23106908.5384
  -7249266.209 9  -5625360.64645  24146111.080    24146110.5964   24146136.7294
  -4988584.217 9  -3865086.66046  23933386.398    23933386.1614   23933402.3724
 -18180023.063 9 -13909828.91348  21632284.853    21632283.9624   21632295.9544
 -27695634.666 9 -21563094.18249  20654700.890    20654700.6184   20654711.0994
  -5010197.658 9  -3897106.43445  24894505.100    24894505.0434   24894520.8384
 00  4 19 22  1 52.0000000  0  9 26 30 17  5 23 24 10  6 13          0.000000013
  -7914299.814 9  -6152892.40045  23771212.486    23771212.2244   23771234.9114
 -22007246.344 9 -17138512.66048  21294409.924    21294410.0174   21294421.8204
 -18256946.216 9 -14202892.61548  22002233.747    22002233.0314   22002246.2474
 -12298513.873 9  -9171401.66346  23107216.996    23107216.2764   23107234.6294
  -7251002.344 9  -5626713.46945  24145780.685    24145780.2054   24145806.3324
  -4987338.132 9  -3864115.68646  23933623.524    23933623.2874   23933639.4994
 -18178898.284 9 -13908952.46048  21632498.884    21632498.0034   21632509.9834
 -27696304.239 9 -21563615.92749  20654573.466    20654573.1964   20654583.6704
  -5010031.939 8  -3896977.30045  24894536.621    24894536.5614   24894552.3664
 00  4 19 22  1 53.0000000  0  9 26 30 17  5 23 24 10  6 13          0.000000013
  -7915720.882 8  -6153999.72045  23770942.070    23770941.8014   23770964.4974
 -22006184.635 9 -17137685.35648  21294611.982    21294612.0774   21294623.8754
 -18257782.373 9 -14203544.16548  22002074.633    22002073.9114   22002087.1244
 -12296800.354 9  -9170066.45846  23107543.046    23107542.3314   23107560.6794
  -7252738.453 9  -5628066.27345  24145450.308    24145449.8244   24145475.9574
  -4986092.037 9  -3863144.70846  23933860.627    23933860.3924   23933876.5944
 -18177773.403 9 -13908075.92948  21632712.953    21632712.0654   21632724.0554
 -27696973.736 9 -21564137.61149  20654446.073    20654445.8054   20654456.2774
  -5009866.117 9  -3896848.08745  24894568.188    24894568.1194   24894583.9484
 00  4 19 22  1 53.0000000  0  9 26 30 17  5 23 24 10  6 13          0.000000013
  -7917141.992 8  -6155107.07445  23770671.637    23770671.3684   23770694.0694
 -22005122.834 9 -17136857.98148  21294814.032    21294814.1274   21294825.9264
 -18258618.503 9 -14204195.69648  22001915.501    22001914.7824   22001927.9964
 -12295086.840 9  -9168731.25946  23107869.130    23107868.4154   23107886.7624
  -7254474.542 9  -5629419.05845  24145119.944    24145119.4634   24145145.5944
  -4984845.970 9  -3862173.75046  23934097.763    23934097.5284   23934113.7414
 -18176648.439 9 -13907199.33548  21632927.021    21632926.1274   21632938.1204
 -27697643.187 9 -21564659.26149  20654318.678    20654318.4134   20654328.8814
  -5009700.195 9  -3896718.79645  24894599.750    24894599.6974   24894615.5164
 00  4 19 22  1 54.0000000  0  9 26 30 17  5 23 24 10  6 13          0.000000013
  -7918562.992 8  -6156214.34245  23770401.222    23770400.9554   23770423.6664
 -22004060.842 9 -17136030.45748  21295016.104    21295016.1974   21295028.0014
 -18259454.514 9 -14204847.13248  22001756.430    22001755.7124   22001768.9234
 -12293373.224 9  -9167395.98146  23108195.236    23108194.5194   23108212.8724
  -7256210.538 9  -5630771.77445  24144789.583    24144789.1014   24144815.2254
  -4983599.847 9  -3861202.74646  23934334.875    23934334.6454   23934350.8474
 -18175523.292 9 -13906322.60048  21633141.147    21633140.2584   21633152.2504
 -27698312.490 9 -21565180.79649  20654191.304    20654191.0314   20654201.5064
  -5009534.046 8  -3896589.32845  24894631.365    24894631.3154   24894647.1334
 00  4 19 22  1 54.0000000  0  9 26 30 17  5 23 24 10  6 13          0.000000013
  -7919984.060 8  -6157321.66045  23770130.783    23770130.5224   23770153.2304
 -22002998.789 9 -17135202.88648  21295218.210    21295218.2974   21295230.1094
 -18260290.525 9 -14205498.56748  22001597.329    22001596.6124   22001609.8204
 -12291659.649 9  -9166060.73246  23108521.319    23108520.6044   23108538.9574
  -7257946.564 9  -5632124.51245  24144459.215    24144458.7404   24144484.8564
  -4982353.804 9  -3860231.80646  23934571.992    23934571.7604   23934587.9534
 -18174398.102 9 -13905445.83048  21633355.254    21633354.3704   21633366.3584
 -27698981.786 9 -21565702.32449  20654063.946    20654063.6694   20654074.1544
  -5009367.842 9  -3896459.81645  24894663.003    24894662.9534   24894678.7854
 00  4 19 22  1 55.0000000  0  9 26 30 17  5 23 24 10  6 13          0.000000013
  -7921405.020 8  -6158428.89145  23769860.371    23769860.1094   23769882.8354
 -22001936.554 9 -17134375.17348  21295420.369    21295420.4574   21295432.2714
 -18261126.420 9 -14206149.91148  22001438.262    22001437.5424   22001450.7574
 -12289945.996 9  -9164725.42446  23108847.416    23108846.6984   23108865.0564
  -7259682.483 8  -5633477.16745  24144128.875    24144128.3994   24144154.5174
  -4981107.696 9  -3859260.81246  23934809.127    23934808.8964   23934825.1004
 -18173272.740 9 -13904568.92748  21633569.420    21633568.5324   21633580.5174
 -27699650.946 9 -21566223.74749  20653936.616    20653936.3374   20653946.8204
  -5009201.453 9  -3896330.16345  24894694.656    24894694.5924   24894710.4404
 00  4 19 22  1 55.0000000  0  9 26 30 17  5 23 24 10  6 13          0.000000012
  -7922826.018 9  -6159536.15145  23769589.966    23769589.7074   23769612.4384
 -22000874.265 9 -17133547.41748  21295622.519    21295622.6074   21295634.4144
 -18261962.332 9 -14206801.27048  22001279.190    22001278.4724   22001291.6844
 -12288232.366 9  -9163390.13546  23109173.507    23109172.7924   23109191.1484
  -7261418.444 8  -5634829.85345  24143798.504    24143798.0284   24143824.1494
  -4979861.685 9  -3858289.89746  23935046.248    23935046.0224   23935062.2164
 -18172147.326 9 -13903691.98348  21633783.553    21633782.6644   21633794.6514
 -27700320.103 9 -21566745.16649  20653809.266    20653808.9864   20653819.4784
  -5009034.995 9  -3896200.45345  24894726.340    24894726.2804   24894742.1324
 00  4 19 22  1 56.0000000  0  9 26 30 17  5 23 24 10  6 13          0.000000012
  -7924246.917 9  -6160643.33845  23769319.575    23769319.3134   23769342.0534
 -21999811.780 9 -17132719.50848  21295824.699    21295824.7874   21295836.5944
 -18262798.109 9 -14207452.52348  22001120.154    22001119.4324   22001132.6414
 -12286518.654 9  -9162054.78046  23109499.632    23109498.9164   23109517.2804
  -7263154.293 9  -5636182.45145  24143468.172    24143467.6964   24143493.8164
  -4978615.577 9  -3857318.90446  23935283.360    23935283.1284   23935299.3184
 -18171021.746 9 -13902814.90748  21633997.759    21633996.8754   21634008.8604
 -27700989.106 9 -21567266.46749  20653681.967    20653681.6944   20653692.1824
  -5008868.338 9  -3896070.59145  24894758.040    24894757.9784   24894773.8244
 00  4 19 22  1 56.0000000  0  9 26 30 17  5 23 24 10  6 13          0.000000012
  -7925667.838 9  -6161750.54345  23769049.153    23769048.9014   23769071.6394
 -21998749.203 9 -17131891.52748  21296026.881    21296026.9774   21296038.7804
 -18263633.864 9 -14208103.75848  22000961.124    22000960.4024   22000973.6104
 -12284804.938 9  -9160719.42346  23109825.730    23109825.0114   23109843.3924
  -7264890.128 9  -5637535.03845  24143137.867    24143137.3954   24143163.5104
  -4977369.507 9  -3856347.94446  23935520.476    23935520.2344   23935536.4334
 -18169896.071 9 -13901937.75848  21634211.978    21634211.0774   21634223.0764
 -27701658.070 9 -21567787.73649  20653554.662    20653554.3824   20653564.8814
  -5008701.572 9  -3895940.64345  24894789.766    24894789.7064   24894805.5544
 00  4 19 22  1 57.0000000  0  9 26 30 17  5 23 24 10  6 13          0.000000012
  -7927088.690 8  -6162857.69545  23768778.779    23768778.5284   23768801.2644
 -21997686.451 9 -17131063.41148  21296229.135    21296229.2274   21296241.0384
 -18264469.521 9 -14208754.91848  22000802.086    22000801.3824   22000814.5794
 -12283091.151 9  -9159384.01146  23110151.857    23110151.1354   23110169.5214
  -7266625.901 9  -5638887.58145  24142807.531    24142807.0644   24142833.1754
  -4976123.408 9  -3855376.96046  23935757.611    23935757.3804   23935773.5724
 -18168770.247 9 -13901060.49348  21634426.197    21634425.3094   21634437.2954
 -27702326.913 9 -21568308.91349  20653427.383    20653427.1004   20653437.6004
  -5008534.645 8  -3895810.57045  24894821.535    24894821.4744   24894837.3214
 00  4 19 22  1 57.0000000  0  9 26 30 17  5 23 24 10  6 13          0.000000012
  -7928509.532 8  -6163964.83745  23768508.394    23768508.1454   23768530.8814
 -21996623.572 9 -17130235.19448  21296431.393    21296431.4874   21296443.2994
 -18265305.104 9 -14209406.01848  22000643.074    22000642.3624   22000655.5634
 -12281377.333 9  -9158048.58046  23110477.994    23110477.2694   23110495.6614
  -7268361.607 9  -5640240.07045  24142477.226    24142476.7624   24142502.8654
  -4974877.296 9  -3854405.96746  23935994.759    23935994.5264   23936010.7124
 -18167644.307 9 -13900183.13948  21634640.455    21634639.5714   21634651.5504
 -27702995.666 9 -21568830.01749  20653300.143    20653299.8684   20653310.3644
  -5008367.553 9  -3895680.36645  24894853.335    24894853.2824   24894869.1314
 00  4 19 22  1 58.0000000  0  9 26 30 17  5 23 24 10  6 13          0.000000012
  -7929930.393 8  -6165071.99345  23768238.009    23768237.7624   23768260.5064
 -21995560.613 9 -17129406.91648  21296633.668    21296633.7574   21296645.5714
 -18266140.673 9 -14210057.11148  22000484.069    22000483.3524   22000496.5604
 -12279663.527 9  -9156713.15346  23110804.126    23110803.4034   23110821.8004
  -7270097.330 9  -5641592.57045  24142146.931    24142146.4614   24142172.5754
  -4973631.240 9  -3853435.01946  23936231.863    23936231.6224   23936247.8214
 -18166518.297 9 -13899305.73048  21634854.745    21634853.8624   21634865.8314
 -27703664.400 9 -21569351.10949  20653172.890    20653172.6164   20653183.1074
  -5008200.389 9  -3895550.10845  24894885.134    24894885.0804   24894900.9204
 00  4 19 22  1 58.0000000  0  9 26 30 17  5 23 24 10  6 13          0.000000012
  -7931351.184 8  -6166179.09645  23767967.632    23767967.3904   23767990.1274
 -21994497.479 9 -17128578.50148  21296835.986    21296836.0774   21296847.8864
 -18266976.131 9 -14210708.11448  22000325.104    22000324.3924   22000337.5904
 -12277949.639 9  -9155377.66246  23111130.281    23111129.5584   23111147.9534
  -7271832.964 8  -5642945.00345  24141816.644    24141816.1794   24141842.2904
  -4972385.140 9  -3852464.03346  23936469.008    23936468.7674   23936484.9594
 -18165392.112 9 -13898428.18448  21635069.042    21635068.1444   21635080.1394
 -27704332.996 9 -21569872.09149  20653045.651    20653045.3844   20653055.8714
  -5008033.037 8  -3895419.70145  24894916.980    24894916.9274   24894932.7834
 00  4 19 22  1 59.0000000  0  9 26 30 17  5 23 24 10  6 13          0.000000012
  -7932771.951 9  -6167286.18045  23767697.243    23767696.9974   23767719.7484
 -21993434.219 9 -17127749.98948  21297038.309    21297038.3974   21297050.2094
 -18267811.528 9 -14211359.06948  22000166.138    22000165.4224   22000178.6244
 -12276235.719 9  -9154042.14746  23111456.434    23111455.7024   23111474.1044
  -7273568.541 9  -5644297.39045  24141486.361    24141485.8984   24141512.0034
  -4971139.047 9  -3851493.05246  23936706.105    23936705.8544   23936722.0534
 -18164265.828 9 -13897550.55848  21635283.381    21635282.4964   21635294.4774
 -27705001.520 9 -21570393.01949  20652918.421    20652918.1424   20652928.6434
  -5007865.556 8  -3895289.19745  24894948.866    24894948.8154   24894964.6604
 00  4 19 22  1 59.0000000  0  9 26 30 17  5 23 24 10  6 13          0.000000012
  -7934192.681 9  -6168393.23345  23767426.871    23767426.6344   23767449.3724
 -21992370.845 9 -17126921.38948  21297240.665    21297240.7574   21297252.5704
 -18268646.880 9 -14212009.98948  22000007.148    22000006.4324   22000019.6314
 -12274521.786 9  -9152706.62046  23111782.579    23111781.8364   23111800.2544
  -7275304.098 9  -5645649.76345  24141156.087    24141155.6274   24141181.7314
  -4969892.965 9  -3850522.08046  23936943.255    23936942.9994   23936959.2064
 -18163139.431 9 -13896672.84848  21635497.713    21635496.8274   21635508.8114
 -27705669.975 9 -21570913.89249  20652791.231    20652790.9604   20652801.4474
  -5007697.933 8  -3895158.58145  24894980.755    24894980.7134   24894996.5524
 00  4 19 22  2  0.0000000  0  9 26 30 17  5 23 24 10  6 13          0.000000012
  -7935613.416 9  -6169500.29245  23767156.513    23767156.2714   23767179.0244
 -21991307.367 9 -17126092.70648  21297443.041    21297443.1274   21297454.9494
 -18269482.193 9 -14212660.88348  21999848.197    21999847.4834   21999860.6784
 -12272807.843 9  -9151371.08346  23112108.737    23112107.9914   23112126.4054
  -7277039.635 8  -5647002.12145  24140825.813    24140825.3554   24140851.4584
  -4968646.900 9  -3849551.12146  23937180.380    23937180.1154   23937196.3314
 -18162012.935 9 -13895795.05948  21635712.091    21635711.1994   21635723.1864
 -27706338.378 9 -21571434.72549  20652664.052    20652663.7884   20652674.2644
  -5007530.200 8  -3895027.87745  24895012.676    24895012.6314   24895028.4654
 00  4 19 22  2  0.0000000  0  9 26 30 17  5 23 24 10  6 13          0.000000012
  -7937034.059 9  -6170607.28045  23766886.181    23766885.9484   23766908.6844
 -21990243.690 9 -17125263.87048  21297645.446    21297645.5374   21297657.3534
 -18270317.362 9 -14213311.66348  21999689.266    21999688.5534   21999701.7524
 -12271093.795 9  -9150035.46646  23112434.908    23112434.1744   23112452.5824
  -7278775.062 9  -5648354.39245  24140495.576    24140495.1244   24140521.2224
  -4967400.764 9  -3848580.10646  23937417.496    23937417.2414   23937433.4434
 -18160886.260 9 -13894917.13048  21635926.488    21635925.6004   21635937.5894
 -27707006.626 9 -21571955.43749  20652536.886    20652536.6164   20652547.0944
  -5007362.244 9  -3894896.99945  24895044.629    24895044.5894   24895060.4244
 00  4 19 22  2  1.0000000  0  9 26 30 17  5 23 24 10  6 13          0.000000012
  -7938454.724 8  -6171714.28645  23766615.824    23766615.5854   23766638.3294
 -21989179.953 9 -17124434.98848  21297847.874    21297847.9664   21297859.7794
 -18271152.538 9 -14213962.44848  21999530.336    21999529.6234   21999542.8194
 -12269379.787 9  -9148699.88246  23112761.084    23112760.3494   23112778.7514
  -7280510.527 9  -5649706.69245  24140165.301    24140164.8534   24140190.9504
  -4966154.701 9  -3847609.15246  23937654.624    23937654.3664   23937670.5704
 -18159759.534 9 -13894039.16348  21636140.888    21636139.9924   21636151.9874
 -27707674.861 9 -21572476.13949  20652409.715    20652409.4444   20652419.9304
  -5007194.248 8  -3894766.09145  24895076.599    24895076.5674   24895092.3894
 00  4 19 22  2  1.0000000  0  9 26 30 17  5 23 24 10  6 13          0.000000012
  -7939875.382 8  -6172821.28645  23766345.485    23766345.2434   23766367.9944
 -21988116.053 9 -17123605.97548  21298050.324    21298050.4164   21298062.2344
 -18271987.628 9 -14214613.16448  21999371.417    21999370.7034   21999383.9004
 -12267665.708 9  -9147364.24346  23113087.277    23113086.5334   23113104.9464
  -7282245.906 9  -5651058.92445  24139835.057    24139834.6114   24139860.7124
  -4964908.601 9  -3846638.16546  23937891.745    23937891.4824   23937907.6884
 -18158632.654 9 -13893161.07548  21636355.328    21636354.4434   21636366.4244
 -27708342.983 9 -21572996.75249  20652282.567    20652282.3024   20652292.7804
  -5007026.070 8  -3894635.04145  24895108.605    24895108.5754   24895124.3924
 00  4 19 22  2  2.0000000  0  9 26 30 17  5 23 24 10  6 13          0.000000012
  -7941296.058 8  -6173928.29845  23766075.119    23766074.8804   23766097.6274
 -21987052.066 9 -17122776.89648  21298252.811    21298252.9064   21298264.7234
 -18272822.687 9 -14215263.85848  21999212.511    21999211.8034   21999224.9934
 -12265951.638 9  -9146028.61246  23113413.440    23113412.6974   23113431.1054
  -7283981.294 9  -5652411.16645  24139504.815    24139504.3704   24139530.4664
  -4963662.540 9  -3845667.20646  23938128.867    23938128.6084   23938144.8134
 -18157505.712 9 -13892282.93848  21636569.766    21636568.8754   21636580.8654
 -27709011.069 9 -21573517.33849  20652155.454    20652155.1904   20652165.6684
  -5006857.780 9  -3894503.90545  24895140.610    24895140.5834   24895156.3954
 00  4 19 22  2  2.0000000  0  9 26 30 17  5 23 24 10  6 13          0.000000012
  -7942716.609 8  -6175035.21445  23765804.804    23765804.5674   23765827.3064
 -21985987.901 9 -17121947.67948  21298455.295    21298455.3864   21298467.2064
 -18273657.623 9 -14215914.45748  21999053.626    21999052.9134   21999066.1074
 -12264237.479 9  -9144692.91046  23113739.643    23113738.9014   23113757.3094
  -7285716.567 9  -5653763.31545  24139174.590    24139174.1494   24139200.2404
  -4962416.431 9  -3844696.21346  23938366.012    23938365.7444   23938381.9594
 -18156378.581 9 -13891404.65648  21636784.264    21636783.3764   21636795.3624
 -27709679.021 9 -21574037.82149  20652028.328    20652028.0584   20652038.5404
  -5006689.296 8  -3894372.61845  24895172.690    24895172.6704   24895188.4714
 00  4 19 22  2  3.0000000  0  9 26 30 17  5 23 24 10  6 13          0.000000012
  -7944137.147 9  -6176142.11945  23765534.453    23765534.2144   23765556.9624
 -21984923.595 9 -17121118.35048  21298657.839    21298657.9364   21298669.7574
 -18274492.505 9 -14216565.01548  21998894.775    21998894.0634   21998907.2604
 -12262523.269 9  -9143357.17146  23114065.853    23114065.1054   23114083.5144
  -7287451.815 9  -5655115.44845  24138844.383    24138843.9474   24138870.0314
  -4961170.342 9  -3843725.23446  23938603.136    23938602.8604   23938619.0784
 -18155251.329 9 -13890526.28148  21636998.783    21636997.8884   21637009.8844
 -27710346.884 9 -21574558.23349  20651901.259    20651900.9964   20651911.4764
  -5006520.683 9  -3894241.22945  24895204.748    24895204.7284   24895220.5294
 00  4 19 22  2  3.0000000  0  9 26 30 17  5 23 24 10  6 13          0.000000012
  -7945557.659 9  -6177249.00345  23765264.144    23765263.9114   23765286.6544
 -21983859.166 9 -17120288.92748  21298860.399    21298860.4964   21298872.3124
 -18275327.309 9 -14217215.51248  21998735.902    21998735.1834   21998748.3834
 -12260809.049 9  -9142021.42146  23114392.069    23114391.3194   23114409.7354
  -7289187.025 9  -5656467.55145  24138514.191    24138513.7564   24138539.8374
  -4959924.242 9  -3842754.24846  23938840.264    23938839.9864   23938856.2074
 -18154123.977 9 -13889647.82848  21637213.291    21637212.4004   21637224.3974
 -27711014.672 9 -21575078.58749  20651774.160    20651773.8944   20651784.3744
  -5006351.922 9  -3894109.72345  24895236.877    24895236.8564   24895252.6604
 00  4 19 22  2  4.0000000  0  9 26 30 17  5 23 24 10  6 13          0.000000012
  -7946978.159 9  -6178355.87945  23764993.822    23764993.5884   23765016.3274
 -21982794.644 9 -17119459.43148  21299062.970    21299063.0654   21299074.8874
 -18276162.090 9 -14217865.98848  21998577.057    21998576.3434   21998589.5434
 -12259094.821 9  -9140685.66346  23114718.274    23114717.5244   23114735.9304
  -7290922.229 9  -5657819.64845  24138183.982    24138183.5444   24138209.6354
  -4958678.171 9  -3841783.28946  23939077.378    23939077.0924   23939093.3224
 -18152996.534 9 -13888769.29748  21637427.852    21637426.9514   21637438.9574
 -27711682.420 9 -21575598.90949  20651647.108    20651646.8324   20651657.3334
  -5006183.064 9  -3893978.14445  24895269.010    24895268.9844   24895284.7964
 00  4 19 22  2  4.0000000  0  9 26 30 17  5 23 24 10  6 13          0.000000011
  -7948398.633 9  -6179462.73645  23764723.503    23764723.2654   23764746.0024
 -21981729.983 9 -17118629.82648  21299265.560    21299265.6554   21299277.4774
 -18276996.793 9 -14218516.40348  21998418.205    21998417.4934   21998430.6884
 -12257380.551 9  -9139349.87646  23115044.477    23115043.7284   23115062.1424
  -7292657.378 8  -5659171.70345  24137853.760    24137853.3234   24137879.4114
  -4957432.083 9  -3840812.31446  23939314.503    23939314.2184   23939330.4424
 -18151868.966 9 -13887890.67548  21637642.406    21637641.5124   21637653.5094
 -27712350.071 9 -21576119.15549  20651520.044    20651519.7804   20651530.2724
  -5006014.041 9  -3893846.43445  24895301.163    24895301.1424   24895316.9454
 00  4 19 22  2  5.0000000  0  9 26 30 17  5 23 24 10  6 13          0.000000011
  -7949819.055 9  -6180569.55145  23764453.206    23764452.9734   23764475.7054
 -21980665.174 9 -17117800.10748  21299468.188    21299468.2854   21299480.1104
 -18277831.408 9 -14219166.75048  21998259.385    21998258.6734   21998271.8644
 -12255666.235 9  -9138014.05646  23115370.705    23115369.9524   23115388.3604
  -7294392.480 8  -5660523.72145  24137523.580    24137523.1524   24137549.2284
  -4956185.986 9  -3839841.33046  23939551.612    23939551.3334   23939567.5574
 -18150741.266 9 -13887011.94948  21637857.005    21637856.1144   21637868.1124
 -27713017.624 9 -21576639.32649  20651393.005    20651392.7284   20651403.2294
  -5005844.849 8  -3893714.59345  24895333.344    24895333.3204   24895349.1224
 00  4 19 22  2  5.0000000  0  9 26 30 17  5 23 24 10  6 13          0.000000012
  -7951239.439 8  -6181676.33845  23764182.903    23764182.6604   23764205.3904
 -21979600.203 9 -17116970.26248  21299670.834    21299670.9344   21299682.7534
 -18278665.920 9 -14219817.01848  21998100.599    21998099.8924   21998113.0774
 -12253951.854 9  -9136678.18146  23115696.970    23115696.2164   23115714.6334
  -7296127.488 9  -5661875.66645  24137193.420    24137192.9904   24137219.0734
  -4954939.854 9  -3838870.31846  23939788.749    23939788.4694   23939804.6944
 -18149613.413 9 -13886133.10448  21638071.647    21638070.7554   21638082.7534
 -27713685.067 9 -21577159.41049  20651266.007    20651265.7364   20651276.2284
  -5005675.522 9  -3893582.64945  24895365.570    24895365.5474   24895381.3484
 00  4 19 22  2  6.0000000  0  9 26 30 17  5 23 24 10  6 13          0.000000012
  -7952659.885 8  -6182783.16945  23763912.614    23763912.3774   23763935.0944
 -21978535.194 9 -17116140.38548  21299873.501    21299873.5944   21299885.4274
 -18279500.463 9 -14220467.30848  21997941.788    21997941.0724   21997954.2664
 -12252237.512 9  -9135342.33046  23116023.199    23116022.4504   23116040.8634
  -7297862.560 8  -5663227.66045  24136863.241    24136862.8094   24136888.8884
  -4953693.819 9  -3837899.38846  23940025.879    23940025.5954   23940041.8294
 -18148485.528 9 -13885254.23648  21638286.258    21638285.3674   21638297.3594
 -27714352.512 9 -21577679.49749  20651139.001    20651138.7244   20651149.2184
  -5005506.132 9  -3893450.65245  24895397.798    24895397.7844   24895413.5734
 00  4 19 22  2  6.0000000  0  9 26 30 17  5 23 24 10  6 13          0.000000012
  -7954080.281 8  -6183889.96745  23763642.290    23763642.0444   23763664.7704
 -21977470.023 9 -17115310.38448  21300076.218    21300076.3144   21300088.1434
 -18280334.896 9 -14221117.51248  21997782.979    21997782.2624   21997795.4584
 -12250523.124 9  -9134006.44846  23116349.422    23116348.6744   23116367.0784
  -7299597.547 9  -5664579.58945  24136533.070    24136532.6474   24136558.7184
  -4952447.731 9  -3836928.41646  23940262.986    23940262.6914   23940278.9434
 -18147357.499 9 -13884375.25248  21638500.934    21638500.0484   21638512.0434
 -27715019.843 9 -21578199.49449  20651012.000    20651011.7224   20651022.2214
  -5005336.552 9  -3893318.51345  24895430.084    24895430.0724   24895445.8704
 00  4 19 22  2  7.0000000  0  9 26 30 17  5 23 24 10  6 13          0.000000012
  -7955500.650 9  -6184996.73745  23763371.995    23763371.7514   23763394.4744
 -21976404.738 9 -17114480.29448  21300278.927    21300279.0234   21300290.8584
 -18281169.279 9 -14221767.68048  21997624.199    21997623.4924   21997636.6804
 -12248808.710 9  -9132670.54846  23116675.666    23116674.9184   23116693.3224
  -7301332.510 8  -5665931.50045  24136202.896    24136202.4664   24136228.5474
  -4951201.662 9  -3835957.45546  23940500.115    23940499.8174   23940516.0714
 -18146229.365 9 -13883496.18848  21638715.594    21638714.6994   21638726.6954
 -27715687.109 9 -21578719.44049  20650885.022    20650884.7504   20650895.2504
  -5005166.874 9  -3893186.29745  24895462.372    24895462.3704   24895478.1464
 00  4 19 22  2  7.0000000  0  9 26 30 17  5 23 24 10  6 13          0.000000012
  -7956920.878 9  -6186103.40045  23763101.748    23763101.4984   23763124.2144
 -21975339.217 9 -17113650.01948  21300481.676    21300481.7734   21300493.6034
 -18282003.495 9 -14222417.71948  21997465.467    21997464.7524   21997477.9534
 -12247094.166 9  -9131334.54246  23117001.935    23117001.1824   23117019.5944
  -7303067.333 9  -5667283.30045  24135872.767    24135872.3454   24135898.4214
  -4949955.502 9  -3834986.42646  23940737.249    23940736.9534   23940753.2124
 -18145101.000 9 -13882616.94248  21638930.331    21638929.4414   21638941.4404
 -27716354.187 9 -21579239.24249  20650758.088    20650757.8184   20650768.3124
  -5004996.941 9  -3893053.87945  24895494.693    24895494.6874   24895510.4684
 00  4 19 22  2  8.0000000  0  9 26 30 17  5 23 24 10  6 13          0.000000012
  -7958341.173 9  -6187210.11645  23762831.464    23762831.2154   23762853.9264
 -21974273.681 9 -17112819.73348  21300684.441    21300684.5434   21300696.3724
 -18282837.743 9 -14223067.78148  21997306.713    21997306.0024   21997319.1974
 -12245379.679 9  -9129998.58546  23117328.207    23117327.4574   23117345.8724
  -7304802.199 8  -5668635.13445  24135542.618    24135542.1934   24135568.2614
  -4948709.424 9  -3834015.45946  23940974.378    23940974.0884   23940990.3424
 -18143972.637 9 -13881737.69948  21639145.045    21639144.1524   21639156.1574
 -27717021.291 9 -21579759.06249  20650631.141    20650630.8664   20650641.3644
  -5004826.981 9  -3892921.44445  24895527.041    24895527.0454   24895542.8224
 00  4 19 22  2  8.0000000  0  9 26 30 17  5 23 24 10  6 13          0.000000012
  -7959761.476 9  -6188316.83945  23762561.190    23762560.9424   23762583.6524
 -21973208.014 9 -17111989.34848  21300887.235    21300887.3324   21300899.1664
 -18283671.933 9 -14223717.79748  21997147.959    21997147.2524   21997160.4464
 -12243665.179 9  -9128662.61846  23117654.479    23117653.7304   23117672.1544
  -7306537.059 9  -5669986.96545  24135212.492    24135212.0624   24135238.1304
  -4947463.356 9  -3833044.50246  23941211.485    23941211.1944   23941227.4574
 -18142844.152 9 -13880858.36148  21639359.799    21639358.9134   21639370.9094
 -27717688.324 9 -21580278.82849  20650504.219    20650503.9444   20650514.4384
  -5004656.901 9  -3892788.91445  24895559.411    24895559.4224   24895575.2044
 00  4 19 22  2  9.0000000  0  9 26 30 17  5 23 24 10  6 13          0.000000012
  -7961181.651 9  -6189423.46345  23762290.940    23762290.6904   23762313.3924
 -21972142.139 9 -17111158.79748  21301090.071    21301090.1724   21301102.0084
 -18284505.988 9 -14224367.70648  21996989.250    21996988.5524   21997001.7324
 -12241950.552 9  -9127326.55146  23117980.746    23117980.0054   23117998.4154
  -7308271.765 8  -5671338.67745  24134882.372    24134881.9404   24134908.0154
  -4946217.241 9  -3832073.50546  23941448.634    23941448.3404   23941464.6024
 -18141715.471 9 -13879978.87048  21639574.577    21639573.6854   21639585.6854
 -27718355.197 9 -21580798.47049  20650377.311    20650377.0514   20650387.5374
  -5004486.577 9  -3892656.19245  24895591.799    24895591.8204   24895607.5934
 00  4 19 22  2  9.0000000  0  9 26 30 17  5 23 24 10  6 13          0.000000012
  -7962601.851 8  -6190530.10745  23762020.678    23762020.4174   23762043.1274
 -21971076.163 9 -17110328.16848  21301292.937    21301293.0424   21301304.8744
 -18285339.981 9 -14225017.56948  21996830.540    21996829.8324   21996843.0164
 -12240235.928 9  -9125990.48946  23118307.031    23118306.2894   23118324.7104
  -7310006.470 8  -5672690.38645  24134552.251    24134551.8194   24134577.8894
  -4944971.135 9  -3831102.51646  23941685.769    23941685.4754   23941701.7404
 -18140586.708 9 -13879099.31548  21639789.372    21639788.4864   21639800.4854
 -27719022.012 9 -21581318.06449  20650250.429    20650250.1694   20650260.6524
  -5004316.145 9  -3892523.38545  24895624.235    24895624.2574   24895640.0404
 00  4 19 22  2 10.0000000  0  9 26 30 17  5 23 24 10  6 13          0.000000012
  -7964022.098 8  -6191636.78945  23761750.414    23761750.1544   23761772.8564
 -21970010.093 9 -17109497.46548  21301495.793    21301495.8914   21301507.7294
 -18286173.956 9 -14225667.41948  21996671.853    21996671.1424   21996684.3274
 -12238521.285 9  -9124654.40646  23118633.327    23118632.5834   23118651.0004
  -7311741.171 9  -5674042.09045  24134222.138    24134221.7074   24134247.7784
  -4943725.056 9  -3830131.54746  23941922.887    23941922.6014   23941938.8684
 -18139457.848 9 -13878219.68448  21640004.187    21640003.2974   21640015.2974
 -27719688.782 9 -21581837.62549  20650123.550    20650123.2874   20650133.7664
  -5004145.600 9  -3892390.49045  24895656.701    24895656.7344   24895672.5004
 00  4 19 22  2 10.0000000  0  9 26 30 17  5 23 24 10  6 13          0.000000012
  -7965442.311 8  -6192743.44245  23761480.133    23761479.8714   23761502.5664
 -21968943.954 9 -17108666.70748  21301698.655    21301698.7514   21301710.5884
 -18287007.927 9 -14226317.26548  21996513.147    21996512.4414   21996525.6244
 -12236806.681 9  -9123318.35646  23118959.602    23118958.8674   23118977.2794
  -7313475.890 8  -5675393.81145  24133892.021    24133891.5864   24133917.6574
  -4942479.060 9  -3829160.64346  23942159.980    23942159.6974   23942175.9554
 -18138328.946 9 -13877340.02248  21640219.007    21640218.1194   21640230.1234
 -27720355.536 9 -21582357.17249  20649996.661    20649996.3854   20650006.8844
  -5003975.005 9  -3892257.55745  24895689.163    24895689.2024   24895704.9654
 00  4 19 22  2 11.0000000  0  9 26 30 17  5 23 24 10  6 13          0.000000012
  -7966862.539 8  -6193850.10545  23761209.869    23761209.6084   23761232.2994
 -21967877.700 9 -17107835.86148  21301901.569    21301901.6704   21301913.5134
 -18287841.841 9 -14226967.06648  21996354.458    21996353.7514   21996366.9364
 -12235092.055 9  -9121982.28846  23119285.900    23119285.1614   23119303.5784
  -7315210.572 9  -5676745.50345  24133561.920    24133561.4844   24133587.5544
  -4941233.066 9  -3828189.73746  23942397.077    23942396.8034   23942413.0634
 -18137199.937 9 -13876460.27348  21640433.867    21640432.9804   21640444.9804
 -27721022.227 9 -21582876.67149  20649869.796    20649869.5234   20649880.0164
  -5003804.265 9  -3892124.51345  24895721.639    24895721.6904   24895737.4484
 00  4 19 22  2 11.0000000  0  9 26 30 17  5 23 24 10  6 13          0.000000012
  -7968282.628 9  -6194956.66245  23760939.643    23760939.3754   23760962.0734
 -21966811.181 9 -17107004.80848  21302104.525    21302104.6304   21302116.4644
 -18288675.566 9 -14227616.71948  21996195.797    21996195.0914   21996208.2674
 -12233377.276 9  -9120646.10246  23119612.205    23119611.4754   23119629.8914
  -7316945.089 9  -5678097.06545  24133231.841    24133231.4034   24133257.4634
  -4939986.946 9  -3827218.73846  23942634.204    23942633.9294   23942650.1844
 -18136070.682 9 -13875580.33648  21640648.737    21640647.8514   21640659.8574
 -27721688.712 9 -21583396.01049  20649742.963    20649742.7014   20649753.1804
  -5003633.261 9  -3891991.26045  24895754.185    24895754.2374   24895769.9904
 00  4 19 22  2 12.0000000  0  9 26 30 17  5 23 24 10  6 13          0.000000012
  -7969702.726 9  -6196063.22445  23760669.401    23760669.1324   23760691.8274
 -21965744.603 9 -17106173.71448  21302307.480    21302307.5794   21302319.4224
 -18289509.294 9 -14228266.37648  21996037.142    21996036.4314   21996049.6164
 -12231662.520 9  -9119309.93746  23119938.533    23119937.7994   23119956.2214
  -7318679.629 9  -5679448.64445  24132901.757    24132901.3214   24132927.3814
  -4938740.920 9  -3826247.80946  23942871.326    23942871.0554   23942887.3124
 -18134941.370 9 -13874700.35448  21640863.654    21640862.7624   21640874.7634
 -27722355.175 9 -21583915.33249  20649616.148    20649615.8784   20649626.3604
  -5003462.187 9  -3891857.95445  24895786.734    24895786.7954   24895802.5364
 00  4 19 22  2 12.0000000  0  9 26 30 17  5 23 24 10  6 13          0.000000012
  -7971122.743 9  -6197169.72445  23760399.150    23760398.8794   23760421.5774
 -21964677.839 9 -17105342.47248  21302510.494    21302510.5994   21302522.4404
 -18290342.900 9 -14228915.93948  21995878.507    21995877.8014   21995890.9774
 -12229947.691 9  -9117973.71246  23120264.859    23120264.1344   23120282.5514
  -7320414.089 9  -5680800.16245  24132571.679    24132571.2404   24132597.2994
  -4937494.817 9  -3825276.82546  23943108.439    23943108.1614   23943124.4294
 -18133811.900 9 -13873820.25048  21641078.578    21641077.6944   21641089.6874
 -27723021.512 9 -21584434.55649  20649489.352    20649489.0764   20649499.5644
  -5003290.933 9  -3891724.50945  24895819.312    24895819.3824   24895835.1104
 00  4 19 22  2 13.0000000  0  9 26 30 17  5 23 24 10  6 13          0.000000012
  -7972542.840 9  -6198276.28845  23760128.910    23760128.6464   23760151.3384
 -21963611.052 9 -17104511.21248  21302713.492    21302713.5884   21302725.4324
 -18291176.541 9 -14229565.52748  21995719.889    21995719.1814   21995732.3654
 -12228232.922 9  -9116637.53246  23120591.155    23120590.4284   23120608.8484
  -7322148.587 9  -5682151.70945  24132241.622    24132241.1884   24132267.2374
  -4936248.822 9  -3824305.92546  23943345.569    23943345.2874   23943361.5594
 -18132682.407 9 -13872940.12648  21641293.505    21641292.6154   21641304.6244
 -27723687.875 9 -21584953.79849  20649362.522    20649362.2444   20649372.7424
  -5003119.635 9  -3891591.03145  24895851.921    24895851.9904   24895867.7294
 00  4 19 22  2 13.0000000  0  9 26 30 17  5 23 24 10  6 13          0.000000012
  -7973962.849 8  -6199382.78145  23759858.710    23759858.4434   23759881.1284
 -21962544.058 9 -17103679.79048  21302916.527    21302916.6274   21302928.4744
 -18292010.055 9 -14230215.01848  21995561.274    21995560.5704   21995573.7504
 -12226518.045 9  -9115301.27146  23120917.511    23120916.7824   23120935.2024
  -7323882.987 9  -5683503.18045  24131911.554    24131911.1174   24131937.1734
  -4935002.772 9  -3823334.97846  23943582.686    23943582.4134   23943598.6804
 -18131552.718 9 -13872059.85148  21641508.495    21641507.6064   21641519.6074
 -27724354.073 9 -21585472.91249  20649235.752    20649235.4924   20649245.9734
  -5002948.122 8  -3891457.38545  24895884.572    24895884.6474   24895900.3684
 00  4 19 22  2 14.0000000  0  9 26 30 17  5 23 24 10  6 13          0.000000012
  -7975382.834 8  -6200489.25545  23759588.477    23759588.2104   23759610.8964
 -21961476.936 9 -17102848.26748  21303119.607    21303119.7074   21303131.5464
 -18292843.497 9 -14230864.45048  21995402.660    21995401.9504   21995415.1334
 -12224803.137 9  -9113964.98746  23121243.833    23121243.1064   23121261.5264
  -7325617.359 9  -5684854.62945  24131581.504    24131581.0754   24131607.1224
  -4933756.715 9  -3822364.03046  23943819.807    23943819.5294   23943835.8074
 -18130422.934 9 -13871179.50048  21641723.473    21641722.5874   21641734.5874
 -27725020.201 9 -21585991.97149  20649108.990    20649108.7294   20649119.2074
  -5002776.487 9  -3891323.64345  24895917.218    24895917.3044   24895933.0264
 00  4 19 22  2 14.0000000  0  9 26 30 17  5 23 24 10  6 13          0.000000012
  -7976802.895 8  -6201595.78745  23759318.261    23759317.9874   23759340.6784
 -21960409.778 9 -17102016.71848  21303322.669    21303322.7664   21303334.6134
 -18293676.962 9 -14231513.90148  21995244.060    21995243.3504   21995256.5314
 -12223088.286 9  -9112628.74046  23121570.165    23121569.4404   23121587.8544
  -7327351.761 8  -5686206.10445  24131251.457    24131251.0234   24131277.0694
  -4932510.748 9  -3821393.14946  23944056.889    23944056.6154   23944072.8914
 -18129293.115 9 -13870299.12348  21641938.492    21641937.6084   21641949.6084
 -27725686.339 9 -21586511.03849  20648982.238    20648981.9774   20648992.4554
  -5002604.802 9  -3891189.86145  24895949.880    24895949.9724   24895965.6944
 00  4 19 22  2 15.0000000  0  9 26 30 17  5 23 24 10  6 13          0.000000012
  -7978222.805 8  -6202702.20245  23759048.039    23759047.7644   23759070.4524
 -21959342.367 9 -17101184.97148  21303525.803    21303525.9064   21303537.7534
 -18294510.252 9 -14232163.21748  21995085.475    21995084.7704   21995097.9504
 -12221373.284 9  -9111292.38546  23121896.540    23121895.8144   23121914.2314
  -7329086.009 9  -5687557.45645  24130921.447    24130921.0224   24130947.0604
  -4931264.666 9  -3820422.17746  23944294.011    23944293.7304   23944310.0094
 -18128163.058 9 -13869418.55948  21642153.514    21642152.6294   21642164.6284
 -27726352.273 9 -21587029.94749  20648855.510    20648855.2354   20648865.7314
  -5002432.846 9  -3891055.87145  24895982.610    24895982.7094   24895998.4214
 00  4 19 22  2 15.0000000  0  9 26 30 17  5 23 24 10  6 13          0.000000013
  -7979642.713 9  -6203808.61745  23758777.828    23758777.5514   23758800.2404
 -21958274.868 9 -17100353.15548  21303728.934    21303729.0354   21303740.8824
 -18295343.506 9 -14232812.50448  21994926.931    21994926.2304   21994939.4054
 -12219658.283 9  -9109956.02646  23122222.893    23122222.1684   23122240.5824
  -7330820.241 9  -5688908.79745  24130591.429    24130591.0004   24130617.0444
  -4930018.627 9  -3819451.23746  23944531.140    23944530.8564   23944547.1454
 -18127032.933 9 -13868537.94348  21642368.592    21642367.7014   21642379.7064
 -27727018.170 9 -21587548.82649  20648728.803    20648728.5334   20648739.0164
  -5002260.786 9  -3890921.79445  24896015.372    24896015.4674   24896031.1694
 00  4 19 22  2 16.0000000  0  9 26 30 17  5 23 24 10  6 13          0.000000013
  -7981062.623 9  -6204915.03345  23758507.623    23758507.3484   23758530.0354
 -21957207.286 9 -17099521.27548  21303932.085    21303932.1844   21303944.0364
 -18296176.742 9 -14233461.77748  21994768.357    21994767.6494   21994780.8234
 -12217943.285 9  -9108619.67346  23122549.237    23122548.5114   23122566.9334
  -7332554.488 8  -5690260.14945  24130261.382    24130260.9594   24130286.9974
  -4928772.634 9  -3818480.33246  23944768.240    23944767.9524   23944784.2394
 -18125902.738 9 -13867657.27448  21642583.636    21642582.7524   21642594.7544
 -27727684.033 9 -21588067.67949  20648602.090    20648601.8204   20648612.3104
  -5002088.682 9  -3890787.68345  24896048.098    24896048.2044   24896063.8964
 00  4 19 22  2 16.0000000  0  9 26 30 17  5 23 24 10  6 13          0.000000013
  -7982482.456 9  -6206021.38845  23758237.435    23758237.1654   23758259.8474
 -21956139.526 9 -17098689.25548  21304135.286    21304135.3944   21304147.2404
 -18297009.871 9 -14234110.96848  21994609.810    21994609.1194   21994622.2784
 -12216228.211 9  -9107283.25846  23122875.610    23122874.8964   23122893.3024
  -7334288.648 8  -5691611.43345  24129931.381    24129930.9574   24129956.9984
  -4927526.587 9  -3817509.39246  23945005.355    23945005.0684   23945021.3494
 -18124772.365 9 -13866776.46348  21642798.751    21642797.8634   21642809.8634
 -27728349.764 9 -21588586.43149  20648475.422    20648475.1484   20648485.6324
  -5001916.331 8  -3890653.38245  24896080.917    24896081.0124   24896096.7144
 00  4 19 22  2 17.0000000  0  9 26 30 17  5 23 24 10  6 13          0.000000013
  -7983902.337 9  -6207127.78145  23757967.253    23757966.9734   23757989.6584
 -21955071.699 9 -17097857.18348  21304338.472    21304338.5734   21304350.4264
 -18297842.995 9 -14234760.15048  21994451.281    21994450.5794   21994463.7464
 -12214513.167 9  -9105946.86446  23123201.989    23123201.2804   23123219.6794
  -7336022.821 9  -5692962.72645  24129601.375    24129600.9554   24129626.9924
  -4926280.609 9  -3816538.50046  23945242.453    23945242.1644   23945258.4424
 -18123641.953 9 -13865895.62148  21643013.869    21643012.9844   21643024.9884
 -27729015.481 9 -21589105.17049  20648348.732    20648348.4564   20648358.9474
  -5001743.957 8  -3890519.06245  24896113.698    24896113.7894   24896129.4954
 00  4 19 22  2 17.0000000  0  9 26 30 17  5 23 24 10  6 13          0.000000013
  -7985322.109 8  -6208234.09245  23757697.066    23757696.7904   23757719.4644
 -21954003.646 9 -17097024.93548  21304541.718    21304541.8224   21304553.6694
 -18298675.951 9 -14235409.20748  21994292.789    21994292.0894   21994305.2544
 -12212797.996 9  -9104610.37546  23123528.370    23123527.6644   23123546.0614
  -7337756.873 9  -5694313.92745  24129271.375    24129270.9644   24129296.9874
  -4925034.547 9  -3815567.54246  23945479.560    23945479.2704   23945495.5464
 -18122511.330 9 -13865014.61948  21643229.011    21643228.1254   21643240.1234
 -27729681.034 9 -21589623.78249  20648222.072    20648221.7944   20648232.3014
  -5001571.343 9  -3890384.55645  24896146.547    24896146.6464   24896162.3354
 00  4 19 22  2 18.0000000  0  9 26 30 17  5 23 24 10  6 13          0.000000013
  -7986741.903 8  -6209340.41845  23757426.894    23757426.6164   23757449.2844
 -21952935.514 9 -17096192.62848  21304744.995    21304745.1024   21304756.9414
 -18299508.907 9 -14236058.26448  21994134.271    21994133.5684   21994146.7434
 -12211082.829 9  -9103273.88746  23123854.764    23123854.0584   23123872.4604
  -7339490.928 9  -5695665.12745  24128941.395    24128940.9824   24128967.0134
  -4923788.539 9  -3814596.63246  23945716.680    23945716.3854   23945732.6614
 -18121380.631 9 -13864133.55748  21643444.182    21643443.2964   21643455.2974
 -27730346.549 9 -21590142.36549  20648095.438    20648095.1614   20648105.6614
  -5001398.629 8  -3890249.97445  24896179.409    24896179.5134   24896195.1994
 00  4 19 22  2 18.0000000  0  9 26 30 17  5 23 24 10  6 13          0.000000013
  -7988161.700 8  -6210446.74745  23757156.711    23757156.4344   23757179.0974
 -21951867.264 9 -17095360.22848  21304948.275    21304948.3814   21304960.2234
 -18300341.804 9 -14236707.27248  21993975.781    21993975.0784   21993988.2534
 -12209367.641 9  -9101937.38446  23124181.162    23124180.4524   23124198.8614
  -7341224.940 9  -5697016.29645  24128611.401    24128611.0014   24128637.0184
  -4922542.548 9  -3813625.73446  23945953.771    23945953.4914   23945969.7634
 -18120249.837 9 -13863252.42048  21643659.360    21643658.4774   21643670.4794
 -27731012.001 9 -21590660.89949  20647968.793    20647968.5194   20647979.0144
  -5001225.797 9  -3890115.29745  24896212.320    24896212.4114   24896228.0984
 00  4 19 22  2 19.0000000  0  9 26 30 17  5 23 24 10  6 13          0.000000013
  -7989581.436 8  -6211553.02745  23756886.522    23756886.2414   23756908.9054
 -21950798.880 9 -17094527.72348  21305151.581    21305151.6804   21305163.5304
 -18301174.623 9 -14237356.21848  21993817.303    21993816.5984   21993829.7754
 -12207652.399 9  -9100600.83746  23124507.555    23124506.8564   23124525.2684
  -7342958.919 9  -5698367.43845  24128281.432    24128281.0304   24128307.0454
  -4921296.547 9  -3812654.82546  23946190.878    23946190.5974   23946206.8704
 -18119118.916 9 -13862371.18348  21643874.565    21643873.6784   21643885.6844
 -27731677.361 9 -21591179.36049  20647842.191    20647841.9164   20647852.4084
  -5001052.823 8  -3889980.51345  24896245.224    24896245.3184   24896260.9964
 00  4 19 22  2 19.0000000  0  9 26 30 17  5 23 24 10  6 13          0.000000013
  -7991001.185 9  -6212659.31645  23756616.353    23756616.0684   23756638.7374
 -21949730.394 9 -17093695.13748  21305354.899    21305355.0004   21305366.8474
 -18302007.422 9 -14238005.15148  21993658.805    21993658.0984   21993671.2674
 -12205937.164 9  -9099264.29746  23124833.953    23124833.2504   23124851.6614
  -7344692.896 9  -5699718.57745  24127951.476    24127951.0784   24127977.0834
  -4920050.606 9  -3811683.96446  23946427.981    23946427.7034   23946443.9764
 -18117987.909 9 -13861489.88248  21644089.786    21644088.8994   21644100.9054
 -27732342.680 9 -21591697.79049  20647715.594    20647715.3244   20647725.8144
  -5000879.736 9  -3889845.64145  24896278.168    24896278.2554   24896293.9364
 00  4 19 22  2 20.0000000  0  9 26 30 17  5 23 24 10  6 13          0.000000013
  -7992420.860 9  -6213765.55045  23756346.211    23756345.9344   23756368.5934
 -21948661.746 9 -17092862.42748  21305558.273    21305558.3794   21305570.2214
 -18302840.101 9 -14238653.99048  21993500.372    21993499.6674   21993512.8394
 -12204221.858 9  -9097927.69746  23125160.383    23125159.6844   23125178.0994
  -7346426.787 9  -5701069.65145  24127621.497    24127621.0964   24127647.1114
  -4918804.621 9  -3810713.07146  23946665.078    23946664.7984   23946681.0714
 -18116856.750 9 -13860608.45948  21644305.045    21644304.1504   21644316.1634
 -27733007.888 9 -21592216.13449  20647588.991    20647588.7224   20647599.2154
  -5000706.490 8  -3889710.64445  24896311.121    24896311.2134   24896326.8824
 00  4 19 22  2 20.0000000  0  9 26 30 17  5 23 24 10  6 13          0.000000014
  -7993840.550 9  -6214871.79545  23756076.030    23756075.7514   23756098.4034
 -21947593.023 9 -17092029.65548  21305761.649    21305761.7584   21305773.6024
 -18303672.773 9 -14239302.82648  21993341.897    21993341.1874   21993354.3604
 -12202506.560 9  -9096591.10746  23125486.810    23125486.1094   23125504.5254
  -7348160.672 9  -5702420.71945  24127291.548    24127291.1554   24127317.1594
  -4917558.708 9  -3809742.23246  23946902.182    23946901.9044   23946918.1814
 -18115725.526 9 -13859726.98448  21644520.324    21644519.4414   21644531.4434
 -27733673.062 9 -21592734.45049  20647462.417    20647462.1494   20647472.6394
  -5000533.139 9  -3889575.56745  24896344.121    24896344.2104   24896359.8774
 00  4 19 22  2 21.0000000  0  9 26 30 17  5 23 24 10  6 13          0.000000014
  -7995260.189 9  -6215978.00345  23755805.870    23755805.5884   23755828.2424
 -21946524.163 9 -17091196.78148  21305965.032    21305965.1374   21305976.9884
 -18304505.379 9 -14239951.61048  21993183.465    21993182.7574   21993195.9284
 -12200791.212 9  -9095254.48146  23125813.206    23125812.5024   23125830.9184
  -7349894.546 8  -5703771.78145  24126961.601    24126961.2134   24126987.2024
  -4916312.779 9  -3808771.38246  23947139.260    23947138.9904   23947155.2574
 -18114594.169 9 -13858845.40948  21644735.611    21644734.7224   21644746.7274
 -27734338.153 9 -21593252.70349  20647335.868    20647335.5874   20647346.0844
  -5000359.652 9  -3889440.37945  24896377.137    24896377.2174   24896392.8924
 00  4 19 22  2 21.0000000  0  9 26 30 17  5 23 24 10  6 13          0.000000014
  -7996679.747 9  -6217084.14645  23755535.731    23755535.4554   23755558.0994
 -21945455.109 9 -17090363.75648  21306168.482    21306168.5864   21306180.4414
 -18305337.842 9 -14240600.28148  21993025.063    21993024.3564   21993037.5234
 -12199075.776 9  -9093917.78446  23126139.676    23126138.9764   23126157.3914
  -7351628.279 9  -5705122.73445  24126631.657    24126631.2624   24126657.2624
  -4915066.790 9  -3807800.48546  23947376.365    23947376.0964   23947392.3674
 -18113462.637 9 -13857963.69648  21644950.934    21644950.0434   21644962.0554
 -27735003.104 9 -21593770.84749  20647209.314    20647209.0454   20647219.5364
  -5000185.967 8  -3889305.04245  24896410.177    24896410.2544   24896425.9244
 00  4 19 22  2 22.0000000  0  9 26 30 17  5 23 24 10  6 13          0.000000014
  -7998099.354 8  -6218190.32745  23755265.586    23755265.3124   23755287.9484
 -21944385.995 9 -17089530.68148  21306371.908    21306372.0154   21306383.8634
 -18306170.304 9 -14241248.95148  21992866.651    21992865.9464   21992879.1104
 -12197360.348 9  -9092581.09446  23126466.090    23126465.3904   23126483.8044
  -7353362.036 9  -5706473.70245  24126301.753    24126301.3604   24126327.3564
  -4913820.867 9  -3806829.63846  23947613.472    23947613.2024   23947629.4734
 -18112331.049 9 -13857081.94348  21645166.280    21645165.3944   21645177.4034
 -27735668.042 9 -21594288.97949  20647082.778    20647082.5024   20647092.9974
  -5000012.211 9  -3889169.64445  24896443.250    24896443.3324   24896459.0004
 00  4 19 22  2 22.0000000  0  9 26 30 17  5 23 24 10  6 13          0.000000014
  -7999518.859 8  -6219296.43145  23754995.466    23754995.1894   23755017.8264
 -21943316.674 9 -17088697.44448  21306575.395    21306575.5054   21306587.3554
 -18307002.636 9 -14241897.51748  21992708.237    21992707.5454   21992720.6994
 -12195644.820 9  -9091244.32746  23126792.576    23126791.8744   23126810.2894
  -7355095.697 9  -5707824.59645  24125971.814    24125971.4284   24125997.4174
  -4912574.890 9  -3805858.75146  23947850.561    23947850.2884   23947866.5714
 -18111199.275 9 -13856200.04248  21645381.652    21645380.7654   21645392.7714
 -27736332.824 9 -21594806.99249  20646956.289    20646956.0204   20646966.5014
  -4999838.229 9  -3889034.07545  24896476.353    24896476.4294   24896492.0994
 00  4 19 22  2 23.0000000  0  9 26 30 17  5 23 24 10  6 13          0.000000014
  -8000938.378 8  -6220402.54345  23754725.357    23754725.0864   23754747.7044
 -21942247.265 9 -17087864.14248  21306778.919    21306779.0244   21306790.8804
 -18307834.934 9 -14242546.05948  21992549.879    21992549.1854   21992562.3474
 -12193929.304 9  -9089907.56746  23127119.029    23127118.3294   23127136.7504
  -7356829.313 9  -5709175.45845  24125641.923    24125641.5374   24125667.5224
  -4911328.952 9  -3804887.89146  23948087.657    23948087.3844   23948103.6704
 -18110067.425 9 -13855318.08248  21645597.013    21645596.1264   21645608.1304
 -27736997.575 9 -21595324.97749  20646829.789    20646829.5274   20646840.0084
  -4999664.162 8  -3888898.43645  24896509.482    24896509.5464   24896525.2324
 00  4 19 22  2 23.0000000  0  9 26 30 17  5 23 24 10  6 13          0.000000014
  -8002357.905 8  -6221508.66045  23754455.207    23754454.9334   23754477.5584
 -21941177.784 9 -17087030.78048  21306982.429    21306982.5334   21306994.3914
 -18308667.214 9 -14243194.58848  21992391.494    21992390.8044   21992403.9554
 -12192213.791 9  -9088570.80946  23127445.486    23127444.7834   23127463.2064
  -7358562.985 9  -5710526.36245  24125312.015    24125311.6354   24125337.6134
  -4910083.073 9  -3803917.07846  23948324.764    23948324.5004   23948340.7754
 -18108935.516 9 -13854436.07348  21645812.426    21645811.5364   21645823.5464
 -27737662.304 9 -21595842.94749  20646703.280    20646703.0154   20646713.4974
  -4999490.003 8  -3888762.72845  24896542.631    24896542.6934   24896558.3834
 00  4 19 22  2 24.0000000  0  9 26 30 17  5 23 24 10  6 13          0.000000014
  -8003777.435 9  -6222614.77845  23754185.077    23754184.8114   23754207.4204
 -21940108.203 9 -17086197.34148  21307185.967    21307186.0724   21307197.9284
 -18309499.470 9 -14243843.09548  21992233.126    21992232.4244   21992245.5944
 -12190498.284 9  -9087234.05746  23127771.935    23127771.2374   23127789.6604
  -7360296.620 9  -5711877.23845  24124982.109    24124981.7334   24125007.7124
  -4908837.221 9  -3802946.28846  23948561.828    23948561.5564   23948577.8444
 -18107803.514 9 -13853553.99448  21646027.821    21646026.9374   21646038.9414
 -27738326.981 9 -21596360.87649  20646576.821    20646576.5524   20646587.0334
  -4999315.747 8  -3888626.94145  24896575.793    24896575.8404   24896591.5354
 00  4 19 22  2 24.0000000  0  9 26 30 17  5 23 24 10  6 13          0.000000015
  -8005196.904 9  -6223720.84945  23753914.944    23753914.6784   23753937.2904
 -21939038.484 9 -17085363.79548  21307389.530    21307389.6314   21307401.4964
 -18310331.641 9 -14244491.53748  21992074.772    21992074.0744   21992087.2364
 -12188782.729 9  -9085897.26646  23128098.386    23128097.6814   23128116.1114
  -7362030.207 9  -5713228.07745  24124652.210    24124651.8424   24124677.8114
  -4907591.372 9  -3801975.49346  23948798.917    23948798.6514   23948814.9374
 -18106671.397 9 -13852671.82648  21646243.260    21646242.3684   21646254.3784
 -27738991.578 9 -21596878.74349  20646450.347    20646450.0804   20646460.5694
  -4999141.343 9  -3888491.03945  24896608.970    24896609.0174   24896624.7154
 00  4 19 22  2 25.0000000  0  9 26 30 17  5 23 24 10  6 13          0.000000015
  -8006616.324 9  -6224826.88345  23753644.842    23753644.5754   23753667.1834
 -21937968.618 9 -17084530.13448  21307593.123    21307593.2304   21307605.0884
 -18311163.729 9 -14245139.91748  21991916.421    21991915.7244   21991928.8894
 -12187067.116 9  -9084560.43046  23128424.859    23128424.1554   23128442.5854
  -7363763.731 9  -5714578.86345  24124322.329    24124321.9604   24124347.9294
  -4906345.503 9  -3801004.68646  23949035.982    23949035.7174   23949052.0054
 -18105539.141 9 -13851789.55048  21646458.717    21646457.8294   21646469.8384
 -27739656.070 9 -21597396.52749  20646323.897    20646323.6384   20646334.1224
  -4998966.777 9  -3888355.01245  24896642.183    24896642.2244   24896657.9334
 00  4 19 22  2 25.0000000  0  9 26 30 17  5 23 24 10  6 13          0.000000015
  -8008035.723 9  -6225932.89945  23753374.736    23753374.4624   23753397.0724
 -21936898.636 9 -17083696.38448  21307796.734    21307796.8394   21307808.7084
 -18311995.762 9 -14245788.25148  21991758.072    21991757.3834   21991770.5364
 -12185351.471 9  -9083223.57046  23128751.348    23128750.6484   23128769.0764
  -7365497.226 9  -5715929.63045  24123992.422    24123992.0584   24124018.0224
  -4905099.639 9  -3800033.88546  23949273.083    23949272.8234   23949289.1034
 -18104406.775 9 -13850907.19048  21646674.225    21646673.3304   21646685.3474
 -27740320.499 9 -21597914.26649  20646197.459    20646197.1854   20646207.6874
  -4998792.091 9  -3888218.89045  24896675.437    24896675.4714   24896691.1804
 00  4 19 22  2 26.0000000  0  9 26 30 17  5 23 24 10  6 13          0.000000015
  -8009455.064 8  -6227038.87145  23753104.649    23753104.3794   23753126.9814
 -21935828.486 9 -17082862.50348  21308000.381    21308000.4884   21308012.3504
 -18312827.696 9 -14246436.51248  21991599.774    21991599.0834   21991612.2324
 -12183635.770 9  -9081886.66646  23129077.834    23129077.1324   23129095.5564
  -7367230.644 8  -5717280.33745  24123662.569    24123662.2174   24123688.1664
  -4903853.760 9  -3799063.07246  23949510.148    23949509.8794   23949526.1544
 -18103274.269 9 -13850024.71648  21646889.722    21646888.8214   21646900.8314
 -27740984.816 9 -21598431.91449  20646071.030    20646070.7634   20646081.2574
  -4998617.241 9  -3888082.63945  24896708.687    24896708.7184   24896724.4324
 00  4 19 22  2 26.0000000  0  9 26 30 17  5 23 24 10  6 13          0.000000015
  -8010874.430 8  -6228144.86446  23752834.542    23752834.2664   23752856.8744
 -21934758.245 9 -17082028.55248  21308204.021    21308204.1274   21308215.9894
 -18313659.596 9 -14247084.74448  21991441.466    21991440.7724   21991453.9334
 -12181920.064 9  -9080549.75746  23129404.339    23129403.6364   23129422.0684
  -7368964.041 9  -5718631.02645  24123332.701    24123332.3454   24123358.2914
  -4902607.935 9  -3798092.29746  23949747.228    23949746.9654   23949763.2344
 -18102141.681 9 -13849142.18348  21647105.248    21647104.3424   21647116.3714
 -27741649.092 9 -21598949.53149  20645944.618    20645944.3404   20645954.8344
  -4998442.295 9  -3887946.31745  24896741.992    24896742.0154   24896757.7324
 00  4 19 22  2 27.0000000  0  9 26 30 17  5 23 24 10  6 13          0.000000015
  -8012293.779 8  -6229250.84345  23752564.455    23752564.1834   23752586.7864
 -21933687.909 9 -17081194.52748  21308407.710    21308407.8164   21308419.6844
 -18314491.472 9 -14247732.95848  21991283.175    21991282.4824   21991295.6374
 -12180204.338 9  -9079212.83346  23129730.822    23129730.1204   23129748.5524
  -7370697.441 9  -5719981.71945  24123002.842    24123002.4944   24123028.4344
  -4901362.135 9  -3797121.54546  23949984.299    23949984.0314   23950000.3114
 -18101008.999 9 -13848259.57348  21647320.806    21647319.9124   21647331.9254
 -27742313.308 9 -21599467.10249  20645818.250    20645817.9784   20645828.4764
  -4998267.231 8  -3887809.90545  24896775.320    24896775.3424   24896791.0564
 00  4 19 22  2 27.0000000  0  9 26 30 17  5 23 24 10  6 13          0.000000015
  -8013712.979 8  -6230356.70745  23752294.389    23752294.1194   23752316.7114
 -21932617.308 9 -17080360.29548  21308611.448    21308611.5554   21308623.4214
 -18315323.135 9 -14248381.00848  21991124.904    21991124.2024   21991137.3694
 -12178488.453 9  -9077875.78646  23130057.370    23130056.6644   23130075.0994
  -7372430.647 9  -5721332.25945  24122673.008    24122672.6624   24122698.5994
  -4900116.218 9  -3796150.70346  23950221.387    23950221.1174   23950237.3904
 -18099876.079 9 -13847376.78248  21647536.390    21647535.4934   21647547.5094
 -27742977.322 9 -21599984.51749  20645691.887    20645691.6154   20645702.1134
  -4998091.918 8  -3887673.29645  24896808.659    24896808.6794   24896824.3914
 00  4 19 22  2 28.0000000  0  9 26 30 17  5 23 24 10  6 13          0.000000016
  -8015132.234 9  -6231462.61145  23752024.282    23752024.0064   23752046.6024
 -21931546.677 9 -17079526.03848  21308815.186    21308815.2944   21308827.1644
 -18316154.839 9 -14249029.08848  21990966.642    21990965.9414   21990979.1054
 -12176772.628 9  -9076538.78746  23130383.860    23130383.1584   23130401.5934
  -7374163.917 9  -5722682.84845  24122343.181    24122342.8404   24122368.7684
  -4898870.407 9  -3795179.94446  23950458.460    23950458.1934   23950474.4664
 -18098743.137 9 -13846493.96848  21647751.980    21647751.0844   21647763.1054
 -27743641.353 9 -21600501.94249  20645565.501    20645565.2334   20645575.7164
  -4997916.548 8  -3887536.64145  24896842.035    24896842.0454   24896857.7664
 00  4 19 22  2 28.0000000  0  9 26 30 17  5 23 24 10  6 13          0.000000016
  -8016551.431 9  -6232568.47246  23751754.215    23751753.9434   23751776.5294
 -21930475.909 9 -17078691.67248  21309018.937    21309019.0434   21309030.9184
 -18316986.468 9 -14249677.10648  21990808.397    21990807.7014   21990820.8604
 -12175056.755 9  -9075201.75146  23130710.390    23130709.6824   23130728.1284
  -7375897.147 9  -5724033.40845  24122013.329    24122012.9894   24122038.9144
  -4897624.598 9  -3794209.18046  23950695.543    23950695.2694   23950711.5494
 -18097610.058 9 -13845611.04748  21647967.605    21647966.7044   21647978.7134
 -27744305.293 9 -21601019.29749  20645439.180    20645438.9104   20645449.4014
  -4997741.045 8  -3887399.88045  24896875.443    24896875.4524   24896891.1684
 00  4 19 22  2 29.0000000  0  9 26 30 17  5 23 24 10  6 13          0.000000016
  -8017970.586 9  -6233674.29946  23751484.169    23751483.9004   23751506.4814
 -21929404.984 9 -17077857.18848  21309222.737    21309222.8424   21309234.7164
 -18317817.992 9 -14250325.04548  21990650.158    21990649.4604   21990662.6134
 -12173340.820 9  -9073864.66646  23131036.936    23131036.2264   23131054.6774
  -7377630.291 9  -5725383.90145  24121683.542    24121683.2074   24121709.1244
  -4896378.778 9  -3793238.41546  23950932.620    23950932.3444   23950948.6074
 -18096476.866 9 -13844728.04448  21648183.245    21648182.3454   21648194.3584
 -27744969.137 9 -21601536.57649  20645312.849    20645312.5784   20645323.0664
  -4997565.387 9  -3887263.00145  24896908.854    24896908.8594   24896924.5844
 00  4 19 22  2 29.0000000  0  9 26 30 17  5 23 24 10  6 13          0.000000016
  -8019389.743 9  -6234780.13146  23751214.100    23751213.8274   23751236.4084
 -21928333.975 9 -17077022.63848  21309426.524    21309426.6314   21309438.5084
 -18318649.501 9 -14250972.97148  21990491.916    21990491.2204   21990504.3754
 -12171624.888 9  -9072527.58146  23131363.480    23131362.7704   23131381.2164
  -7379363.455 9  -5726734.41045  24121353.705    24121353.3664   24121379.2864
  -4895133.004 9  -3792267.68446  23951169.687    23951169.4104   23951185.6764
 -18095343.587 9 -13843844.97148  21648398.902    21648398.0064   21648410.0144
 -27745632.942 9 -21602053.82749  20645186.517    20645186.2454   20645196.7334
  -4997389.635 9  -3887126.04745  24896942.294    24896942.2964   24896958.0184
 00  4 19 22  2 30.0000000  0  9 26 30 17  5 23 24 10  6 13          0.000000016
  -8020808.891 9  -6235885.95346  23750944.053    23750943.7844   23750966.3614
 -21927262.848 9 -17076187.99548  21309630.360    21309630.4704   21309642.3414
 -18319480.949 9 -14251620.85448  21990333.702    21990332.9994   21990346.1564
 -12169908.931 9  -9071190.47846  23131690.021    23131689.3144   23131707.7584
  -7381096.569 9  -5728084.87845  24121023.903    24121023.5644   24121049.4814
  -4893887.247 9  -3791296.96646  23951406.755    23951406.4764   23951422.7364
 -18094210.199 9 -13842961.81248  21648614.557    21648613.6564   21648625.6644
 -27746296.672 9 -21602571.01749  20645060.215    20645059.9434   20645070.4364
  -4997213.755 9  -3886988.99545  24896975.770    24896975.7734   24896991.4884
 00  4 19 22  2 30.0000000  0  9 26 30 17  5 23 24 10  6 13          0.000000016
  -8022227.999 9  -6236991.74646  23750673.985    23750673.7214   23750696.2924
 -21926191.575 9 -17075353.23948  21309834.206    21309834.2994   21309846.1874
 -18320312.319 9 -14252268.67448  21990175.507    21990174.8194   21990187.9604
 -12168192.925 9  -9069853.34046  23132016.555    23132015.8484   23132034.2964
  -7382829.628 9  -5729435.30645  24120694.100    24120693.7624   24120719.6674
  -4892641.492 9  -3790326.24946  23951643.815    23951643.5424   23951659.7864
 -18093076.694 9 -13842078.56248  21648830.266    21648829.3674   21648841.3784
 -27746960.317 9 -21603088.14449  20644933.940    20644933.6604   20644944.1624
  -4997037.717 9  -3886851.82245  24897009.260    24897009.2594   24897024.9734
 00  4 19 22  2 31.0000000  0  9 26 30 17  5 23 24 10  6 13          0.000000016
  -8023647.014 8  -6238097.46446  23750403.955    23750403.6884   23750426.2524
 -21925120.109 9 -17074518.33248  21310038.118    21310038.2284   21310050.1024
 -18321143.554 9 -14252916.38948  21990017.326    21990016.6284   21990029.7814
 -12166476.818 9  -9068516.11746  23132343.142    23132342.4324   23132360.8804
  -7384562.583 9  -5730785.65145  24120364.322    24120363.9914   24120389.8944
  -4891395.683 9  -3789355.49246  23951880.883    23951880.6074   23951896.8554
 -18091943.004 9 -13841195.17048  21649046.018    21649045.1184   21649057.1274
 -27747623.821 9 -21603605.15949  20644807.664    20644807.3874   20644817.8864
  -4996861.502 9  -3886714.50845  24897042.805    24897042.8064   24897058.5124
 00  4 19 22  2 31.0000000  0  9 26 30 17  5 23 24 10  6 13          0.000000017
  -8025066.130 8  -6239203.26246  23750133.913    23750133.6454   23750156.2064
 -21924048.648 9 -17073683.42948  21310242.005    21310242.1064   21310253.9884
 -18321974.861 9 -14253564.15748  21989859.126    21989858.4284   21989871.5854
 -12164760.824 9  -9067178.98646  23132669.678    23132668.9654   23132687.4244
  -7386295.649 9  -5732136.08345  24120034.515    24120034.1794   24120060.0804
  -4890150.017 9  -3788384.84446  23952117.924    23952117.6544   23952133.8864
 -18090809.330 9 -13840311.78548  21649261.738    21649260.8294   21649272.8544
 -27748287.371 9 -21604122.20949  20644681.411    20644681.1354   20644691.6264
  -4996685.281 9  -3886577.19145  24897076.330    24897076.3434   24897092.0444
 00  4 19 22  2 32.0000000  0  9 26 30 17  5 23 24 10  6 13          0.000000017
  -8026485.208 9  -6240309.02946  23749863.846    23749863.5824   23749886.1434
 -21922977.022 9 -17072848.39848  21310445.921    21310446.0254   21310457.9054
 -18322806.058 9 -14254211.84048  21989700.943    21989700.2474   21989713.4024
 -12163044.750 9  -9065841.78646  23132996.232    23132995.5304   23133013.9774
  -7388028.622 9  -5733486.44145  24119704.752    24119704.4174   24119730.3154
  -4888904.340 9  -3787414.18546  23952354.975    23952354.6994   23952370.9344
 -18089675.527 9 -13839428.30448  21649477.481    21649476.5694   21649488.5974
 -27748950.829 9 -21604639.19049  20644555.162    20644554.8824   20644565.3764
  -4996508.889 9  -3886439.74045  24897109.908    24897109.9194   24897125.6094
 00  4 19 22  2 32.0000000  0  9 26 30 17  5 23 24 10  6 13          0.000000017
  -8027904.168 9  -6241414.70446  23749593.844    23749593.5794   23749616.1374
 -21921905.218 9 -17072013.22948  21310649.882    21310649.9844   21310661.8604
 -18323637.135 9 -14254859.43248  21989542.810    21989542.1074   21989555.2634
 -12161328.589 9  -9064504.52546  23133322.811    23133322.1044   23133340.5554
  -7389761.504 9  -5734836.72945  24119374.982    24119374.6464   24119400.5474
  -4887658.603 9  -3786443.48446  23952592.043    23952591.7764   23952607.9974
 -18088541.547 9 -13838544.68348  21649693.285    21649692.3804   21649704.4004
 -27749614.150 9 -21605156.06349  20644428.917    20644428.6394   20644439.1334
  -4996332.328 9  -3886302.15845  24897143.511    24897143.5264   24897159.2094
 00  4 19 22  2 33.0000000  0  9 26 30 17  5 23 24 10  6 13          0.000000017
  -8029323.142 9  -6242520.38946  23749323.818    23749323.5564   23749346.1124
 -21920833.321 9 -17071177.98748  21310853.877    21310853.9834   21310865.8584
 -18324468.197 9 -14255507.01248  21989384.664    21989383.9664   21989397.1144
 -12159612.425 9  -9063167.26346  23133649.406    23133648.6974   23133667.1524
  -7391494.382 8  -5736187.01345  24119045.227    24119044.8844   24119070.7934
  -4886412.936 9  -3785472.83746  23952829.062    23952828.7914   23952845.0114
 -18087407.486 9 -13837661.00148  21649909.080    21649908.1804   21649920.1954
 -27750277.430 9 -21605672.90349  20644302.710    20644302.4374   20644312.9304
  -4996155.653 9  -3886164.48745  24897177.125    24897177.1424   24897192.8144
 00  4 19 22  2 33.0000000  0  9 26 30 17  5 23 24 10  6 13          0.000000017
  -8030742.154 9  -6243626.10546  23749053.781    23749053.5234   23749076.0714
 -21919761.359 9 -17070342.69348  21311057.866    21311057.9714   21311069.8454
 -18325299.242 9 -14256154.57848  21989226.515    21989225.8164   21989238.9644
 -12157896.314 9  -9061830.03946  23133975.980    23133975.2714   23133993.7204
  -7393227.282 8  -5737537.31545  24118715.438    24118715.1024   24118740.9984
  -4885167.344 9  -3784502.24946  23953066.110    23953065.8374   23953082.0544
 -18086273.395 9 -13836777.29648  21650124.889    21650123.9914   21650135.9994
 -27750940.714 9 -21606189.74749  20644176.487    20644176.2144   20644186.7094
  -4995978.935 9  -3886026.78345  24897210.753    24897210.7694   24897226.4314
 00  4 19 22  2 34.0000000  0  9 26 30 17  5 23 24 10  6 13          0.000000017
  -8032161.084 9  -6244731.75846  23748783.760    23748783.5004   23748806.0474
 -21918689.199 9 -17069507.24448  21311261.869    21311261.9704   21311273.8584
 -18326130.163 9 -14256802.04548  21989068.376    21989067.6754   21989080.8294
 -12156180.091 9  -9060492.72746  23134302.556    23134301.8454   23134320.3004
  -7394960.080 9  -5738887.53745  24118385.703    24118385.3614   24118411.2634
  -4883921.679 9  -3783531.60346  23953303.158    23953302.8834   23953319.1114
 -18085139.116 9 -13835893.44348  21650340.763    21650339.8624   21650351.8734
 -27751603.850 9 -21606706.47549  20644050.314    20644050.0324   20644060.5274
  -4995802.013 9  -3885888.92145  24897244.426    24897244.4464   24897260.0934
 00  4 19 22  2 34.0000000  0  9 26 30 17  5 23 24 10  6 13          0.000000017
  -8033579.969 9  -6245837.37546  23748513.742    23748513.4874   23748536.0324
 -21917616.909 9 -17068671.69648  21311465.933    21311466.0394   21311477.9194
 -18326961.012 9 -14257449.45748  21988910.271    21988909.5754   21988922.7224
 -12154463.824 9  -9059155.38346  23134629.175    23134628.4694   23134646.9154
  -7396692.847 9  -5740237.73645  24118055.943    24118055.5994   24118081.5014
  -4882676.030 9  -3782560.97246  23953540.207    23953539.9294   23953556.1494
 -18084004.718 9 -13835009.49948  21650556.604    21650555.7024   21650567.7174
 -27752266.900 9 -21607223.13749  20643924.138    20643923.8594   20643934.3574
  -4995624.946 9  -3885750.94545  24897278.099    24897278.1234   24897293.7544
 00  4 19 22  2 35.0000000  0  9 26 30 17  5 23 24 10  6 13          0.000000018
  -8034998.834 8  -6246942.97746  23748243.742    23748243.4844   23748266.0304
 -21916544.479 9 -17067836.03848  21311670.004    21311670.1084   21311681.9904
 -18327791.784 9 -14258096.81148  21988752.191    21988751.4944   21988764.6384
 -12152747.535 9  -9057818.02046  23134955.774    23134955.0634   23134973.5144
  -7398425.573 9  -5741587.90345  24117726.227    24117725.8774   24117751.7804
  -4881430.391 9  -3781590.34646  23953777.232    23953776.9554   23953793.1814
 -18082870.215 9 -13834125.46948  21650772.520    21650771.6034   21650783.6234
 -27752929.873 9 -21607739.73849  20643797.954    20643797.6764   20643808.1694
  -4995447.747 9  -3885612.86545  24897311.831    24897311.8604   24897327.4794
 00  4 19 22  2 35.0000000  0  9 26 30 17  5 23 24 10  6 13          0.000000018
  -8036417.727 8  -6248048.60046  23747973.738    23747973.4804   23747996.0144
 -21915471.972 9 -17067000.31948  21311874.094    21311874.1964   21311886.0824
 -18328622.537 9 -14258744.14848  21988594.096    21988593.3944   21988606.5524
 -12151031.251 9  -9056480.65946  23135282.378    23135281.6774   23135300.1164
  -7400158.289 9  -5742938.06245  24117396.485    24117396.1364   24117422.0424
  -4880184.815 9  -3780619.77146  23954014.269    23954013.9914   23954030.2094
 -18081735.641 9 -13833241.38848  21650988.423    21650987.5134   21650999.5364
 -27753592.818 9 -21608256.31949  20643671.808    20643671.5344   20643682.0254
  -4995270.468 9  -3885474.72345  24897345.576    24897345.6064   24897361.2144
 00  4 19 22  2 36.0000000  0  9 26 30 17  5 23 24 10  6 13          0.000000018
  -8037836.519 9  -6249154.14546  23747703.729    23747703.4774   23747726.0124
 -21914399.261 9 -17066164.44448  21312078.247    21312078.3554   21312090.2364
 -18329453.168 9 -14259391.39448  21988436.032    21988435.3334   21988448.4894
 -12149314.872 9  -9055143.22646  23135608.991    23135608.2814   23135626.7224
  -7401890.918 9  -5744288.15245  24117066.783    24117066.4244   24117092.3354
  -4878939.181 9  -3779649.15046  23954251.316    23954251.0174   23954267.2594
 -18080600.883 9 -13832357.16248  21651204.353    21651203.4444   21651215.4694
 -27754255.613 9 -21608772.78249  20643545.691    20643545.4114   20643555.9054
  -4995092.984 9  -3885336.42145  24897379.345    24897379.3734   24897394.9774
 00  4 19 22  2 36.0000000  0  9 26 30 17  5 23 24 10  6 13          0.000000018
  -8039255.317 9  -6250259.69646  23747433.740    23747433.4944   23747456.0194
 -21913326.466 9 -17065328.50148  21312282.374    21312282.4744   21312294.3674
 -18330283.758 9 -14260038.60648  21988277.977    21988277.2734   21988290.4264
 -12147598.504 9  -9053805.80446  23135935.634    23135934.9254   23135953.3664
  -7403623.550 8  -5745638.24645  24116737.052    24116736.6924   24116762.5994
  -4877693.599 9  -3778678.56646  23954488.348    23954488.0634   23954504.3044
 -18079466.071 9 -13831472.89548  21651420.298    21651419.3944   21651431.4124
 -27754918.378 9 -21609289.22249  20643419.550    20643419.2684   20643429.7654
  -4994915.423 9  -3885198.06245  24897413.139    24897413.1604   24897428.7584
 00  4 19 22  2 37.0000000  0  9 26 30 17  5 23 24 10  6 13          0.000000018
  -8040674.111 9  -6251365.24246  23747163.756    23747163.5114   23747186.0324
 -21912253.567 9 -17064492.47948  21312486.553    21312486.6624   21312498.5454
 -18331114.323 9 -14260685.79548  21988119.930    21988119.2324   21988132.3804
 -12145882.148 9  -9052468.39046  23136262.233    23136261.5294   23136279.9544
  -7405356.170 8  -5746988.33045  24116407.346    24116406.9804   24116432.8914
  -4876448.059 9  -3777708.01446  23954725.348    23954725.0494   23954741.3074
 -18078331.171 9 -13830588.55948  21651636.249    21651635.3454   21651647.3614
 -27755581.094 9 -21609805.62249  20643293.443    20643293.1764   20643303.6654
  -4994737.757 9  -3885059.61745  24897446.950    24897446.9864   24897462.5594
 00  4 19 22  2 37.0000000  0  9 26 30 17  5 23 24 10  6 13          0.000000018
  -8042092.812 9  -6252470.71346  23746893.773    23746893.5284   23746916.0434
 -21911180.474 9 -17063656.30448  21312690.756    21312690.8614   21312702.7444
 -18331944.750 9 -14261332.88048  21987961.914    21987961.2114   21987974.3704
 -12144165.678 9  -9051130.88846  23136588.875    23136588.1724   23136606.5914
  -7407088.688 8  -5748338.33245  24116077.648    24116077.2784   24116103.1954
  -4875202.463 9  -3776737.42146  23954962.383    23954962.0854   23954978.3344
 -18077196.076 9 -13829704.07048  21651852.267    21651851.3654   21651863.3804
 -27756243.661 9 -21610321.90949  20643167.381    20643167.1034   20643177.5944
  -4994559.872 9  -3884921.00245  24897480.777    24897480.8134   24897496.3844
 00  4 19 22  2 38.0000000  0  9 26 30 17  5 23 24 10  6 13          0.000000018
  -8043511.458 9  -6253576.14446  23746623.804    23746623.5554   23746646.0694
 -21910107.220 9 -17062820.00448  21312894.998    21312895.1004   21312906.9944
 -18332775.083 9 -14261979.89148  21987803.905    21987803.2014   21987816.3634
 -12142449.169 9  -9049793.35446  23136915.515    23136914.8074   23136933.2254
  -7408821.137 9  -5749688.28345  24115747.966    24115747.5974   24115773.5024
  -4873956.849 9  -3775766.81146  23955199.418    23955199.1214   23955215.3674
 -18076060.870 9 -13828819.49648  21652068.285    21652067.3764   21652079.3934
 -27756906.133 9 -21610838.12049  20643041.299    20643041.0204   20643051.5144
  -4994381.859 9  -3884782.29245  24897514.648    24897514.6894   24897530.2424
 00  4 19 22  2 38.0000000  0  9 26 30 17  5 23 24 10  6 13          0.000000019
  -8044930.197 9  -6254681.64646  23746353.845    23746353.6024   23746376.1074
 -21909033.946 9 -17061983.68848  21313099.213    21313099.3184   21313111.2104
 -18333605.459 9 -14262626.93648  21987645.882    21987645.1804   21987658.3364
 -12140732.727 9  -9048455.87346  23137242.168    23137241.4614   23137259.8784
  -7410553.677 9  -5751038.30645  24115418.273    24115417.9054   24115443.8164
  -4872711.346 9  -3774796.29146  23955436.440    23955436.1464   23955452.3904
 -18074925.652 9 -13827934.90848  21652284.314    21652283.3964   21652295.4294
 -27757568.631 9 -21611354.35249  20642915.235    20642914.9574   20642925.4474
  -4994203.817 9  -3884643.55945  24897548.536    24897548.5764   24897564.1304
 00  4 19 22  2 39.0000000  0  9 26 30 17  5 23 24 10  6 13          0.000000019
  -8046348.894 9  -6255787.11646  23746083.862    23746083.6194   23746106.1204
 -21907960.516 9 -17061147.25148  21313303.488    21313303.5974   21313315.4874
 -18334435.745 9 -14263273.91348  21987487.869    21987487.1694   21987500.3224
 -12139016.232 9  -9047118.34846  23137568.816    23137568.1054   23137586.5244
  -7412286.139 9  -5752388.26645  24115088.588    24115088.2234   24115114.1194
  -4871465.833 9  -3773825.76646  23955673.448    23955673.1434   23955689.3944
 -18073790.289 9 -13827050.21248  21652500.359    21652499.4474   21652511.4774
 -27758231.023 9 -21611870.50149  20642789.197    20642788.9154   20642799.4184
  -4994025.575 9  -3884504.66845  24897582.446    24897582.4824   24897598.0254
 00  4 19 22  2 39.0000000  0  9 26 30 17  5 23 24 10  6 13          0.000000019
  -8047767.476 8  -6256892.49946  23745813.919    23745813.6764   23745836.1664
 -21906886.872 9 -17060310.64848  21313507.794    21313507.8954   21313519.7884
 -18335265.885 9 -14263920.77448  21987329.918    21987329.2194   21987342.3714
 -12137299.645 9  -9045780.75546  23137895.471    23137894.7584   23137913.1684
  -7414018.513 9  -5753738.15845  24114758.910    24114758.5424   24114784.4394
  -4870220.245 9  -3772855.18146  23955910.475    23955910.1694   23955926.4234
 -18072654.753 9 -13826165.37948  21652716.466    21652715.5574   21652727.5804
 -27758893.269 9 -21612386.53649  20642663.179    20642662.9024   20642673.3974
  -4993847.166 8  -3884365.64645  24897616.403    24897616.4294   24897631.9764
 00  4 19 22  2 40.0000000  0  9 26 30 17  5 23 24 10  6 13          0.000000019
  -8049186.116 9  -6257997.92546  23745543.963    23745543.7234   23745566.2094
 -21905813.190 9 -17059474.01248  21313712.102    21313712.2044   21313724.1004
 -18336096.044 9 -14264567.64948  21987171.932    21987171.2284   21987184.3764
 -12135583.106 9  -9044443.20146  23138222.113    23138221.3924   23138239.8114
  -7415750.911 9  -5755088.06945  24114429.224    24114428.8504   24114454.7604
  -4868974.762 9  -3771884.67546  23956147.476    23956147.1744   23956163.4264
 -18071519.188 9 -13825280.52548  21652932.555    21652931.6474   21652943.6644
 -27759555.523 9 -21612902.57849  20642537.130    20642536.8494   20642547.3424
  -4993668.688 9  -3884226.56945  24897650.383    24897650.4164   24897665.9474
 00  4 19 22  2 40.0000000  0  9 26 30 17  5 23 24 10  6 13          0.000000019
  -8050604.744 9  -6259103.34446  23745273.981    23745273.7394   23745296.2144
 -21904739.391 9 -17058637.28848  21313916.462    21313916.5624   21313928.4564
 -18336926.161 9 -14265214.49148  21987013.959    21987013.2584   21987026.4064
 -12133866.547 9  -9043105.62746  23138548.786    23138548.0664   23138566.4804
  -7417483.308 9  -5756437.98045  24114099.551    24114099.1784   24114125.0844
  -4867729.310 9  -3770914.19646  23956384.505    23956384.2004   23956400.4644
 -18070383.519 9 -13824395.58948  21653148.670    21653147.7584   21653159.7854
 -27760217.707 9 -21613418.56449  20642411.120    20642410.8374   20642421.3344
  -4993490.093 9  -3884087.40445  24897684.349    24897684.3824   24897699.9044
 00  4 19 22  2 41.0000000  0  9 26 30 17  5 23 24 10  6 13          0.000000019
  -8052023.311 9  -6260208.71246  23745004.048    23745003.8174   23745026.2814
 -21903665.444 9 -17057800.44848  21314120.828    21314120.9314   21314132.8284
 -18337756.183 9 -14265861.25848  21986856.010    21986855.3074   21986868.4544
 -12132149.952 9  -9041768.02446  23138875.450    23138874.7204   23138893.1444
  -7419215.623 9  -5757787.82745  24113769.895    24113769.5164   24113795.4194
  -4866483.844 9  -3769943.70546  23956621.506    23956621.2064   23956637.4644
 -18069247.734 9 -13823510.56148  21653364.783    21653363.8784   21653375.8994
 -27760879.808 9 -21613934.48649  20642285.148    20642284.8644   20642295.3634
  -4993311.345 9  -3883948.11945  24897718.386    24897718.4094   24897733.9284
 00  4 19 22  2 41.0000000  0  9 26 30 17  5 23 24 10  6 13          0.000000019
  -8053441.894 9  -6261314.09346  23744734.082    23744733.8444   23744756.3104
 -21902591.395 9 -17056963.52848  21314325.210    21314325.3104   21314337.2104
 -18338586.169 9 -14266507.99848  21986698.085    21986697.3864   21986710.5314
 -12130433.364 9  -9040430.43046  23139202.096    23139201.3644   23139219.7954
  -7420947.961 9  -5759137.69045  24113440.257    24113439.8754   24113465.7904
  -4865238.421 9  -3768973.24946  23956858.502    23956858.2024   23956874.4644
 -18068111.861 9 -13822625.46648  21653580.931    21653580.0284   21653592.0484
 -27761541.861 9 -21614450.37149  20642159.167    20642158.8814   20642169.3784
  -4993132.538 9  -3883808.78845  24897752.397    24897752.4154   24897767.9314
 00  4 19 22  2 42.0000000  0  9 26 30 17  5 23 24 10  6 13          0.000000019
  -8054860.408 9  -6262419.42246  23744464.156    23744463.9204   23744486.3774
 -21901517.165 9 -17056126.47048  21314529.640    21314529.7484   21314541.6354
 -18339416.052 9 -14267154.65948  21986540.159    21986539.4564   21986552.6074
 -12128716.687 9  -9039092.76846  23139528.771    23139528.0384   23139546.4684
  -7422680.214 9  -5760487.48845  24113110.612    24113110.2234   24113136.1354
  -4863992.945 9  -3768002.75246  23957095.515    23957095.2184   23957111.4714
 -18066975.826 9 -13821740.24648  21653797.133    21653796.2294   21653808.2484
 -27762203.780 9 -21614966.15249  20642033.206    20642032.9184   20642043.4144
  -4992953.493 9  -3883669.26945  24897786.476    24897786.4914   24897802.0084
 00  4 19 22  2 42.0000000  0  9 26 30 17  5 23 24 10  6 13          0.000000020
  -8056278.892 9  -6263524.72746  23744194.216    23744193.9774   23744216.4304
 -21900442.802 9 -17055289.30448  21314734.086    21314734.1864   21314746.0864
 -18340245.862 9 -14267801.26248  21986382.239    21986381.5354   21986394.6874
 -12126999.995 9  -9037755.09246  23139855.459    23139854.7224   23139873.1554
  -7424412.427 9  -5761837.25445  24112780.970    24112780.5814   24112806.5004
  -4862747.485 9  -3767032.26646  23957332.511    23957332.2144   23957348.4734
 -18065839.679 9 -13820854.93648  21654013.326    21654012.4194   21654024.4444
 -27762865.633 9 -21615481.88149  20641907.260    20641906.9754   20641917.4664
  -4992774.326 9  -3883529.65745  24897820.559    24897820.5784   24897836.0834
 00  4 19 22  2 43.0000000  0  9 26 30 17  5 23 24 10  6 13          0.000000020
  -8057697.342 8  -6264630.00746  23743924.302    23743924.0644   23743946.5134
 -21899368.306 9 -17054452.03848  21314938.547    21314938.6454   21314950.5474
 -18341075.604 9 -14268447.81248  21986224.345    21986223.6444   21986236.7974
 -12125283.266 9  -9036417.38946  23140182.161    23140181.4154   23140199.8534
  -7426144.592 9  -5763186.98445  24112451.346    24112450.9494   24112476.8764
  -4861502.022 9  -3766061.77946  23957569.506    23957569.2104   23957585.4744
 -18064703.418 9 -13819969.53848  21654229.544    21654228.6394   21654240.6594
 -27763527.396 9 -21615997.54049  20641781.303    20641781.0124   20641791.5124
  -4992595.039 9  -3883389.95145  24897854.685    24897854.7144   24897870.1974
 00  4 19 22  2 43.0000000  0  9 26 30 17  5 23 24 10  6 13          0.000000020
  -8059115.792 8  -6265735.28546  23743654.371    23743654.1314   23743676.5764
 -21898293.725 9 -17053614.70548  21315143.030    21315143.1334   21315155.0374
 -18341905.332 9 -14269094.35248  21986066.456    21986065.7544   21986078.9044
 -12123566.541 9  -9035079.68746  23140508.822    23140508.0794   23140526.5144
  -7427876.772 8  -5764536.72545  24112121.693    24112121.2874   24112147.2224
  -4860256.622 9  -3765091.34046  23957806.495    23957806.1964   23957822.4734
 -18063567.077 9 -13819084.07748  21654445.791    21654444.8904   21654456.9134
 -27764189.117 9 -21616513.16649  20641655.404    20641655.1294   20641665.6094
  -4992415.632 9  -3883250.15345  24897888.815    24897888.8304   24897904.3314
 00  4 19 22  2 44.0000000  0  9 26 30 17  5 23 24 10  6 13          0.000000020
  -8060534.219 8  -6266840.54846  23743384.436    23743384.1984   23743406.6324
 -21897219.001 9 -17052777.26048  21315347.559    21315347.6624   21315359.5674
 -18342734.970 9 -14269740.81848  21985908.571    21985907.8734   21985921.0234
 -12121849.796 9  -9033741.96846  23140835.538    23140834.7934   23140853.2284
  -7429608.923 8  -5765886.44345  24111792.086    24111791.6764   24111817.6154
  -4859011.207 9  -3764120.89146  23958043.508    23958043.2124   23958059.4874
 -18062430.624 9 -13818198.53048  21654662.054    21654661.1504   21654673.1754
 -27764850.769 9 -21617028.73849  20641529.496    20641529.2174   20641539.7184
  -4992236.096 9  -3883110.25545  24897922.985    24897922.9974   24897938.4964
 00  4 19 22  2 44.0000000  0  9 26 30 17  5 23 24 10  6 13          0.000000020
  -8061952.613 8  -6267945.78446  23743114.540    23743114.3054   23743136.7384
 -21896144.124 9 -17051939.69448  21315552.101    21315552.2004   21315564.1074
 -18343564.525 9 -14270387.22348  21985750.710    21985750.0124   21985763.1574
 -12120132.977 9  -9032404.19346  23141162.229    23141161.4874   23141179.9174
  -7431340.983 8  -5767236.09045  24111462.477    24111462.0644   24111487.9984
  -4857765.776 9  -3763150.42746  23958280.507    23958280.2174   23958296.4944
 -18061294.032 9 -13817312.87648  21654878.321    21654877.4104   21654889.4344
 -27765512.308 9 -21617544.22249  20641403.602    20641403.3144   20641413.8154
  -4992056.413 9  -3882970.24245  24897957.196    24897957.2134   24897972.6924
 00  4 19 22  2 45.0000000  0  9 26 30 17  5 23 24 10  6 13          0.000000020
  -8063371.016 8  -6269051.02646  23742844.593    23742844.3524   23742866.7884
 -21895069.172 9 -17051102.07148  21315756.660    21315756.7684   21315768.6684
 -18344394.084 9 -14271033.63348  21985592.864    21985592.1614   21985605.3144
 -12118416.189 9  -9031066.44346  23141488.923    23141488.1804   23141506.6084
  -7433073.077 8  -5768585.76445  24111132.870    24111132.4524   24111158.3874
  -4856520.418 9  -3762180.01646  23958517.490    23958517.2034   23958533.4884
 -18060157.370 9 -13816427.16648  21655094.628    21655093.7204   21655105.7474
 -27766173.828 9 -21618059.69249  20641277.700    20641277.4214   20641287.9134
  -4991876.634 9  -3882830.15145  24897991.383    24897991.3994   24898006.8804
 00  4 19 22  2 45.0000000  0  9 26 30 17  5 23 24 10  6 13          0.000000020
  -8064789.343 9  -6270156.20846  23742574.697    23742574.4584   23742596.8844
 -21893994.060 9 -17050264.32348  21315961.233    21315961.3374   21315973.2374
 -18345223.536 9 -14271679.95748  21985435.016    21985434.3114   21985447.4644
 -12116699.353 9  -9029728.64846  23141815.647    23141814.9044   23141833.3304
  -7434805.123 9  -5769935.40145  24110803.264    24110802.8504   24110828.7784
  -4855275.044 9  -3761209.59846  23958754.478    23958754.1894   23958770.4774
 -18059020.576 9 -13815541.35348  21655310.973    21655310.0714   21655322.0854
 -27766835.249 9 -21618575.08449  20641151.840    20641151.5584   20641162.0634
  -4991696.697 9  -3882689.93845  24898025.624    24898025.6364   24898041.1104
 00  4 19 22  2 46.0000000  0  9 26 30 17  5 23 24 10  6 13          0.000000020
  -8066207.648 9  -6271261.37346  23742304.814    23742304.5754   23742327.0034
 -21892918.834 9 -17049426.48648  21316165.841    21316165.9454   21316177.8454
 -18346052.938 9 -14272326.24448  21985277.184    21985276.4804   21985289.6334
 -12114982.500 9  -9028390.84746  23142142.337    23142141.5984   23142160.0214
  -7436537.127 9  -5771285.00545  24110473.668    24110473.2484   24110499.1804
  -4854029.677 9  -3760239.18446  23958991.463    23958991.1754   23959007.4664
 -18057883.677 9 -13814655.46048  21655527.300    21655526.3914   21655538.4074
 -27767496.606 9 -21619090.42649  20641026.008    20641025.7254   20641036.2264
  -4991516.646 9  -3882549.63545  24898059.888    24898059.9024   24898075.3704
 00  4 19 22  2 46.0000000  0  9 26 30 17  5 23 24 10  6 13          0.000000021
  -8067625.874 9  -6272366.47946  23742034.915    23742034.6824   23742057.1014
 -21891843.420 9 -17048588.50448  21316370.482    21316370.5844   21316382.4864
 -18346882.223 9 -14272972.43948  21985119.383    21985118.6794   21985131.8314
 -12113265.545 9  -9027052.96746  23142469.087    23142468.3524   23142486.7784
  -7438269.043 9  -5772634.53945  24110144.067    24110143.6464   24110169.5804
  -4852784.270 9  -3759268.74246  23959228.453    23959228.1614   23959244.4554
 -18056746.593 9 -13813769.42248  21655743.683    21655742.7614   21655754.7964
 -27768157.824 9 -21619605.66149  20640900.176    20640899.8924   20640910.3874
  -4991336.383 9  -3882409.16945  24898094.202    24898094.2184   24898109.6844
 00  4 19 22  2 47.0000000  0  9 26 30 17  5 23 24 10  6 13          0.000000021
  -8069044.224 9  -6273471.67946  23741764.994    23741764.7594   23741787.1874
 -21890768.019 9 -17047750.52948  21316575.136    21316575.2424   21316587.1454
 -18347711.594 9 -14273618.70048  21984961.570    21984960.8694   21984974.0174
 -12111548.731 9  -9025715.20146  23142795.772    23142795.0364   23142813.4554
  -7440001.082 8  -5773984.16945  24109814.475    24109814.0454   24109839.9844
  -4851539.024 9  -3758298.42346  23959465.408    23959465.1084   23959481.4164
 -18055609.558 9 -13812883.42048  21655960.053    21655959.1414   21655971.1654
 -27768819.124 9 -21620120.95749  20640774.317    20640774.0404   20640784.5354
  -4991156.152 9  -3882268.72645  24898128.500    24898128.5144   24898143.9834
 00  4 19 22  2 47.0000000  0  9 26 30 17  5 23 24 10  6 13          0.000000021
  -8070462.429 9  -6274576.76846  23741495.142    23741494.9054   23741517.3324
 -21889692.376 9 -17046912.36648  21316779.816    21316779.9204   21316791.8234
 -18348540.767 9 -14274264.80948  21984803.785    21984803.0784   21984816.2234
 -12109831.750 9  -9024377.29646  23143122.521    23143121.7804   23143140.2074
  -7441732.962 9  -5775333.67745  24109484.886    24109484.4534   24109510.3914
  -4850293.665 9  -3757328.01346  23959702.386    23959702.0844   23959718.3974
 -18054472.280 9 -13811997.23048  21656176.482    21656175.5724   21656187.5994
 -27769480.223 9 -21620636.10049  20640648.517    20640648.2374   20640658.7304
  -4990975.662 9  -3882128.08445  24898162.834    24898162.8414   24898178.3064
 00  4 19 22  2 48.0000000  0  9 26 30 17  5 23 24 10  6 13          0.000000021
  -8071880.658 8  -6275681.87446  23741225.245    23741225.0124   23741247.4334
 -21888616.650 9 -17046074.13948  21316984.543    21316984.6484   21316996.5474
 -18349369.935 9 -14274910.91148  21984645.984    21984645.2774   21984658.4214
 -12108114.787 9  -9023039.41146  23143449.244    23143448.5034   23143466.9284
  -7443464.839 8  -5776683.18245  24109155.318    24109154.8814   24109180.8174
  -4849048.356 9  -3756357.64446  23959939.374    23959939.0704   23959955.3914
 -18053334.924 9 -13811110.97948  21656392.906    21656391.9824   21656404.0224
 -27770141.287 9 -21621151.21449  20640522.731    20640522.4444   20640532.9444
  -4990795.065 9  -3881987.35945  24898197.203    24898197.2174   24898212.6724
 00  4 19 22  2 48.0000000  0  9 26 30 17  5 23 24 10  6 13          0.000000021
  -8073298.843 8  -6276786.94646  23740955.373    23740955.1394   23740977.5644
 -21887540.771 9 -17045235.79548  21317189.274    21317189.3774   21317201.2804
 -18350199.010 9 -14275556.94248  21984488.222    21984487.5164   21984500.6664
 -12106397.785 9  -9021701.49446  23143775.981    23143775.2374   23143793.6624
  -7445196.683 8  -5778032.66245  24108825.744    24108825.3094   24108851.2414
  -4847803.044 9  -3755387.27146  23960176.339    23960176.0454   23960192.3604
 -18052197.448 9 -13810224.63648  21656609.368    21656608.4524   21656620.4824
 -27770802.260 9 -21621666.25749  20640396.952    20640396.6714   20640407.1674
  -4990614.342 9  -3881846.53345  24898231.598    24898231.6034   24898247.0774
 00  4 19 22  2 49.0000000  0  9 26 30 17  5 23 24 10  6 13          0.000000021
  -8074717.020 9  -6277892.01346  23740685.488    23740685.2564   23740707.6844
 -21886464.795 9 -17044397.37448  21317394.014    21317394.1154   21317406.0274
 -18351028.050 9 -14276202.94748  21984330.470    21984329.7654   21984342.9134
 -12104680.770 9  -9020363.56746  23144102.742    23144102.0014   23144120.4244
  -7446928.509 9  -5779382.12745  24108496.186    24108495.7474   24108521.6804
  -4846557.764 9  -3754416.92846  23960413.319    23960413.0314   23960429.3354
 -18051059.884 9 -13809338.22348  21656825.834    21656824.9224   21656836.9484
 -27771463.181 9 -21622181.26149  20640271.187    20640270.9084   20640281.3994
  -4990433.508 9  -3881705.62045  24898266.008    24898266.0094   24898281.4954
 00  4 19 22  2 49.0000000  0  9 26 30 17  5 23 24 10  6 13          0.000000021
  -8076135.090 9  -6278996.99446  23740415.636    23740415.4134   23740437.8374
 -21885388.628 9 -17043558.80648  21317598.804    21317598.9034   21317610.8174
 -18351856.964 9 -14276848.85248  21984172.706    21984171.9944   21984185.1444
 -12102963.648 9  -9019025.55546  23144429.504    23144428.7654   23144447.1894
  -7448660.224 9  -5780731.50445  24108166.650    24108166.2064   24108192.1404
  -4845312.432 9  -3753446.53846  23960650.286    23960649.9974   23960666.3124
 -18049922.131 9 -13808451.66348  21657042.349    21657041.4424   21657053.4604
 -27772123.953 9 -21622696.14849  20640145.422    20640145.1454   20640155.6494
  -4990252.459 9  -3881564.54345  24898300.486    24898300.4854   24898315.9704
 00  4 19 22  2 50.0000000  0  9 26 30 17  5 23 24 10  6 13          0.000000021
  -8077553.103 9  -6280101.93046  23740145.780    23740145.5504   23740167.9824
 -21884312.302 9 -17042720.11348  21317803.633    21317803.7314   21317815.6454
 -18352685.775 9 -14277494.67848  21984014.999    21984014.3044   21984027.4324
 -12101246.488 9  -9017687.51346  23144756.253    23144755.5094   23144773.9394
  -7450391.891 9  -5782080.84845  24107837.107    24107836.6544   24107862.5964
  -4844067.091 9  -3752476.14346  23960887.272    23960886.9834   23960903.3014
 -18048784.248 9 -13807565.00248  21657258.879    21657257.9724   21657269.9824
 -27772784.637 9 -21623210.96649  20640019.698    20640019.4224   20640029.9154
  -4990071.248 9  -3881423.33645  24898334.955    24898334.9524   24898350.4364
 00  4 19 22  2 50.0000000  0  9 26 30 17  5 23 24 10  6 13          0.000000021
  -8078971.140 9  -6281206.88946  23739875.928    23739875.6974   23739898.1334
 -21883235.893 9 -17041881.35448  21318008.456    21318008.5604   21318020.4614
 -18353514.569 9 -14278140.48848  21983857.291    21983856.5834   21983869.7264
 -12099529.332 9  -9016349.47746  23145083.023    23145082.2824   23145100.7144
  -7452123.567 9  -5783430.19545  24107507.601    24107507.1424   24107533.0894
  -4842821.797 9  -3751505.78846  23961124.244    23961123.9584   23961140.2774
 -18047646.295 9 -13806678.28648  21657475.421    21657474.5124   21657486.5244
 -27773445.280 9 -21623725.75249  20639893.992    20639893.7194   20639904.2074
  -4989889.940 8  -3881282.05645  24898369.446    24898369.4484   24898384.9314
 00  4 19 22  2 51.0000000  0  9 26 30 17  5 23 24 10  6 13          0.000000021
  -8080389.167 9  -6282311.83646  23739606.088    23739605.8644   23739628.2934
 -21882159.373 9 -17041042.50848  21318213.332    21318213.4384   21318225.3384
 -18354343.322 9 -14278786.27148  21983699.579    21983698.8724   21983712.0134
 -12097812.165 9  -9015011.43146  23145409.807    23145409.0664   23145427.4994
  -7453855.225 8  -5784779.52945  24107178.041    24107177.5804   24107203.5274
  -4841576.532 9  -3750535.45646  23961361.225    23961360.9444   23961377.2614
 -18046508.235 9 -13805791.49148  21657691.999    21657691.0924   21657703.1014
 -27774105.859 9 -21624240.48849  20639768.285    20639768.0164   20639778.5054
  -4989708.519 9  -3881140.68645  24898403.987    24898403.9844   24898419.4784
 00  4 19 22  2 51.0000000  0  9 26 30 17  5 23 24 10  6 13          0.000000022
  -8081807.173 8  -6283416.76946  23739336.255    23739336.0304   23739358.4644
 -21881082.733 9 -17040203.57048  21318418.206    21318418.3064   21318430.2204
 -18355172.005 9 -14279431.99248  21983541.877    21983541.1714   21983554.3104
 -12096094.978 9  -9013673.36846  23145736.559    23145735.8194   23145754.2434
  -7455586.864 9  -5786128.84745  24106848.526    24106848.0584   24106874.0044
  -4840331.296 9  -3749565.14046  23961598.162    23961597.8904   23961614.2024
 -18045370.085 9 -13804904.62148  21657908.565    21657907.6534   21657919.6714
 -27774766.389 9 -21624755.18549  20639642.606    20639642.3334   20639652.8184
  -4989526.980 9  -3880999.22945  24898438.543    24898438.5304   24898454.0334
 00  4 19 22  2 52.0000000  0  9 26 30 17  5 23 24 10  6 13          0.000000022
  -8083225.146 8  -6284521.67546  23739066.426    23739066.1974   23739088.6404
 -21880005.974 9 -17039364.53948  21318623.092    21318623.1944   21318635.1004
 -18356000.641 9 -14280077.68248  21983384.192    21983383.4814   21983396.6234
 -12094377.763 9  -9012335.28646  23146063.367    23146062.6234   23146081.0554
  -7457318.475 9  -5787478.14445  24106519.008    24106518.5364   24106544.4824
  -4839086.072 9  -3748594.83846  23961835.146    23961834.8774   23961851.1884
 -18044231.826 9 -13804017.66648  21658125.190    21658124.2634   21658136.2924
 -27775426.851 9 -21625269.83149  20639516.911    20639516.6404   20639527.1244
  -4989345.315 9  -3880857.67245  24898473.102    24898473.0864   24898488.5934
 00  4 19 22  2 52.0000000  0  9 26 30 17  5 23 24 10  6 13          0.000000022
  -8084643.151 8  -6285626.60746  23738796.561    23738796.3344   23738818.7784
 -21878929.149 9 -17038525.45648  21318828.029    21318828.1324   21318840.0434
 -18356829.269 9 -14280723.36448  21983226.504    21983225.8004   21983238.9404
 -12092660.576 9  -9010997.22446  23146390.132    23146389.3974   23146407.8204
  -7459050.122 9  -5788827.46845  24106189.479    24106189.0044   24106214.9564
  -4837840.902 9  -3747624.57946  23962072.069    23962071.8024   23962088.1184
 -18043093.510 9 -13803130.66648  21658341.787    21658340.8734   21658352.8894
 -27776087.290 9 -21625784.45749  20639391.230    20639390.9474   20639401.4394
  -4989163.558 8  -3880716.04145  24898507.703    24898507.6824   24898523.1954
 00  4 19 22  2 53.0000000  0  9 26 30 17  5 23 24 10  6 13          0.000000022
  -8086061.065 9  -6286731.46746  23738526.748    23738526.5214   23738548.9704
 -21877852.093 9 -17037686.19248  21319032.973    21319033.0704   21319044.9894
 -18357657.720 9 -14281368.90948  21983068.878    21983068.1694   21983081.3124
 -12090943.247 9  -9009659.05046  23146716.915    23146716.1814   23146734.6094
  -7460781.609 8  -5790176.66945  24105859.979    24105859.5024   24105885.4504
  -4836595.645 9  -3746654.25046  23962309.039    23962308.7684   23962325.0974
 -18041954.986 9 -13802243.50348  21658558.449    21658557.5334   21658569.5474
 -27776747.565 9 -21626298.95549  20639265.588    20639265.3144   20639275.8054
  -4988981.561 9  -3880574.22145  24898542.318    24898542.2984   24898557.8104
 00  4 19 22  2 53.0000000  0  9 26 30 17  5 23 24 10  6 13          0.000000022
  -8087478.952 9  -6287836.30446  23738256.926    23738256.6974   23738279.1494
 -21876774.933 9 -17036846.84948  21319237.957    21319238.0584   21319249.9714
 -18358486.128 9 -14282014.42148  21982911.218    21982910.5084   21982923.6454
 -12089225.919 9  -9008320.87646  23147043.723    23147042.9854   23147061.4274
  -7462513.105 9  -5791525.87845  24105530.461    24105529.9904   24105555.9244
  -4835350.419 9  -3745683.94646  23962546.012    23962545.7444   23962562.0784
 -18040816.371 9 -13801356.27248  21658775.117    21658774.2024   21658786.2154
 -27777407.782 9 -21626813.41149  20639139.958    20639139.6814   20639150.1684
  -4988799.486 8  -3880432.34245  24898576.957    24898576.9344   24898592.4574
 00  4 19 22  2 54.0000000  0  9 26 30 17  5 23 24 10  6 13          0.000000022
  -8088896.879 9  -6288941.17346  23737987.097    23737986.8744   23738009.3204
 -21875697.694 9 -17036007.44448  21319442.960    21319443.0574   21319454.9794
 -18359314.530 9 -14282659.92848  21982753.582    21982752.8674   21982766.0114
 -12087508.602 9  -9006982.71346  23147370.532    23147369.7984   23147388.2384
  -7464244.606 9  -5792875.09045  24105200.971    24105200.4984   24105226.4224
  -4834105.254 9  -3744713.69146  23962782.953    23962782.6904   23962799.0244
 -18039677.685 9 -13800468.98548  21658991.814    21658990.9034   21659002.9124
 -27778067.973 9 -21627327.84549  20639014.329    20639014.0484   20639024.5384
  -4988617.285 8  -3880290.36245  24898611.643    24898611.6104   24898627.1504
 00  4 19 22  2 54.0000000  0  9 26 30 17  5 23 24 10  6 13          0.000000022
  -8090314.741 9  -6290045.99346  23737717.287    23737717.0614   23737739.5184
 -21874620.341 9 -17035167.95148  21319647.970    21319648.0654   21319659.9864
 -18360142.858 9 -14283305.37748  21982595.969    21982595.2564   21982608.3934
 -12085791.255 9  -9005644.53046  23147697.342    23147696.6124   23147715.0494
  -7465976.093 8  -5794224.29245  24104871.474    24104870.9964   24104896.9204
  -4832860.123 9  -3743743.46046  23963019.888    23963019.6274   23963035.9624
 -18038538.900 9 -13799581.62248  21659208.530    21659207.6034   21659219.6324
 -27778728.102 9 -21627842.23249  20638888.713    20638888.4354   20638898.9274
  -4988434.991 8  -3880148.31845  24898646.332    24898646.2964   24898661.8424
 00  4 19 22  2 55.0000000  0  9 26 30 17  5 23 24 10  6 13          0.000000022
  -8091732.531 9  -6291150.75846  23737447.482    23737447.2584   23737469.7084
 -21873542.799 9 -17034328.31048  21319853.013    21319853.1134   21319865.0294
 -18360971.070 9 -14283950.73548  21982438.365    21982437.6554   21982450.7914
 -12084073.825 9  -9004306.27946  23148024.161    23148023.4264   23148041.8704
  -7467707.488 9  -5795573.42345  24104541.983    24104541.5044   24104567.4294
  -4831614.940 9  -3742773.19145  23963256.856    23963256.6024   23963272.9234
 -18037399.948 9 -13798694.12848  21659425.265    21659424.3334   21659436.3624
 -27779388.103 9 -21628356.51749  20638763.107    20638762.8324   20638773.3254
  -4988252.501 9  -3880006.11645  24898681.076    24898681.0424   24898696.5894
 00  4 19 22  2 55.0000000  0  9 26 30 17  5 23 24 10  6 13          0.000000022
  -8093150.332 8  -6292255.53146  23737177.656    23737177.4354   23737199.8884
 -21872465.166 9 -17033488.59648  21320058.066    21320058.1614   21320070.0864
 -18361799.256 9 -14284596.07248  21982280.763    21982280.0444   21982293.1954
 -12082356.391 9  -9002968.02546  23148350.967    23148350.2404   23148368.6724
  -7469438.870 9  -5796922.54345  24104212.507    24104212.0324   24104237.9454
  -4830369.781 9  -3741802.94446  23963493.798    23963493.5384   23963509.8674
 -18036260.906 9 -13797806.56248  21659641.999    21659641.0824   21659653.0984
 -27780048.056 9 -21628870.76449  20638637.530    20638637.2494   20638647.7434
  -4988069.884 8  -3879863.81745  24898715.802    24898715.7684   24898731.3224
 00  4 19 22  2 56.0000000  0  9 26 30 17  5 23 24 10  6 13          0.000000023
  -8094568.143 9  -6293360.31146  23736907.863    23736907.6414   23736930.0974
 -21871387.418 9 -17032648.79448  21320263.181    21320263.2794   21320275.2014
 -18362627.370 9 -14285241.35248  21982123.180    21982122.4634   21982135.6064
 -12080638.943 9  -9001629.75946  23148677.808    23148677.0844   23148695.5134
  -7471170.230 9  -5798271.64545  24103883.039    24103882.5604   24103908.4684
  -4829124.670 9  -3740832.73446  23963730.733    23963730.4744   23963746.7964
 -18035121.775 9 -13796918.92948  21659858.784    21659857.8524   21659869.8914
 -27780707.953 9 -21629384.96849  20638511.956    20638511.6764   20638522.1684
  -4987887.178 8  -3879721.44545  24898750.594    24898750.5544   24898766.1214
 00  4 19 22  2 56.0000000  0  9 26 30 17  5 23 24 10  6 13          0.000000023
  -8095985.901 8  -6294465.05146  23736638.061    23736637.8384   23736660.2984
 -21870309.520 9 -17031808.87548  21320468.275    21320468.3774   21320480.2944
 -18363455.405 9 -14285886.57248  21981965.591    21981964.8734   21981978.0134
 -12078921.432 9  -9000291.44446  23149004.641    23149003.9074   23149022.3464
  -7472901.544 9  -5799620.71145  24103553.558    24103553.0884   24103578.9854
  -4827879.531 9  -3739862.49845  23963967.685    23963967.4214   23963983.7484
 -18033982.508 9 -13796031.19248  21660075.565    21660074.6324   21660086.6704
 -27781367.751 9 -21629899.09649  20638386.386    20638386.1034   20638396.6004
  -4987704.293 8  -3879578.93845  24898785.393    24898785.3504   24898800.9284
 00  4 19 22  2 57.0000000  0  9 26 30 17  5 23 24 10  6 13          0.000000023
  -8097403.587 8  -6295569.73446  23736368.274    23736368.0554   23736390.5074
 -21869231.470 9 -17030968.83948  21320673.420    21320673.5254   21320685.4414
 -18364283.355 9 -14286531.72748  21981808.056    21981807.3424   21981820.4814
 -12077203.880 9  -8998953.09946  23149331.489    23149330.7614   23149349.1994
  -7474632.793 8  -5800969.72645  24103224.121    24103223.6564   24103249.5424
  -4826634.364 9  -3738892.23846  23964204.628    23964204.3674   23964220.7014
 -18032843.095 9 -13795143.33748  21660292.400    21660291.4724   21660303.5074
 -27782027.444 9 -21630413.14249  20638260.855    20638260.5804   20638271.0714
  -4987521.264 9  -3879436.31845  24898820.227    24898820.1864   24898835.7734
 00  4 19 22  2 57.0000000  0  9 26 30 17  5 23 24 10  6 13          0.000000023
  -8098821.367 9  -6296674.49146  23736098.493    23736098.2724   23736120.7324
 -21868153.389 9 -17030128.77748  21320878.578    21320878.6734   21320890.6004
 -18365111.319 9 -14287176.89348  21981650.475    21981649.7614   21981662.9034
 -12075486.395 9  -8997614.80346  23149658.313    23149657.5854   23149676.0244
  -7476364.105 8  -5802318.79045  24102894.653    24102894.1844   24102920.0684
  -4825389.331 9  -3737922.08946  23964441.539    23964441.2734   23964457.6094
 -18031703.684 9 -13794255.48448  21660509.230    21660508.2924   21660520.3374
 -27782687.172 9 -21630927.21449  20638135.316    20638135.0374   20638145.5304
  -4987338.187 9  -3879293.65645  24898855.058    24898855.0124   24898870.6034
 00  4 19 22  2 58.0000000  0  9 26 30 17  5 23 24 10  6 13          0.000000023
  -8100239.003 9  -6297779.13446  23735828.697    23735828.4784   23735850.9394
 -21867075.103 9 -17029288.55648  21321083.790    21321083.8914   21321095.8174
 -18365939.137 9 -14287821.94748  21981492.951    21981492.2404   21981505.3774
 -12073768.797 9  -8996276.41946  23149985.157    23149984.4284   23150002.8714
  -7478095.301 9  -5803667.76445  24102565.207    24102564.7424   24102590.6154
  -4824144.241 9  -3736951.89445  23964678.476    23964678.2094   23964694.5454
 -18030564.073 9 -13793367.47448  21660726.075    21660725.1524   21660737.1784
 -27783346.743 9 -21631441.16549  20638009.789    20638009.5044   20638019.9964
  -4987154.894 8  -3879150.82945  24898889.927    24898889.8774   24898905.4824
 00  4 19 22  2 58.0000000  0  9 26 30 17  5 23 24 10  6 13          0.000000023
  -8101656.640 9  -6298883.77946  23735558.951    23735558.7354   23735581.1904
 -21865996.701 9 -17028448.24548  21321288.998    21321289.0994   21321301.0244
 -18366766.909 9 -14288466.96048  21981335.439    21981334.7194   21981347.8584
 -12072051.162 9  -8994938.00946  23150312.019    23150311.2924   23150329.7334
  -7479826.471 9  -5805016.71945  24102235.771    24102235.3104   24102261.1784
  -4822899.161 9  -3735981.70345  23964915.398    23964915.1254   23964931.4624
 -18029424.352 9 -13792479.38048  21660942.959    21660942.0324   21660954.0644
 -27784006.238 9 -21631955.05649  20637884.305    20637884.0204   20637894.5184
  -4986971.461 8  -3879007.89345  24898924.835    24898924.7834   24898940.4064
 00  4 19 22  2 59.0000000  0  9 26 30 17  5 23 24 10  6 13          0.000000023
  -8103074.243 9  -6299988.39646  23735289.158    23735288.9524   23735311.3954
 -21864918.179 9 -17027607.84248  21321494.234    21321494.3274   21321506.2594
 -18367594.599 9 -14289111.91348  21981177.932    21981177.2184   21981190.3544
 -12070333.526 9  -8993599.59646  23150638.871    23150638.1464   23150656.5874
  -7481557.621 9  -5806365.65745  24101906.336    24101905.8794   24101931.7334
  -4821654.101 9  -3735011.53045  23965152.325    23965152.0604   23965168.3914
 -18028284.535 9 -13791591.21348  21661159.858    21661158.9324   21661170.9634
 -27784665.672 9 -21632468.90249  20637758.804    20637758.5274   20637769.0114
  -4986787.914 8  -3878864.86845  24898959.756    24898959.6994   24898975.3384
 00  4 19 22  2 59.0000000  0  9 26 30 17  5 23 24 10  6 13          0.000000023
  -8104491.850 9  -6301093.01846  23735019.396    23735019.1884   23735041.6354
 -21863839.543 9 -17026767.34848  21321699.492    21321699.5844   21321711.5254
 -18368422.244 9 -14289756.83048  21981020.439    21981019.7274   21981032.8534
 -12068615.863 9  -8992261.16246  23150965.738    23150965.0104   23150983.4474
  -7483288.721 8  -5807714.55845  24101576.913    24101576.4574   24101602.3114
  -4820409.076 9  -3734041.38545  23965389.244    23965388.9764   23965405.3154
 -18027144.622 9 -13790702.97048  21661376.786    21661375.8524   21661387.8984
 -27785325.045 9 -21632982.69849  20637633.347    20637633.0644   20637643.5604
  -4986604.246 8  -3878721.74945  24898994.725    24898994.6654   24899010.3134
 00  4 19 22  3  0.0000000  0  9 26 30 17  5 23 24 10  6 13          0.000000023
  -8105909.427 8  -6302197.61346  23734749.647    23734749.4454   23734771.8884
 -21862760.794 9 -17025926.76648  21321904.780    21321904.8724   21321916.8104
 -18369249.841 9 -14290401.71048  21980862.937    21980862.2264   21980875.3534
 -12066898.179 9  -8990922.71346  23151292.631    23151291.9044   23151310.3394
  -7485019.828 9  -5809063.46445  24101247.481    24101247.0354   24101272.8684
  -4819164.079 9  -3733071.26245  23965626.161    23965625.9024   23965642.2294
 -18026004.602 9 -13789814.64448  21661593.725    21661592.7914   21661604.8334
 -27785984.353 9 -21633496.44249  20637507.864    20637507.5814   20637518.0774
  -4986420.451 8  -3878578.52845  24899029.686    24899029.6214   24899045.2764
 00  4 19 22  3  0.0000000  0  9 26 30 17  5 23 24 10  6 13          0.000000023
  -8107326.997 8  -6303302.20746  23734479.873    23734479.6724   23734502.1164
 -21861681.913 9 -17025086.07948  21322110.066    21322110.1604   21322122.1024
 -18370077.348 9 -14291046.51848  21980705.482    21980704.7654   21980717.9004
 -12065180.469 9  -8989584.24646  23151619.504    23151618.7774   23151637.2084
  -7486750.863 9  -5810412.31545  24100918.060    24100917.6134   24100943.4424
  -4817919.082 9  -3732101.13845  23965863.087    23965862.8284   23965879.1624
 -18024864.470 9 -13788926.22948  21661810.678    21661809.7414   21661821.7904
 -27786643.587 9 -21634010.13049  20637382.429    20637382.1484   20637392.6394
  -4986236.529 8  -3878435.20845  24899064.683    24899064.6174   24899080.2824
 00  4 19 22  3  1.0000000  0  9 26 30 17  5 23 24 10  6 13          0.000000023
  -8108744.547 9  -6304406.78246  23734210.126    23734209.9294   23734232.3634
 -21860602.909 9 -17024245.29948  21322315.412    21322315.5084   21322327.4434
 -18370904.791 9 -14291691.27748  21980548.023    21980547.3044   21980560.4434
 -12063462.726 9  -8988245.75046  23151946.363    23151945.6314   23151964.0694
  -7488481.883 8  -5811761.15145  24100588.650    24100588.2014   24100614.0244
  -4816674.095 9  -3731131.01945  23966099.998    23966099.7444   23966116.0694
 -18023724.225 9 -13788037.72848  21662027.656    21662026.7314   21662038.7624
 -27787302.751 9 -21634523.76649  20637256.996    20637256.7154   20637267.2154
  -4986052.463 8  -3878291.77945  24899099.702    24899099.6334   24899115.3134
 00  4 19 22  3  1.0000000  0  9 26 30 17  5 23 24 10  6 13          0.000000024
  -8110162.046 8  -6305511.31946  23733940.376    23733940.1864   23733962.6154
 -21859523.797 9 -17023404.43448  21322520.768    21322520.8664   21322532.8014
 -18371732.199 9 -14292336.00948  21980390.567    21980389.8534   21980402.9804
 -12061744.969 9  -8986907.24346  23152273.256    23152272.5254   23152290.9624
  -7490212.878 8  -5813109.96945  24100259.249    24100258.8094   24100284.6234
  -4815429.146 9  -3730160.93545  23966336.899    23966336.6404   23966352.9714
 -18022583.878 9 -13787149.14848  21662244.669    21662243.7414   21662255.7784
 -27787961.854 9 -21635037.35249  20637131.575    20637131.2914   20637141.7944
  -4985868.272 8  -3878148.25445  24899134.768    24899134.6894   24899150.3784
 00  4 19 22  3  2.0000000  0  9 26 30 17  5 23 24 10  6 13          0.000000024
  -8111579.581 9  -6306615.88346  23733670.616    23733670.4334   23733692.8524
 -21858444.587 9 -17022563.49248  21322726.134    21322726.2344   21322738.1704
 -18372559.558 9 -14292980.69948  21980233.124    21980232.4124   21980245.5374
 -12060027.217 9  -8985568.74146  23152600.127    23152599.3994   23152617.8414
  -7491943.874 8  -5814458.78845  24099929.843    24099929.4074   24099955.2094
  -4814184.250 9  -3729190.88745  23966573.807    23966573.5464   23966589.8894
 -18021443.466 9 -13786260.51448  21662461.676    21662460.7504   21662472.7914
 -27788620.924 9 -21635550.91349  20637006.149    20637005.8684   20637016.3634
  -4985684.008 8  -3878004.66945  24899169.837    24899169.7554   24899185.4584
 00  4 19 22  3  2.0000000  0  9 26 30 17  5 23 24 10  6 13          0.000000024
  -8112996.979 9  -6307720.34246  23733400.902    23733400.7204   23733423.1404
 -21857365.186 9 -17021722.40548  21322931.519    21322931.6214   21322943.5594
 -18373386.780 9 -14293625.28648  21980075.691    21980074.9714   21980088.1114
 -12058309.371 9  -8984230.16646  23152927.018    23152926.2834   23152944.7324
  -7493674.753 8  -5815807.51645  24099600.465    24099600.0254   24099625.8294
  -4812939.296 9  -3728220.79245  23966810.723    23966810.4534   23966826.8114
 -18020302.863 9 -13785371.73848  21662678.732    21662677.8104   21662689.8464
 -27789279.840 9 -21636064.35249  20636880.757    20636880.4854   20636890.9744
  -4985499.520 8  -3877860.91045  24899204.920    24899204.8304   24899220.5414
 00  4 19 22  3  3.0000000  0  9 26 30 17  5 23 24 10  6 13          0.000000024
  -8114414.412 8  -6308824.82746  23733131.166    23733130.9764   23733153.4064
 -21856285.665 9 -17020881.22148  21323136.945    21323137.0394   21323148.9854
 -18374213.958 9 -14294269.84148  21979918.284    21979917.5704   21979930.6964
 -12056591.498 9  -8982891.57346  23153253.939    23153253.2064   23153271.6514
  -7495405.603 9  -5817156.22145  24099271.095    24099270.6634   24099296.4604
  -4811694.371 9  -3727250.72045  23967047.607    23967047.3394   23967063.6964
 -18019162.148 9 -13784482.86848  21662895.814    21662894.8904   21662906.9294
 -27789938.691 9 -21636577.74249  20636755.381    20636755.1124   20636765.5904
  -4985314.901 8  -3877717.04845  24899240.057    24899239.9564   24899255.6874
 00  4 19 22  3  3.0000000  0  9 26 30 17  5 23 24 10  6 13          0.000000024
  -8115831.776 8  -6309929.25946  23732861.426    23732861.2334   23732883.6624
 -21855206.031 9 -17020039.95148  21323342.413    21323342.5074   21323354.4554
 -18375041.067 9 -14294914.34148  21979760.908    21979760.1894   21979773.3204
 -12054873.607 9  -8981552.96546  23153580.850    23153580.1104   23153598.5634
  -7497136.440 9  -5818504.91645  24098941.709    24098941.2814   24098967.0714
  -4810449.481 9  -3726280.67745  23967284.513    23967284.2544   23967300.6074
 -18018021.356 9 -13783593.94048  21663112.892    21663111.9604   21663123.9944
 -27790597.489 9 -21637091.08949  20636630.015    20636629.7394   20636640.2334
  -4985130.161 8  -3877573.09545  24899275.215    24899275.1114   24899290.8554
 00  4 19 22  3  4.0000000  0  9 26 30 17  5 23 24 10  6 13          0.000000024
  -8117249.174 8  -6311033.71846  23732591.702    23732591.5104   23732613.9394
 -21854126.312 9 -17019198.61448  21323547.876    21323547.9754   21323559.9254
 -18375868.150 9 -14295558.81848  21979603.506    21979602.7884   21979615.9224
 -12053155.737 9  -8980214.36846  23153907.735    23153906.9844   23153925.4484
  -7498867.275 9  -5819853.60845  24098612.345    24098611.9194   24098637.6964
  -4809204.637 9  -3725310.67245  23967521.409    23967521.1504   23967537.4974
 -18016880.475 9 -13782704.94448  21663329.981    21663329.0494   21663341.0924
 -27791256.245 9 -21637604.40549  20636504.664    20636504.3854   20636514.8814
  -4984945.332 8  -3877429.07445  24899310.386    24899310.2774   24899326.0324
 00  4 19 22  3  4.0000000  0  9 26 30 17  5 23 24 10  6 13          0.000000024
  -8118666.537 8  -6312138.15046  23732321.972    23732321.7774   23732344.2114
 -21853046.429 9 -17018357.14848  21323753.360    21323753.4624   21323765.4094
 -18376695.146 9 -14296203.23048  21979446.129    21979445.4174   21979458.5454
 -12051437.795 9  -8978875.71746  23154234.668    23154233.9274   23154252.3874
  -7500598.044 9  -5821202.25145  24098282.976    24098282.5474   24098308.3254
  -4807959.764 9  -3724340.64346  23967758.296    23967758.0364   23967774.3874
 -18015739.448 9 -13781815.83248  21663547.130    21663546.1994   21663558.2354
 -27791914.896 9 -21638117.64149  20636379.325    20636379.0424   20636389.5354
  -4984760.346 8  -3877284.92845  24899345.578    24899345.4634   24899361.2334
 00  4 19 22  3  5.0000000  0  9 26 30 17  5 23 24 10  6 13          0.000000024
  -8120083.893 8  -6313242.57746  23732052.259    23732052.0634   23732074.4904
 -21851966.426 9 -17017515.58848  21323958.864    21323958.9604   21323970.9174
 -18377522.066 9 -14296847.58248  21979288.787    21979288.0664   21979301.1984
 -12049719.830 9  -8977537.05046  23154561.583    23154560.8314   23154579.2964
  -7502328.770 9  -5822550.85945  24097953.628    24097953.2054   24097978.9734
  -4806714.931 9  -3723370.64345  23967995.178    23967994.9124   23968011.2784
 -18014598.325 9 -13780926.64748  21663764.280    21663763.3494   21663775.3944
 -27792573.484 9 -21638630.82549  20636254.014    20636253.7394   20636264.2284
  -4984575.207 8  -3877140.66345  24899380.814    24899380.6984   24899396.4714
 00  4 19 22  3  5.0000000  0  9 26 30 17  5 23 24 10  6 13          0.000000024
  -8121501.200 9  -6314346.96546  23731782.566    23731782.3704   23731804.8024
 -21850886.308 9 -17016673.94048  21324164.421    21324164.5184   21324176.4704
 -18378348.937 9 -14297491.89348  21979131.445    21979130.7254   21979143.8584
 -12048001.839 9  -8976198.36346  23154888.514    23154887.7644   23154906.2254
  -7504059.481 9  -5823899.45445  24097624.250    24097623.8334   24097649.5974
  -4805470.124 9  -3722400.66546  23968232.060    23968231.7984   23968248.1614
 -18013457.097 9 -13780037.37948  21663981.447    21663980.5084   21663992.5654
 -27793232.014 9 -21639143.96449  20636128.677    20636128.3964   20636138.8974
  -4984389.952 8  -3876996.30745  24899416.052    24899415.9344   24899431.7134
 00  4 19 22  3  6.0000000  0  9 26 30 17  5 23 24 10  6 13          0.000000025
  -8122918.444 9  -6315451.30246  23731512.855    23731512.6674   23731535.0934
 -21849806.060 9 -17015832.19148  21324369.977    21324370.0764   21324382.0304
 -18379175.740 9 -14298136.15448  21978974.105    21978973.3834   21978986.5204
 -12046283.817 9  -8974859.65046  23155215.452    23155214.7084   23155233.1664
  -7505790.145 8  -5825248.01445  24097294.933    24097294.5214   24097320.2764
  -4804225.308 9  -3721430.67846  23968468.955    23968468.6944   23968485.0584
 -18012315.742 9 -13779148.01548  21664198.636    21664197.6984   21664209.7494
 -27793890.451 9 -21639657.03249  20636003.376    20636003.0924   20636013.5874
  -4984204.568 8  -3876851.85145  24899451.343    24899451.2104   24899467.0134
 00  4 19 22  3  6.0000000  0  9 26 30 17  5 23 24 10  6 13          0.000000025
  -8124335.611 9  -6316555.57746  23731243.180    23731242.9834   23731265.4114
 -21848725.573 9 -17014990.25348  21324575.605    21324575.7034   21324587.6654
 -18380002.361 9 -14298780.27348  21978816.804    21978816.0824   21978829.2204
 -12044565.653 9  -8973520.82246  23155542.412    23155541.6614   23155560.1274
  -7507520.648 9  -5826596.45045  24096965.603    24096965.1994   24096990.9344
  -4802980.427 9  -3720460.64346  23968705.840    23968705.5804   23968721.9514
 -18011174.181 9 -13778258.49048  21664415.871    21664414.9384   21664426.9874
 -27794548.724 9 -21640169.97149  20635878.111    20635877.8294   20635888.3304
  -4984018.935 8  -3876707.20045  24899486.674    24899486.5354   24899502.3514
